<?xml version="1.0" encoding="UTF-8" standalone="no" ?>
<gpx xmlns="http://www.topografix.com/GPX/1/1" xmlns:xsi="http://www.w3.org/2001/XMLSchema-instance" xsi:schemaLocation="http://www.topografix.com/GPX/1/1 http://www.topografix.com/GPX/1/1/gpx.xsd" version="1.1" creator="VisuGPX - https://www.visugpx.com">
  <metadata>
    <name>Marais aux bœufs camon</name>
    <desc><![CDATA[Cœur et santé ]]></desc>
  </metadata>
  <trk>
    <name><![CDATA[Marais aux bœufs camon_1]]></name>
    <trkseg>
      <trkpt lat="49.88292" lon="2.35304">
        <ele>25.4</ele>
        <time>2024-06-26T06:57:29Z</time>
      </trkpt>
      <trkpt lat="49.88292" lon="2.35304">
        <ele>25.4</ele>
        <time>2024-06-26T06:57:30Z</time>
      </trkpt>
      <trkpt lat="49.88292" lon="2.35304">
        <ele>25.4</ele>
        <time>2024-06-26T06:57:31Z</time>
      </trkpt>
      <trkpt lat="49.88292" lon="2.35304">
        <ele>25.4</ele>
        <time>2024-06-26T06:57:32Z</time>
      </trkpt>
      <trkpt lat="49.88292" lon="2.35304">
        <ele>25.4</ele>
        <time>2024-06-26T06:57:33Z</time>
      </trkpt>
      <trkpt lat="49.88292" lon="2.35304">
        <ele>25.4</ele>
        <time>2024-06-26T06:57:34Z</time>
      </trkpt>
      <trkpt lat="49.88292" lon="2.35304">
        <ele>25.4</ele>
        <time>2024-06-26T06:57:35Z</time>
      </trkpt>
      <trkpt lat="49.88292" lon="2.35304">
        <ele>25.4</ele>
        <time>2024-06-26T06:57:36Z</time>
      </trkpt>
      <trkpt lat="49.88292" lon="2.35304">
        <ele>25.4</ele>
        <time>2024-06-26T06:57:37Z</time>
      </trkpt>
      <trkpt lat="49.88292" lon="2.35304">
        <ele>25.4</ele>
        <time>2024-06-26T06:57:38Z</time>
      </trkpt>
      <trkpt lat="49.88292" lon="2.35304">
        <ele>25.4</ele>
        <time>2024-06-26T06:57:39Z</time>
      </trkpt>
      <trkpt lat="49.88292" lon="2.35304">
        <ele>25.4</ele>
        <time>2024-06-26T06:57:40Z</time>
      </trkpt>
      <trkpt lat="49.88292" lon="2.35304">
        <ele>25.4</ele>
        <time>2024-06-26T06:57:41Z</time>
      </trkpt>
      <trkpt lat="49.88292" lon="2.35304">
        <ele>25.4</ele>
        <time>2024-06-26T06:57:42Z</time>
      </trkpt>
      <trkpt lat="49.88292" lon="2.35304">
        <ele>25.4</ele>
        <time>2024-06-26T06:57:43Z</time>
      </trkpt>
      <trkpt lat="49.88292" lon="2.35304">
        <ele>25.4</ele>
        <time>2024-06-26T06:57:44Z</time>
      </trkpt>
      <trkpt lat="49.88292" lon="2.35304">
        <ele>25.4</ele>
        <time>2024-06-26T06:57:45Z</time>
      </trkpt>
      <trkpt lat="49.88292" lon="2.35304">
        <ele>25.4</ele>
        <time>2024-06-26T06:57:46Z</time>
      </trkpt>
      <trkpt lat="49.88292" lon="2.35304">
        <ele>25.4</ele>
        <time>2024-06-26T06:57:47Z</time>
      </trkpt>
      <trkpt lat="49.88292" lon="2.35304">
        <ele>25.4</ele>
        <time>2024-06-26T06:57:48Z</time>
      </trkpt>
      <trkpt lat="49.88292" lon="2.35304">
        <ele>25.4</ele>
        <time>2024-06-26T06:57:49Z</time>
      </trkpt>
      <trkpt lat="49.88292" lon="2.35304">
        <ele>25.4</ele>
        <time>2024-06-26T06:57:50Z</time>
      </trkpt>
      <trkpt lat="49.88292" lon="2.35304">
        <ele>25.4</ele>
        <time>2024-06-26T06:57:51Z</time>
      </trkpt>
      <trkpt lat="49.88292" lon="2.35304">
        <ele>25.4</ele>
        <time>2024-06-26T06:57:52Z</time>
      </trkpt>
      <trkpt lat="49.88292" lon="2.35304">
        <ele>25.4</ele>
        <time>2024-06-26T06:57:53Z</time>
      </trkpt>
      <trkpt lat="49.88292" lon="2.35304">
        <ele>25.4</ele>
        <time>2024-06-26T06:57:54Z</time>
      </trkpt>
      <trkpt lat="49.88292" lon="2.35304">
        <ele>25.4</ele>
        <time>2024-06-26T06:57:55Z</time>
      </trkpt>
      <trkpt lat="49.88292" lon="2.35304">
        <ele>25.4</ele>
        <time>2024-06-26T06:57:56Z</time>
      </trkpt>
      <trkpt lat="49.88292" lon="2.35304">
        <ele>25.4</ele>
        <time>2024-06-26T06:57:57Z</time>
      </trkpt>
      <trkpt lat="49.88292" lon="2.35304">
        <ele>25.4</ele>
        <time>2024-06-26T06:57:58Z</time>
      </trkpt>
      <trkpt lat="49.88292" lon="2.35304">
        <ele>25.4</ele>
        <time>2024-06-26T06:57:59Z</time>
      </trkpt>
      <trkpt lat="49.88292" lon="2.35304">
        <ele>25.4</ele>
        <time>2024-06-26T06:58:00Z</time>
      </trkpt>
      <trkpt lat="49.88292" lon="2.35304">
        <ele>25.4</ele>
        <time>2024-06-26T06:58:01Z</time>
      </trkpt>
      <trkpt lat="49.88292" lon="2.35304">
        <ele>25.4</ele>
        <time>2024-06-26T06:58:02Z</time>
      </trkpt>
      <trkpt lat="49.88292" lon="2.35304">
        <ele>25.4</ele>
        <time>2024-06-26T06:58:03Z</time>
      </trkpt>
      <trkpt lat="49.88292" lon="2.35304">
        <ele>25.4</ele>
        <time>2024-06-26T06:58:04Z</time>
      </trkpt>
      <trkpt lat="49.88292" lon="2.35304">
        <ele>25.4</ele>
        <time>2024-06-26T06:58:05Z</time>
      </trkpt>
      <trkpt lat="49.88292" lon="2.35304">
        <ele>25.4</ele>
        <time>2024-06-26T06:58:06Z</time>
      </trkpt>
      <trkpt lat="49.88292" lon="2.35304">
        <ele>25.4</ele>
        <time>2024-06-26T06:58:07Z</time>
      </trkpt>
      <trkpt lat="49.88292" lon="2.35304">
        <ele>25.4</ele>
        <time>2024-06-26T06:58:08Z</time>
      </trkpt>
      <trkpt lat="49.88292" lon="2.35304">
        <ele>25.4</ele>
        <time>2024-06-26T06:58:09Z</time>
      </trkpt>
      <trkpt lat="49.88292" lon="2.35304">
        <ele>25.4</ele>
        <time>2024-06-26T06:58:10Z</time>
      </trkpt>
      <trkpt lat="49.88292" lon="2.35304">
        <ele>25.4</ele>
        <time>2024-06-26T06:58:11Z</time>
      </trkpt>
      <trkpt lat="49.88292" lon="2.35304">
        <ele>25.4</ele>
        <time>2024-06-26T06:58:12Z</time>
      </trkpt>
      <trkpt lat="49.88292" lon="2.35304">
        <ele>25.4</ele>
        <time>2024-06-26T06:58:13Z</time>
      </trkpt>
      <trkpt lat="49.88292" lon="2.35304">
        <ele>25.4</ele>
        <time>2024-06-26T06:58:14Z</time>
      </trkpt>
      <trkpt lat="49.88292" lon="2.35304">
        <ele>25.4</ele>
        <time>2024-06-26T06:58:15Z</time>
      </trkpt>
      <trkpt lat="49.88292" lon="2.35304">
        <ele>25.4</ele>
        <time>2024-06-26T06:58:16Z</time>
      </trkpt>
      <trkpt lat="49.88292" lon="2.35304">
        <ele>25.4</ele>
        <time>2024-06-26T06:58:17Z</time>
      </trkpt>
      <trkpt lat="49.88292" lon="2.35304">
        <ele>25.4</ele>
        <time>2024-06-26T06:58:18Z</time>
      </trkpt>
      <trkpt lat="49.88292" lon="2.35304">
        <ele>25.4</ele>
        <time>2024-06-26T06:58:19Z</time>
      </trkpt>
      <trkpt lat="49.88292" lon="2.35304">
        <ele>25.4</ele>
        <time>2024-06-26T06:58:20Z</time>
      </trkpt>
      <trkpt lat="49.88292" lon="2.35304">
        <ele>25.4</ele>
        <time>2024-06-26T06:58:21Z</time>
      </trkpt>
      <trkpt lat="49.88292" lon="2.35304">
        <ele>25.4</ele>
        <time>2024-06-26T06:58:22Z</time>
      </trkpt>
      <trkpt lat="49.88292" lon="2.35304">
        <ele>25.4</ele>
        <time>2024-06-26T06:58:24Z</time>
      </trkpt>
      <trkpt lat="49.88292" lon="2.35304">
        <ele>25.4</ele>
        <time>2024-06-26T06:58:25Z</time>
      </trkpt>
      <trkpt lat="49.88292" lon="2.35304">
        <ele>25.4</ele>
        <time>2024-06-26T06:58:26Z</time>
      </trkpt>
      <trkpt lat="49.88292" lon="2.35304">
        <ele>25.4</ele>
        <time>2024-06-26T06:58:27Z</time>
      </trkpt>
      <trkpt lat="49.88292" lon="2.35304">
        <ele>25.4</ele>
        <time>2024-06-26T06:58:28Z</time>
      </trkpt>
      <trkpt lat="49.88292" lon="2.35304">
        <ele>25.4</ele>
        <time>2024-06-26T06:58:29Z</time>
      </trkpt>
      <trkpt lat="49.88292" lon="2.35304">
        <ele>25.4</ele>
        <time>2024-06-26T06:58:30Z</time>
      </trkpt>
      <trkpt lat="49.88292" lon="2.35304">
        <ele>25.4</ele>
        <time>2024-06-26T06:58:31Z</time>
      </trkpt>
      <trkpt lat="49.88292" lon="2.35304">
        <ele>25.4</ele>
        <time>2024-06-26T06:58:32Z</time>
      </trkpt>
      <trkpt lat="49.88292" lon="2.35304">
        <ele>25.4</ele>
        <time>2024-06-26T06:58:33Z</time>
      </trkpt>
      <trkpt lat="49.88292" lon="2.35304">
        <ele>25.4</ele>
        <time>2024-06-26T06:58:34Z</time>
      </trkpt>
      <trkpt lat="49.88292" lon="2.35304">
        <ele>25.4</ele>
        <time>2024-06-26T06:58:35Z</time>
      </trkpt>
      <trkpt lat="49.88292" lon="2.35304">
        <ele>25.4</ele>
        <time>2024-06-26T06:58:36Z</time>
      </trkpt>
      <trkpt lat="49.88292" lon="2.35304">
        <ele>25.4</ele>
        <time>2024-06-26T06:58:37Z</time>
      </trkpt>
      <trkpt lat="49.88292" lon="2.35304">
        <ele>25.4</ele>
        <time>2024-06-26T06:58:38Z</time>
      </trkpt>
      <trkpt lat="49.88292" lon="2.35304">
        <ele>25.4</ele>
        <time>2024-06-26T06:58:39Z</time>
      </trkpt>
      <trkpt lat="49.88292" lon="2.35304">
        <ele>25.4</ele>
        <time>2024-06-26T06:58:40Z</time>
      </trkpt>
      <trkpt lat="49.88292" lon="2.35304">
        <ele>25.4</ele>
        <time>2024-06-26T06:58:41Z</time>
      </trkpt>
      <trkpt lat="49.88292" lon="2.35304">
        <ele>25.4</ele>
        <time>2024-06-26T06:58:42Z</time>
      </trkpt>
      <trkpt lat="49.88292" lon="2.35304">
        <ele>25.4</ele>
        <time>2024-06-26T06:58:43Z</time>
      </trkpt>
      <trkpt lat="49.88292" lon="2.35304">
        <ele>25.4</ele>
        <time>2024-06-26T06:58:44Z</time>
      </trkpt>
      <trkpt lat="49.88292" lon="2.35304">
        <ele>25.4</ele>
        <time>2024-06-26T06:58:45Z</time>
      </trkpt>
      <trkpt lat="49.88292" lon="2.35304">
        <ele>25.4</ele>
        <time>2024-06-26T06:58:46Z</time>
      </trkpt>
      <trkpt lat="49.88292" lon="2.35304">
        <ele>25.4</ele>
        <time>2024-06-26T06:58:47Z</time>
      </trkpt>
      <trkpt lat="49.88292" lon="2.35304">
        <ele>25.4</ele>
        <time>2024-06-26T06:58:48Z</time>
      </trkpt>
      <trkpt lat="49.88292" lon="2.35304">
        <ele>25.4</ele>
        <time>2024-06-26T06:58:49Z</time>
      </trkpt>
      <trkpt lat="49.88292" lon="2.35304">
        <ele>25.4</ele>
        <time>2024-06-26T06:58:50Z</time>
      </trkpt>
      <trkpt lat="49.88292" lon="2.35304">
        <ele>25.4</ele>
        <time>2024-06-26T06:58:51Z</time>
      </trkpt>
      <trkpt lat="49.88292" lon="2.35304">
        <ele>25.4</ele>
        <time>2024-06-26T06:58:52Z</time>
      </trkpt>
      <trkpt lat="49.88292" lon="2.35304">
        <ele>25.4</ele>
        <time>2024-06-26T06:58:53Z</time>
      </trkpt>
      <trkpt lat="49.88292" lon="2.35304">
        <ele>25.4</ele>
        <time>2024-06-26T06:58:54Z</time>
      </trkpt>
      <trkpt lat="49.88292" lon="2.35304">
        <ele>25.4</ele>
        <time>2024-06-26T06:58:55Z</time>
      </trkpt>
      <trkpt lat="49.88292" lon="2.35304">
        <ele>25.4</ele>
        <time>2024-06-26T06:58:56Z</time>
      </trkpt>
      <trkpt lat="49.88292" lon="2.35304">
        <ele>25.4</ele>
        <time>2024-06-26T06:58:57Z</time>
      </trkpt>
      <trkpt lat="49.88292" lon="2.35304">
        <ele>25.4</ele>
        <time>2024-06-26T06:58:58Z</time>
      </trkpt>
      <trkpt lat="49.88292" lon="2.35304">
        <ele>25.4</ele>
        <time>2024-06-26T06:58:59Z</time>
      </trkpt>
      <trkpt lat="49.88292" lon="2.35304">
        <ele>25.4</ele>
        <time>2024-06-26T06:59:00Z</time>
      </trkpt>
      <trkpt lat="49.88292" lon="2.35304">
        <ele>25.4</ele>
        <time>2024-06-26T06:59:01Z</time>
      </trkpt>
      <trkpt lat="49.88292" lon="2.35304">
        <ele>25.4</ele>
        <time>2024-06-26T06:59:02Z</time>
      </trkpt>
      <trkpt lat="49.88292" lon="2.35304">
        <ele>25.4</ele>
        <time>2024-06-26T06:59:03Z</time>
      </trkpt>
      <trkpt lat="49.88292" lon="2.35304">
        <ele>25.4</ele>
        <time>2024-06-26T06:59:04Z</time>
      </trkpt>
      <trkpt lat="49.88292" lon="2.35304">
        <ele>25.4</ele>
        <time>2024-06-26T06:59:05Z</time>
      </trkpt>
      <trkpt lat="49.88292" lon="2.35304">
        <ele>25.4</ele>
        <time>2024-06-26T06:59:06Z</time>
      </trkpt>
      <trkpt lat="49.88292" lon="2.35304">
        <ele>25.4</ele>
        <time>2024-06-26T06:59:07Z</time>
      </trkpt>
      <trkpt lat="49.88292" lon="2.35304">
        <ele>25.4</ele>
        <time>2024-06-26T06:59:08Z</time>
      </trkpt>
      <trkpt lat="49.88292" lon="2.35304">
        <ele>25.4</ele>
        <time>2024-06-26T06:59:09Z</time>
      </trkpt>
      <trkpt lat="49.88292" lon="2.35304">
        <ele>25.4</ele>
        <time>2024-06-26T06:59:10Z</time>
      </trkpt>
      <trkpt lat="49.88292" lon="2.35304">
        <ele>25.4</ele>
        <time>2024-06-26T06:59:11Z</time>
      </trkpt>
      <trkpt lat="49.88292" lon="2.35304">
        <ele>25.4</ele>
        <time>2024-06-26T06:59:12Z</time>
      </trkpt>
      <trkpt lat="49.88292" lon="2.35304">
        <ele>25.4</ele>
        <time>2024-06-26T06:59:13Z</time>
      </trkpt>
      <trkpt lat="49.88292" lon="2.35304">
        <ele>25.4</ele>
        <time>2024-06-26T06:59:14Z</time>
      </trkpt>
      <trkpt lat="49.88292" lon="2.35304">
        <ele>25.4</ele>
        <time>2024-06-26T06:59:15Z</time>
      </trkpt>
      <trkpt lat="49.88292" lon="2.35304">
        <ele>25.4</ele>
        <time>2024-06-26T06:59:16Z</time>
      </trkpt>
      <trkpt lat="49.88292" lon="2.35304">
        <ele>25.4</ele>
        <time>2024-06-26T06:59:17Z</time>
      </trkpt>
      <trkpt lat="49.88292" lon="2.35304">
        <ele>25.4</ele>
        <time>2024-06-26T06:59:18Z</time>
      </trkpt>
      <trkpt lat="49.88292" lon="2.35304">
        <ele>25.4</ele>
        <time>2024-06-26T06:59:19Z</time>
      </trkpt>
      <trkpt lat="49.88292" lon="2.35304">
        <ele>25.4</ele>
        <time>2024-06-26T06:59:20Z</time>
      </trkpt>
      <trkpt lat="49.88292" lon="2.35304">
        <ele>25.4</ele>
        <time>2024-06-26T06:59:21Z</time>
      </trkpt>
      <trkpt lat="49.88292" lon="2.35304">
        <ele>25.4</ele>
        <time>2024-06-26T06:59:22Z</time>
      </trkpt>
      <trkpt lat="49.88292" lon="2.35304">
        <ele>25.4</ele>
        <time>2024-06-26T06:59:23Z</time>
      </trkpt>
      <trkpt lat="49.88292" lon="2.35304">
        <ele>25.4</ele>
        <time>2024-06-26T06:59:24Z</time>
      </trkpt>
      <trkpt lat="49.88292" lon="2.35304">
        <ele>25.4</ele>
        <time>2024-06-26T06:59:25Z</time>
      </trkpt>
      <trkpt lat="49.88292" lon="2.35304">
        <ele>25.4</ele>
        <time>2024-06-26T06:59:26Z</time>
      </trkpt>
      <trkpt lat="49.88292" lon="2.35304">
        <ele>25.4</ele>
        <time>2024-06-26T06:59:27Z</time>
      </trkpt>
      <trkpt lat="49.88292" lon="2.35304">
        <ele>25.4</ele>
        <time>2024-06-26T06:59:28Z</time>
      </trkpt>
      <trkpt lat="49.88292" lon="2.35304">
        <ele>25.4</ele>
        <time>2024-06-26T06:59:29Z</time>
      </trkpt>
      <trkpt lat="49.88292" lon="2.35304">
        <ele>25.4</ele>
        <time>2024-06-26T06:59:30Z</time>
      </trkpt>
      <trkpt lat="49.88292" lon="2.35304">
        <ele>25.4</ele>
        <time>2024-06-26T06:59:31Z</time>
      </trkpt>
      <trkpt lat="49.88292" lon="2.35304">
        <ele>25.4</ele>
        <time>2024-06-26T06:59:32Z</time>
      </trkpt>
      <trkpt lat="49.88292" lon="2.35304">
        <ele>25.4</ele>
        <time>2024-06-26T06:59:33Z</time>
      </trkpt>
      <trkpt lat="49.88292" lon="2.35304">
        <ele>25.4</ele>
        <time>2024-06-26T06:59:34Z</time>
      </trkpt>
      <trkpt lat="49.88292" lon="2.35304">
        <ele>25.4</ele>
        <time>2024-06-26T06:59:35Z</time>
      </trkpt>
      <trkpt lat="49.88292" lon="2.35304">
        <ele>25.4</ele>
        <time>2024-06-26T06:59:36Z</time>
      </trkpt>
      <trkpt lat="49.88292" lon="2.35304">
        <ele>25.4</ele>
        <time>2024-06-26T06:59:37Z</time>
      </trkpt>
      <trkpt lat="49.88292" lon="2.35304">
        <ele>25.4</ele>
        <time>2024-06-26T06:59:38Z</time>
      </trkpt>
      <trkpt lat="49.88292" lon="2.35304">
        <ele>25.4</ele>
        <time>2024-06-26T06:59:39Z</time>
      </trkpt>
      <trkpt lat="49.88292" lon="2.35304">
        <ele>25.4</ele>
        <time>2024-06-26T06:59:40Z</time>
      </trkpt>
      <trkpt lat="49.88292" lon="2.35304">
        <ele>25.4</ele>
        <time>2024-06-26T06:59:41Z</time>
      </trkpt>
      <trkpt lat="49.88292" lon="2.35304">
        <ele>25.4</ele>
        <time>2024-06-26T06:59:42Z</time>
      </trkpt>
      <trkpt lat="49.88292" lon="2.35304">
        <ele>25.4</ele>
        <time>2024-06-26T06:59:43Z</time>
      </trkpt>
      <trkpt lat="49.88292" lon="2.35304">
        <ele>25.4</ele>
        <time>2024-06-26T06:59:44Z</time>
      </trkpt>
      <trkpt lat="49.88292" lon="2.35304">
        <ele>25.4</ele>
        <time>2024-06-26T06:59:45Z</time>
      </trkpt>
      <trkpt lat="49.88292" lon="2.35304">
        <ele>25.4</ele>
        <time>2024-06-26T06:59:46Z</time>
      </trkpt>
      <trkpt lat="49.88292" lon="2.35304">
        <ele>25.4</ele>
        <time>2024-06-26T06:59:47Z</time>
      </trkpt>
      <trkpt lat="49.88292" lon="2.35304">
        <ele>25.4</ele>
        <time>2024-06-26T06:59:48Z</time>
      </trkpt>
      <trkpt lat="49.88292" lon="2.35304">
        <ele>25.4</ele>
        <time>2024-06-26T06:59:49Z</time>
      </trkpt>
      <trkpt lat="49.88292" lon="2.35304">
        <ele>25.4</ele>
        <time>2024-06-26T06:59:50Z</time>
      </trkpt>
      <trkpt lat="49.88292" lon="2.35304">
        <ele>25.4</ele>
        <time>2024-06-26T06:59:51Z</time>
      </trkpt>
      <trkpt lat="49.88292" lon="2.35304">
        <ele>25.4</ele>
        <time>2024-06-26T06:59:52Z</time>
      </trkpt>
      <trkpt lat="49.88292" lon="2.35304">
        <ele>25.4</ele>
        <time>2024-06-26T06:59:53Z</time>
      </trkpt>
      <trkpt lat="49.88292" lon="2.35304">
        <ele>25.4</ele>
        <time>2024-06-26T06:59:54Z</time>
      </trkpt>
      <trkpt lat="49.88292" lon="2.35304">
        <ele>25.4</ele>
        <time>2024-06-26T06:59:55Z</time>
      </trkpt>
      <trkpt lat="49.88292" lon="2.35304">
        <ele>25.4</ele>
        <time>2024-06-26T06:59:56Z</time>
      </trkpt>
      <trkpt lat="49.88292" lon="2.35304">
        <ele>25.4</ele>
        <time>2024-06-26T06:59:57Z</time>
      </trkpt>
      <trkpt lat="49.88292" lon="2.35304">
        <ele>25.4</ele>
        <time>2024-06-26T06:59:58Z</time>
      </trkpt>
      <trkpt lat="49.88292" lon="2.35304">
        <ele>25.4</ele>
        <time>2024-06-26T06:59:59Z</time>
      </trkpt>
      <trkpt lat="49.88292" lon="2.35304">
        <ele>25.4</ele>
        <time>2024-06-26T07:00:00Z</time>
      </trkpt>
      <trkpt lat="49.88292" lon="2.35304">
        <ele>25.4</ele>
        <time>2024-06-26T07:00:01Z</time>
      </trkpt>
      <trkpt lat="49.88292" lon="2.35304">
        <ele>25.4</ele>
        <time>2024-06-26T07:00:02Z</time>
      </trkpt>
      <trkpt lat="49.88292" lon="2.35304">
        <ele>25.4</ele>
        <time>2024-06-26T07:00:03Z</time>
      </trkpt>
      <trkpt lat="49.88292" lon="2.35304">
        <ele>25.4</ele>
        <time>2024-06-26T07:00:04Z</time>
      </trkpt>
      <trkpt lat="49.88292" lon="2.35304">
        <ele>25.4</ele>
        <time>2024-06-26T07:00:05Z</time>
      </trkpt>
      <trkpt lat="49.88292" lon="2.35304">
        <ele>25.4</ele>
        <time>2024-06-26T07:00:06Z</time>
      </trkpt>
      <trkpt lat="49.88292" lon="2.35304">
        <ele>25.4</ele>
        <time>2024-06-26T07:00:07Z</time>
      </trkpt>
      <trkpt lat="49.88292" lon="2.35304">
        <ele>25.4</ele>
        <time>2024-06-26T07:00:08Z</time>
      </trkpt>
      <trkpt lat="49.88292" lon="2.35304">
        <ele>25.4</ele>
        <time>2024-06-26T07:00:09Z</time>
      </trkpt>
      <trkpt lat="49.88292" lon="2.35304">
        <ele>25.4</ele>
        <time>2024-06-26T07:00:10Z</time>
      </trkpt>
      <trkpt lat="49.88292" lon="2.35304">
        <ele>25.4</ele>
        <time>2024-06-26T07:00:11Z</time>
      </trkpt>
      <trkpt lat="49.88292" lon="2.35304">
        <ele>25.4</ele>
        <time>2024-06-26T07:00:12Z</time>
      </trkpt>
      <trkpt lat="49.88292" lon="2.35304">
        <ele>25.4</ele>
        <time>2024-06-26T07:00:13Z</time>
      </trkpt>
      <trkpt lat="49.88292" lon="2.35304">
        <ele>25.4</ele>
        <time>2024-06-26T07:00:14Z</time>
      </trkpt>
      <trkpt lat="49.88292" lon="2.35304">
        <ele>25.4</ele>
        <time>2024-06-26T07:00:15Z</time>
      </trkpt>
      <trkpt lat="49.88292" lon="2.35304">
        <ele>25.4</ele>
        <time>2024-06-26T07:00:16Z</time>
      </trkpt>
      <trkpt lat="49.88292" lon="2.35304">
        <ele>25.4</ele>
        <time>2024-06-26T07:00:17Z</time>
      </trkpt>
      <trkpt lat="49.88292" lon="2.35304">
        <ele>25.4</ele>
        <time>2024-06-26T07:00:18Z</time>
      </trkpt>
      <trkpt lat="49.88292" lon="2.35304">
        <ele>25.4</ele>
        <time>2024-06-26T07:00:19Z</time>
      </trkpt>
      <trkpt lat="49.88292" lon="2.35304">
        <ele>25.4</ele>
        <time>2024-06-26T07:00:20Z</time>
      </trkpt>
      <trkpt lat="49.88292" lon="2.35304">
        <ele>25.4</ele>
        <time>2024-06-26T07:00:21Z</time>
      </trkpt>
      <trkpt lat="49.88292" lon="2.35304">
        <ele>25.4</ele>
        <time>2024-06-26T07:00:22Z</time>
      </trkpt>
      <trkpt lat="49.88292" lon="2.35304">
        <ele>25.4</ele>
        <time>2024-06-26T07:00:23Z</time>
      </trkpt>
      <trkpt lat="49.88292" lon="2.35304">
        <ele>25.4</ele>
        <time>2024-06-26T07:00:24Z</time>
      </trkpt>
      <trkpt lat="49.88292" lon="2.35304">
        <ele>25.4</ele>
        <time>2024-06-26T07:00:25Z</time>
      </trkpt>
      <trkpt lat="49.88292" lon="2.35304">
        <ele>25.4</ele>
        <time>2024-06-26T07:00:26Z</time>
      </trkpt>
      <trkpt lat="49.88292" lon="2.35304">
        <ele>25.4</ele>
        <time>2024-06-26T07:00:27Z</time>
      </trkpt>
      <trkpt lat="49.88292" lon="2.35304">
        <ele>25.4</ele>
        <time>2024-06-26T07:00:28Z</time>
      </trkpt>
      <trkpt lat="49.88292" lon="2.35304">
        <ele>25.4</ele>
        <time>2024-06-26T07:00:29Z</time>
      </trkpt>
      <trkpt lat="49.88292" lon="2.35304">
        <ele>25.4</ele>
        <time>2024-06-26T07:00:30Z</time>
      </trkpt>
      <trkpt lat="49.88292" lon="2.35304">
        <ele>25.4</ele>
        <time>2024-06-26T07:00:31Z</time>
      </trkpt>
      <trkpt lat="49.88292" lon="2.35304">
        <ele>25.4</ele>
        <time>2024-06-26T07:00:32Z</time>
      </trkpt>
      <trkpt lat="49.88292" lon="2.35304">
        <ele>25.4</ele>
        <time>2024-06-26T07:00:33Z</time>
      </trkpt>
      <trkpt lat="49.88292" lon="2.35304">
        <ele>25.4</ele>
        <time>2024-06-26T07:00:34Z</time>
      </trkpt>
      <trkpt lat="49.88292" lon="2.35304">
        <ele>25.4</ele>
        <time>2024-06-26T07:00:35Z</time>
      </trkpt>
      <trkpt lat="49.88292" lon="2.35304">
        <ele>25.4</ele>
        <time>2024-06-26T07:00:36Z</time>
      </trkpt>
      <trkpt lat="49.88292" lon="2.35304">
        <ele>25.4</ele>
        <time>2024-06-26T07:00:37Z</time>
      </trkpt>
      <trkpt lat="49.88292" lon="2.35304">
        <ele>25.4</ele>
        <time>2024-06-26T07:00:38Z</time>
      </trkpt>
      <trkpt lat="49.88292" lon="2.35304">
        <ele>25.4</ele>
        <time>2024-06-26T07:00:39Z</time>
      </trkpt>
      <trkpt lat="49.88292" lon="2.35304">
        <ele>25.4</ele>
        <time>2024-06-26T07:00:40Z</time>
      </trkpt>
      <trkpt lat="49.88292" lon="2.35304">
        <ele>25.4</ele>
        <time>2024-06-26T07:00:41Z</time>
      </trkpt>
      <trkpt lat="49.88292" lon="2.35304">
        <ele>25.4</ele>
        <time>2024-06-26T07:00:42Z</time>
      </trkpt>
      <trkpt lat="49.88292" lon="2.35304">
        <ele>25.4</ele>
        <time>2024-06-26T07:00:43Z</time>
      </trkpt>
      <trkpt lat="49.88292" lon="2.35304">
        <ele>25.4</ele>
        <time>2024-06-26T07:00:44Z</time>
      </trkpt>
      <trkpt lat="49.88292" lon="2.35304">
        <ele>25.4</ele>
        <time>2024-06-26T07:00:45Z</time>
      </trkpt>
      <trkpt lat="49.88292" lon="2.35304">
        <ele>25.4</ele>
        <time>2024-06-26T07:00:46Z</time>
      </trkpt>
      <trkpt lat="49.88292" lon="2.35304">
        <ele>25.4</ele>
        <time>2024-06-26T07:00:47Z</time>
      </trkpt>
      <trkpt lat="49.88292" lon="2.35304">
        <ele>25.4</ele>
        <time>2024-06-26T07:00:48Z</time>
      </trkpt>
      <trkpt lat="49.88292" lon="2.35304">
        <ele>25.4</ele>
        <time>2024-06-26T07:00:49Z</time>
      </trkpt>
      <trkpt lat="49.88292" lon="2.35304">
        <ele>25.4</ele>
        <time>2024-06-26T07:00:50Z</time>
      </trkpt>
      <trkpt lat="49.88292" lon="2.35304">
        <ele>25.4</ele>
        <time>2024-06-26T07:00:51Z</time>
      </trkpt>
      <trkpt lat="49.88292" lon="2.35304">
        <ele>25.4</ele>
        <time>2024-06-26T07:00:52Z</time>
      </trkpt>
      <trkpt lat="49.88292" lon="2.35304">
        <ele>25.4</ele>
        <time>2024-06-26T07:00:53Z</time>
      </trkpt>
      <trkpt lat="49.88292" lon="2.35304">
        <ele>25.4</ele>
        <time>2024-06-26T07:00:54Z</time>
      </trkpt>
      <trkpt lat="49.88292" lon="2.35304">
        <ele>25.4</ele>
        <time>2024-06-26T07:00:55Z</time>
      </trkpt>
      <trkpt lat="49.88292" lon="2.35304">
        <ele>25.4</ele>
        <time>2024-06-26T07:00:56Z</time>
      </trkpt>
      <trkpt lat="49.88292" lon="2.35304">
        <ele>25.4</ele>
        <time>2024-06-26T07:00:57Z</time>
      </trkpt>
      <trkpt lat="49.88292" lon="2.35304">
        <ele>25.4</ele>
        <time>2024-06-26T07:00:58Z</time>
      </trkpt>
      <trkpt lat="49.88292" lon="2.35304">
        <ele>25.4</ele>
        <time>2024-06-26T07:00:59Z</time>
      </trkpt>
      <trkpt lat="49.88292" lon="2.35304">
        <ele>25.4</ele>
        <time>2024-06-26T07:01:00Z</time>
      </trkpt>
      <trkpt lat="49.88292" lon="2.35304">
        <ele>25.4</ele>
        <time>2024-06-26T07:01:01Z</time>
      </trkpt>
      <trkpt lat="49.88292" lon="2.35304">
        <ele>25.4</ele>
        <time>2024-06-26T07:01:02Z</time>
      </trkpt>
      <trkpt lat="49.88292" lon="2.35304">
        <ele>25.4</ele>
        <time>2024-06-26T07:01:03Z</time>
      </trkpt>
      <trkpt lat="49.88292" lon="2.35304">
        <ele>25.4</ele>
        <time>2024-06-26T07:01:04Z</time>
      </trkpt>
      <trkpt lat="49.88292" lon="2.35304">
        <ele>25.4</ele>
        <time>2024-06-26T07:01:05Z</time>
      </trkpt>
      <trkpt lat="49.88292" lon="2.35304">
        <ele>25.4</ele>
        <time>2024-06-26T07:01:06Z</time>
      </trkpt>
      <trkpt lat="49.88292" lon="2.35304">
        <ele>25.4</ele>
        <time>2024-06-26T07:01:07Z</time>
      </trkpt>
      <trkpt lat="49.88292" lon="2.35304">
        <ele>25.4</ele>
        <time>2024-06-26T07:01:08Z</time>
      </trkpt>
      <trkpt lat="49.88292" lon="2.35304">
        <ele>25.4</ele>
        <time>2024-06-26T07:01:09Z</time>
      </trkpt>
      <trkpt lat="49.88292" lon="2.35304">
        <ele>25.4</ele>
        <time>2024-06-26T07:01:10Z</time>
      </trkpt>
      <trkpt lat="49.88292" lon="2.35304">
        <ele>25.4</ele>
        <time>2024-06-26T07:01:11Z</time>
      </trkpt>
      <trkpt lat="49.88292" lon="2.35304">
        <ele>25.4</ele>
        <time>2024-06-26T07:01:12Z</time>
      </trkpt>
      <trkpt lat="49.88292" lon="2.35304">
        <ele>25.4</ele>
        <time>2024-06-26T07:01:13Z</time>
      </trkpt>
      <trkpt lat="49.88292" lon="2.35304">
        <ele>25.4</ele>
        <time>2024-06-26T07:01:14Z</time>
      </trkpt>
      <trkpt lat="49.88292" lon="2.35304">
        <ele>25.4</ele>
        <time>2024-06-26T07:01:15Z</time>
      </trkpt>
      <trkpt lat="49.88292" lon="2.35304">
        <ele>25.4</ele>
        <time>2024-06-26T07:01:16Z</time>
      </trkpt>
      <trkpt lat="49.88292" lon="2.35304">
        <ele>25.4</ele>
        <time>2024-06-26T07:01:17Z</time>
      </trkpt>
      <trkpt lat="49.88292" lon="2.35304">
        <ele>25.4</ele>
        <time>2024-06-26T07:01:18Z</time>
      </trkpt>
      <trkpt lat="49.88292" lon="2.35304">
        <ele>25.4</ele>
        <time>2024-06-26T07:01:19Z</time>
      </trkpt>
      <trkpt lat="49.88292" lon="2.35304">
        <ele>25.4</ele>
        <time>2024-06-26T07:01:20Z</time>
      </trkpt>
      <trkpt lat="49.88292" lon="2.35304">
        <ele>25.4</ele>
        <time>2024-06-26T07:01:21Z</time>
      </trkpt>
      <trkpt lat="49.88292" lon="2.35304">
        <ele>25.4</ele>
        <time>2024-06-26T07:01:22Z</time>
      </trkpt>
      <trkpt lat="49.88292" lon="2.35304">
        <ele>25.4</ele>
        <time>2024-06-26T07:01:23Z</time>
      </trkpt>
      <trkpt lat="49.88292" lon="2.35304">
        <ele>25.4</ele>
        <time>2024-06-26T07:01:24Z</time>
      </trkpt>
      <trkpt lat="49.88292" lon="2.35304">
        <ele>25.4</ele>
        <time>2024-06-26T07:01:25Z</time>
      </trkpt>
      <trkpt lat="49.88292" lon="2.35304">
        <ele>25.4</ele>
        <time>2024-06-26T07:01:26Z</time>
      </trkpt>
      <trkpt lat="49.88292" lon="2.35304">
        <ele>25.4</ele>
        <time>2024-06-26T07:01:27Z</time>
      </trkpt>
      <trkpt lat="49.88292" lon="2.35304">
        <ele>25.4</ele>
        <time>2024-06-26T07:01:28Z</time>
      </trkpt>
      <trkpt lat="49.88292" lon="2.35304">
        <ele>25.4</ele>
        <time>2024-06-26T07:01:29Z</time>
      </trkpt>
      <trkpt lat="49.88292" lon="2.35304">
        <ele>25.4</ele>
        <time>2024-06-26T07:01:30Z</time>
      </trkpt>
      <trkpt lat="49.88292" lon="2.35304">
        <ele>25.4</ele>
        <time>2024-06-26T07:01:31Z</time>
      </trkpt>
      <trkpt lat="49.88292" lon="2.35304">
        <ele>25.4</ele>
        <time>2024-06-26T07:01:32Z</time>
      </trkpt>
      <trkpt lat="49.88292" lon="2.35304">
        <ele>25.4</ele>
        <time>2024-06-26T07:01:33Z</time>
      </trkpt>
      <trkpt lat="49.88292" lon="2.35304">
        <ele>25.4</ele>
        <time>2024-06-26T07:01:34Z</time>
      </trkpt>
      <trkpt lat="49.88292" lon="2.35304">
        <ele>25.4</ele>
        <time>2024-06-26T07:01:35Z</time>
      </trkpt>
      <trkpt lat="49.88292" lon="2.35304">
        <ele>25.4</ele>
        <time>2024-06-26T07:01:36Z</time>
      </trkpt>
      <trkpt lat="49.88292" lon="2.35304">
        <ele>25.4</ele>
        <time>2024-06-26T07:01:37Z</time>
      </trkpt>
      <trkpt lat="49.88292" lon="2.35304">
        <ele>25.4</ele>
        <time>2024-06-26T07:01:38Z</time>
      </trkpt>
      <trkpt lat="49.88292" lon="2.35304">
        <ele>25.4</ele>
        <time>2024-06-26T07:01:39Z</time>
      </trkpt>
      <trkpt lat="49.88292" lon="2.35304">
        <ele>25.4</ele>
        <time>2024-06-26T07:01:40Z</time>
      </trkpt>
      <trkpt lat="49.88292" lon="2.35304">
        <ele>25.4</ele>
        <time>2024-06-26T07:01:41Z</time>
      </trkpt>
      <trkpt lat="49.88292" lon="2.35304">
        <ele>25.4</ele>
        <time>2024-06-26T07:01:42Z</time>
      </trkpt>
      <trkpt lat="49.88292" lon="2.35304">
        <ele>25.4</ele>
        <time>2024-06-26T07:01:43Z</time>
      </trkpt>
      <trkpt lat="49.88292" lon="2.35304">
        <ele>25.4</ele>
        <time>2024-06-26T07:01:44Z</time>
      </trkpt>
      <trkpt lat="49.88292" lon="2.35304">
        <ele>25.4</ele>
        <time>2024-06-26T07:01:45Z</time>
      </trkpt>
      <trkpt lat="49.88292" lon="2.35304">
        <ele>25.4</ele>
        <time>2024-06-26T07:01:46Z</time>
      </trkpt>
      <trkpt lat="49.88292" lon="2.35304">
        <ele>25.4</ele>
        <time>2024-06-26T07:01:47Z</time>
      </trkpt>
      <trkpt lat="49.88292" lon="2.35304">
        <ele>25.4</ele>
        <time>2024-06-26T07:01:48Z</time>
      </trkpt>
      <trkpt lat="49.88292" lon="2.35304">
        <ele>25.4</ele>
        <time>2024-06-26T07:01:49Z</time>
      </trkpt>
      <trkpt lat="49.88292" lon="2.35304">
        <ele>25.4</ele>
        <time>2024-06-26T07:01:50Z</time>
      </trkpt>
      <trkpt lat="49.88292" lon="2.35304">
        <ele>25.4</ele>
        <time>2024-06-26T07:01:51Z</time>
      </trkpt>
      <trkpt lat="49.88292" lon="2.35304">
        <ele>25.4</ele>
        <time>2024-06-26T07:01:52Z</time>
      </trkpt>
      <trkpt lat="49.88292" lon="2.35304">
        <ele>25.4</ele>
        <time>2024-06-26T07:01:53Z</time>
      </trkpt>
      <trkpt lat="49.88292" lon="2.35304">
        <ele>25.4</ele>
        <time>2024-06-26T07:01:54Z</time>
      </trkpt>
      <trkpt lat="49.88292" lon="2.35304">
        <ele>25.4</ele>
        <time>2024-06-26T07:01:55Z</time>
      </trkpt>
      <trkpt lat="49.88292" lon="2.35304">
        <ele>25.4</ele>
        <time>2024-06-26T07:01:56Z</time>
      </trkpt>
      <trkpt lat="49.88292" lon="2.35304">
        <ele>25.4</ele>
        <time>2024-06-26T07:01:57Z</time>
      </trkpt>
      <trkpt lat="49.88292" lon="2.35304">
        <ele>25.4</ele>
        <time>2024-06-26T07:01:58Z</time>
      </trkpt>
      <trkpt lat="49.88292" lon="2.35304">
        <ele>25.4</ele>
        <time>2024-06-26T07:01:59Z</time>
      </trkpt>
      <trkpt lat="49.88292" lon="2.35304">
        <ele>25.4</ele>
        <time>2024-06-26T07:02:00Z</time>
      </trkpt>
      <trkpt lat="49.88292" lon="2.35304">
        <ele>25.4</ele>
        <time>2024-06-26T07:02:01Z</time>
      </trkpt>
      <trkpt lat="49.88292" lon="2.35304">
        <ele>25.4</ele>
        <time>2024-06-26T07:02:02Z</time>
      </trkpt>
      <trkpt lat="49.88292" lon="2.35304">
        <ele>25.4</ele>
        <time>2024-06-26T07:02:03Z</time>
      </trkpt>
      <trkpt lat="49.88292" lon="2.35304">
        <ele>25.4</ele>
        <time>2024-06-26T07:02:04Z</time>
      </trkpt>
      <trkpt lat="49.88292" lon="2.35304">
        <ele>25.4</ele>
        <time>2024-06-26T07:02:05Z</time>
      </trkpt>
      <trkpt lat="49.88292" lon="2.35304">
        <ele>25.4</ele>
        <time>2024-06-26T07:02:06Z</time>
      </trkpt>
      <trkpt lat="49.88292" lon="2.35304">
        <ele>25.4</ele>
        <time>2024-06-26T07:02:07Z</time>
      </trkpt>
      <trkpt lat="49.88292" lon="2.35304">
        <ele>25.4</ele>
        <time>2024-06-26T07:02:08Z</time>
      </trkpt>
      <trkpt lat="49.88292" lon="2.35304">
        <ele>25.4</ele>
        <time>2024-06-26T07:02:09Z</time>
      </trkpt>
      <trkpt lat="49.88292" lon="2.35304">
        <ele>25.4</ele>
        <time>2024-06-26T07:02:10Z</time>
      </trkpt>
      <trkpt lat="49.88292" lon="2.35304">
        <ele>25.4</ele>
        <time>2024-06-26T07:02:11Z</time>
      </trkpt>
      <trkpt lat="49.88292" lon="2.35304">
        <ele>25.4</ele>
        <time>2024-06-26T07:02:12Z</time>
      </trkpt>
      <trkpt lat="49.88292" lon="2.35304">
        <ele>25.4</ele>
        <time>2024-06-26T07:02:13Z</time>
      </trkpt>
      <trkpt lat="49.88292" lon="2.35304">
        <ele>25.4</ele>
        <time>2024-06-26T07:02:14Z</time>
      </trkpt>
      <trkpt lat="49.88292" lon="2.35304">
        <ele>25.4</ele>
        <time>2024-06-26T07:02:15Z</time>
      </trkpt>
      <trkpt lat="49.88292" lon="2.35305">
        <ele>25.4</ele>
        <time>2024-06-26T07:02:16Z</time>
      </trkpt>
      <trkpt lat="49.88292" lon="2.35304">
        <ele>25.4</ele>
        <time>2024-06-26T07:02:17Z</time>
      </trkpt>
      <trkpt lat="49.88291" lon="2.35303">
        <ele>25.4</ele>
        <time>2024-06-26T07:02:18Z</time>
      </trkpt>
      <trkpt lat="49.88291" lon="2.35303">
        <ele>25.4</ele>
        <time>2024-06-26T07:02:19Z</time>
      </trkpt>
      <trkpt lat="49.88291" lon="2.35302">
        <ele>25.4</ele>
        <time>2024-06-26T07:02:20Z</time>
      </trkpt>
      <trkpt lat="49.88291" lon="2.35302">
        <ele>25.5</ele>
        <time>2024-06-26T07:02:21Z</time>
      </trkpt>
      <trkpt lat="49.8829" lon="2.35301">
        <ele>25.5</ele>
        <time>2024-06-26T07:02:22Z</time>
      </trkpt>
      <trkpt lat="49.8829" lon="2.353">
        <ele>25.5</ele>
        <time>2024-06-26T07:02:23Z</time>
      </trkpt>
      <trkpt lat="49.8829" lon="2.35299">
        <ele>25.5</ele>
        <time>2024-06-26T07:02:24Z</time>
      </trkpt>
      <trkpt lat="49.88289" lon="2.35298">
        <ele>25.5</ele>
        <time>2024-06-26T07:02:25Z</time>
      </trkpt>
      <trkpt lat="49.88289" lon="2.35297">
        <ele>25.5</ele>
        <time>2024-06-26T07:02:26Z</time>
      </trkpt>
      <trkpt lat="49.88289" lon="2.35296">
        <ele>25.5</ele>
        <time>2024-06-26T07:02:27Z</time>
      </trkpt>
      <trkpt lat="49.88288" lon="2.35295">
        <ele>25.5</ele>
        <time>2024-06-26T07:02:28Z</time>
      </trkpt>
      <trkpt lat="49.88288" lon="2.35294">
        <ele>25.5</ele>
        <time>2024-06-26T07:02:29Z</time>
      </trkpt>
      <trkpt lat="49.88287" lon="2.35293">
        <ele>25.5</ele>
        <time>2024-06-26T07:02:30Z</time>
      </trkpt>
      <trkpt lat="49.88287" lon="2.35292">
        <ele>25.5</ele>
        <time>2024-06-26T07:02:31Z</time>
      </trkpt>
      <trkpt lat="49.88286" lon="2.35289">
        <ele>25.5</ele>
        <time>2024-06-26T07:02:32Z</time>
      </trkpt>
      <trkpt lat="49.88285" lon="2.35288">
        <ele>25.5</ele>
        <time>2024-06-26T07:02:33Z</time>
      </trkpt>
      <trkpt lat="49.88285" lon="2.35286">
        <ele>25.5</ele>
        <time>2024-06-26T07:02:34Z</time>
      </trkpt>
      <trkpt lat="49.88283" lon="2.35282">
        <ele>25.4</ele>
        <time>2024-06-26T07:02:35Z</time>
      </trkpt>
      <trkpt lat="49.88283" lon="2.35281">
        <ele>25.4</ele>
        <time>2024-06-26T07:02:36Z</time>
      </trkpt>
      <trkpt lat="49.88282" lon="2.35279">
        <ele>25.4</ele>
        <time>2024-06-26T07:02:37Z</time>
      </trkpt>
      <trkpt lat="49.88282" lon="2.35279">
        <ele>25.3</ele>
        <time>2024-06-26T07:02:38Z</time>
      </trkpt>
      <trkpt lat="49.88281" lon="2.35278">
        <ele>25.3</ele>
        <time>2024-06-26T07:02:39Z</time>
      </trkpt>
      <trkpt lat="49.88281" lon="2.35278">
        <ele>25.3</ele>
        <time>2024-06-26T07:02:40Z</time>
      </trkpt>
      <trkpt lat="49.88281" lon="2.35278">
        <ele>25.3</ele>
        <time>2024-06-26T07:02:41Z</time>
      </trkpt>
      <trkpt lat="49.8828" lon="2.35277">
        <ele>25.3</ele>
        <time>2024-06-26T07:02:42Z</time>
      </trkpt>
      <trkpt lat="49.8828" lon="2.35276">
        <ele>25.3</ele>
        <time>2024-06-26T07:02:43Z</time>
      </trkpt>
      <trkpt lat="49.88279" lon="2.35276">
        <ele>25.3</ele>
        <time>2024-06-26T07:02:44Z</time>
      </trkpt>
      <trkpt lat="49.88279" lon="2.35275">
        <ele>25.3</ele>
        <time>2024-06-26T07:02:45Z</time>
      </trkpt>
      <trkpt lat="49.88279" lon="2.35274">
        <ele>25.3</ele>
        <time>2024-06-26T07:02:46Z</time>
      </trkpt>
      <trkpt lat="49.88278" lon="2.35272">
        <ele>25.2</ele>
        <time>2024-06-26T07:02:47Z</time>
      </trkpt>
      <trkpt lat="49.88279" lon="2.35269">
        <ele>25.2</ele>
        <time>2024-06-26T07:02:48Z</time>
      </trkpt>
      <trkpt lat="49.8828" lon="2.35267">
        <ele>25.1</ele>
        <time>2024-06-26T07:02:49Z</time>
      </trkpt>
      <trkpt lat="49.8828" lon="2.35266">
        <ele>25.1</ele>
        <time>2024-06-26T07:02:50Z</time>
      </trkpt>
      <trkpt lat="49.8828" lon="2.35265">
        <ele>25.1</ele>
        <time>2024-06-26T07:02:51Z</time>
      </trkpt>
      <trkpt lat="49.8828" lon="2.35265">
        <ele>25.1</ele>
        <time>2024-06-26T07:02:52Z</time>
      </trkpt>
      <trkpt lat="49.88281" lon="2.35264">
        <ele>25.1</ele>
        <time>2024-06-26T07:02:53Z</time>
      </trkpt>
      <trkpt lat="49.88282" lon="2.35264">
        <ele>25.1</ele>
        <time>2024-06-26T07:02:54Z</time>
      </trkpt>
      <trkpt lat="49.88282" lon="2.35263">
        <ele>25.1</ele>
        <time>2024-06-26T07:02:55Z</time>
      </trkpt>
      <trkpt lat="49.88282" lon="2.35263">
        <ele>25.1</ele>
        <time>2024-06-26T07:02:56Z</time>
      </trkpt>
      <trkpt lat="49.88283" lon="2.35263">
        <ele>25.1</ele>
        <time>2024-06-26T07:02:57Z</time>
      </trkpt>
      <trkpt lat="49.88284" lon="2.35263">
        <ele>25.1</ele>
        <time>2024-06-26T07:02:58Z</time>
      </trkpt>
      <trkpt lat="49.88284" lon="2.35263">
        <ele>25.1</ele>
        <time>2024-06-26T07:02:59Z</time>
      </trkpt>
      <trkpt lat="49.88285" lon="2.35263">
        <ele>25.1</ele>
        <time>2024-06-26T07:03:00Z</time>
      </trkpt>
      <trkpt lat="49.88285" lon="2.35263">
        <ele>25.1</ele>
        <time>2024-06-26T07:03:01Z</time>
      </trkpt>
      <trkpt lat="49.88287" lon="2.35263">
        <ele>25.1</ele>
        <time>2024-06-26T07:03:02Z</time>
      </trkpt>
      <trkpt lat="49.88287" lon="2.35263">
        <ele>25.1</ele>
        <time>2024-06-26T07:03:04Z</time>
      </trkpt>
      <trkpt lat="49.88288" lon="2.35263">
        <ele>25.1</ele>
        <time>2024-06-26T07:03:05Z</time>
      </trkpt>
      <trkpt lat="49.88289" lon="2.35262">
        <ele>25.1</ele>
        <time>2024-06-26T07:03:06Z</time>
      </trkpt>
      <trkpt lat="49.8829" lon="2.35262">
        <ele>25.1</ele>
        <time>2024-06-26T07:03:07Z</time>
      </trkpt>
      <trkpt lat="49.8829" lon="2.35262">
        <ele>25.1</ele>
        <time>2024-06-26T07:03:08Z</time>
      </trkpt>
      <trkpt lat="49.88291" lon="2.35262">
        <ele>25.1</ele>
        <time>2024-06-26T07:03:09Z</time>
      </trkpt>
      <trkpt lat="49.88292" lon="2.35262">
        <ele>25.1</ele>
        <time>2024-06-26T07:03:10Z</time>
      </trkpt>
      <trkpt lat="49.88292" lon="2.35262">
        <ele>25.1</ele>
        <time>2024-06-26T07:03:11Z</time>
      </trkpt>
      <trkpt lat="49.88293" lon="2.35262">
        <ele>25.1</ele>
        <time>2024-06-26T07:03:12Z</time>
      </trkpt>
      <trkpt lat="49.88294" lon="2.35262">
        <ele>25.1</ele>
        <time>2024-06-26T07:03:13Z</time>
      </trkpt>
      <trkpt lat="49.88294" lon="2.35261">
        <ele>25.1</ele>
        <time>2024-06-26T07:03:14Z</time>
      </trkpt>
      <trkpt lat="49.88296" lon="2.35261">
        <ele>25.1</ele>
        <time>2024-06-26T07:03:15Z</time>
      </trkpt>
      <trkpt lat="49.88296" lon="2.3526">
        <ele>25.1</ele>
        <time>2024-06-26T07:03:17Z</time>
      </trkpt>
      <trkpt lat="49.88297" lon="2.3526">
        <ele>25.1</ele>
        <time>2024-06-26T07:03:18Z</time>
      </trkpt>
      <trkpt lat="49.88298" lon="2.35259">
        <ele>25</ele>
        <time>2024-06-26T07:03:19Z</time>
      </trkpt>
      <trkpt lat="49.88298" lon="2.35259">
        <ele>25</ele>
        <time>2024-06-26T07:03:20Z</time>
      </trkpt>
      <trkpt lat="49.88299" lon="2.3526">
        <ele>25</ele>
        <time>2024-06-26T07:03:21Z</time>
      </trkpt>
      <trkpt lat="49.88299" lon="2.35262">
        <ele>25</ele>
        <time>2024-06-26T07:03:22Z</time>
      </trkpt>
      <trkpt lat="49.88299" lon="2.35262">
        <ele>25</ele>
        <time>2024-06-26T07:03:24Z</time>
      </trkpt>
      <trkpt lat="49.88301" lon="2.35261">
        <ele>25</ele>
        <time>2024-06-26T07:03:25Z</time>
      </trkpt>
      <trkpt lat="49.88301" lon="2.35261">
        <ele>25</ele>
        <time>2024-06-26T07:03:27Z</time>
      </trkpt>
      <trkpt lat="49.88302" lon="2.3526">
        <ele>25</ele>
        <time>2024-06-26T07:03:28Z</time>
      </trkpt>
      <trkpt lat="49.88302" lon="2.35259">
        <ele>25</ele>
        <time>2024-06-26T07:03:29Z</time>
      </trkpt>
      <trkpt lat="49.88303" lon="2.35259">
        <ele>25</ele>
        <time>2024-06-26T07:03:30Z</time>
      </trkpt>
      <trkpt lat="49.88304" lon="2.35259">
        <ele>24.9</ele>
        <time>2024-06-26T07:03:31Z</time>
      </trkpt>
      <trkpt lat="49.88306" lon="2.35259">
        <ele>24.9</ele>
        <time>2024-06-26T07:03:32Z</time>
      </trkpt>
      <trkpt lat="49.88306" lon="2.35259">
        <ele>24.9</ele>
        <time>2024-06-26T07:03:33Z</time>
      </trkpt>
      <trkpt lat="49.88307" lon="2.35259">
        <ele>24.9</ele>
        <time>2024-06-26T07:03:34Z</time>
      </trkpt>
      <trkpt lat="49.88308" lon="2.3526">
        <ele>24.9</ele>
        <time>2024-06-26T07:03:35Z</time>
      </trkpt>
      <trkpt lat="49.88309" lon="2.3526">
        <ele>24.9</ele>
        <time>2024-06-26T07:03:37Z</time>
      </trkpt>
      <trkpt lat="49.8831" lon="2.3526">
        <ele>24.9</ele>
        <time>2024-06-26T07:03:38Z</time>
      </trkpt>
      <trkpt lat="49.88312" lon="2.35259">
        <ele>24.8</ele>
        <time>2024-06-26T07:03:39Z</time>
      </trkpt>
      <trkpt lat="49.88313" lon="2.3526">
        <ele>24.8</ele>
        <time>2024-06-26T07:03:41Z</time>
      </trkpt>
      <trkpt lat="49.88314" lon="2.35259">
        <ele>24.8</ele>
        <time>2024-06-26T07:03:42Z</time>
      </trkpt>
      <trkpt lat="49.88316" lon="2.35259">
        <ele>24.8</ele>
        <time>2024-06-26T07:03:43Z</time>
      </trkpt>
      <trkpt lat="49.88316" lon="2.35259">
        <ele>24.8</ele>
        <time>2024-06-26T07:03:45Z</time>
      </trkpt>
      <trkpt lat="49.88317" lon="2.3526">
        <ele>24.8</ele>
        <time>2024-06-26T07:03:46Z</time>
      </trkpt>
      <trkpt lat="49.88318" lon="2.35259">
        <ele>24.8</ele>
        <time>2024-06-26T07:03:47Z</time>
      </trkpt>
      <trkpt lat="49.88319" lon="2.3526">
        <ele>24.8</ele>
        <time>2024-06-26T07:03:49Z</time>
      </trkpt>
      <trkpt lat="49.88319" lon="2.3526">
        <ele>24.8</ele>
        <time>2024-06-26T07:03:50Z</time>
      </trkpt>
      <trkpt lat="49.8832" lon="2.35259">
        <ele>24.8</ele>
        <time>2024-06-26T07:03:51Z</time>
      </trkpt>
      <trkpt lat="49.88321" lon="2.35259">
        <ele>24.8</ele>
        <time>2024-06-26T07:03:52Z</time>
      </trkpt>
      <trkpt lat="49.88322" lon="2.35258">
        <ele>24.8</ele>
        <time>2024-06-26T07:03:53Z</time>
      </trkpt>
      <trkpt lat="49.88323" lon="2.35258">
        <ele>24.8</ele>
        <time>2024-06-26T07:03:54Z</time>
      </trkpt>
      <trkpt lat="49.88324" lon="2.35257">
        <ele>24.8</ele>
        <time>2024-06-26T07:03:55Z</time>
      </trkpt>
      <trkpt lat="49.88325" lon="2.35256">
        <ele>24.8</ele>
        <time>2024-06-26T07:03:56Z</time>
      </trkpt>
      <trkpt lat="49.88326" lon="2.35256">
        <ele>24.8</ele>
        <time>2024-06-26T07:03:57Z</time>
      </trkpt>
      <trkpt lat="49.88327" lon="2.35256">
        <ele>24.8</ele>
        <time>2024-06-26T07:03:58Z</time>
      </trkpt>
      <trkpt lat="49.88329" lon="2.35254">
        <ele>24.7</ele>
        <time>2024-06-26T07:03:59Z</time>
      </trkpt>
      <trkpt lat="49.8833" lon="2.35254">
        <ele>24.7</ele>
        <time>2024-06-26T07:04:01Z</time>
      </trkpt>
      <trkpt lat="49.8833" lon="2.35253">
        <ele>24.7</ele>
        <time>2024-06-26T07:04:02Z</time>
      </trkpt>
      <trkpt lat="49.88331" lon="2.35252">
        <ele>24.7</ele>
        <time>2024-06-26T07:04:03Z</time>
      </trkpt>
      <trkpt lat="49.88332" lon="2.35252">
        <ele>24.7</ele>
        <time>2024-06-26T07:04:05Z</time>
      </trkpt>
      <trkpt lat="49.88332" lon="2.35251">
        <ele>24.7</ele>
        <time>2024-06-26T07:04:06Z</time>
      </trkpt>
      <trkpt lat="49.88333" lon="2.3525">
        <ele>24.7</ele>
        <time>2024-06-26T07:04:07Z</time>
      </trkpt>
      <trkpt lat="49.88333" lon="2.35249">
        <ele>24.7</ele>
        <time>2024-06-26T07:04:08Z</time>
      </trkpt>
      <trkpt lat="49.88335" lon="2.35248">
        <ele>24.7</ele>
        <time>2024-06-26T07:04:09Z</time>
      </trkpt>
      <trkpt lat="49.88336" lon="2.35247">
        <ele>24.7</ele>
        <time>2024-06-26T07:04:10Z</time>
      </trkpt>
      <trkpt lat="49.88337" lon="2.35246">
        <ele>24.7</ele>
        <time>2024-06-26T07:04:11Z</time>
      </trkpt>
      <trkpt lat="49.88338" lon="2.35245">
        <ele>24.7</ele>
        <time>2024-06-26T07:04:12Z</time>
      </trkpt>
      <trkpt lat="49.88339" lon="2.35245">
        <ele>24.7</ele>
        <time>2024-06-26T07:04:13Z</time>
      </trkpt>
      <trkpt lat="49.88339" lon="2.35244">
        <ele>24.7</ele>
        <time>2024-06-26T07:04:14Z</time>
      </trkpt>
      <trkpt lat="49.8834" lon="2.35243">
        <ele>24.7</ele>
        <time>2024-06-26T07:04:15Z</time>
      </trkpt>
      <trkpt lat="49.88341" lon="2.35243">
        <ele>24.7</ele>
        <time>2024-06-26T07:04:16Z</time>
      </trkpt>
      <trkpt lat="49.88343" lon="2.35241">
        <ele>24.7</ele>
        <time>2024-06-26T07:04:17Z</time>
      </trkpt>
      <trkpt lat="49.88344" lon="2.3524">
        <ele>24.7</ele>
        <time>2024-06-26T07:04:18Z</time>
      </trkpt>
      <trkpt lat="49.88344" lon="2.3524">
        <ele>24.7</ele>
        <time>2024-06-26T07:04:19Z</time>
      </trkpt>
      <trkpt lat="49.88346" lon="2.35239">
        <ele>24.8</ele>
        <time>2024-06-26T07:04:20Z</time>
      </trkpt>
      <trkpt lat="49.88348" lon="2.35238">
        <ele>24.8</ele>
        <time>2024-06-26T07:04:21Z</time>
      </trkpt>
      <trkpt lat="49.88349" lon="2.35236">
        <ele>24.8</ele>
        <time>2024-06-26T07:04:22Z</time>
      </trkpt>
      <trkpt lat="49.8835" lon="2.35235">
        <ele>24.8</ele>
        <time>2024-06-26T07:04:23Z</time>
      </trkpt>
      <trkpt lat="49.88351" lon="2.35234">
        <ele>24.8</ele>
        <time>2024-06-26T07:04:24Z</time>
      </trkpt>
      <trkpt lat="49.88354" lon="2.35232">
        <ele>24.8</ele>
        <time>2024-06-26T07:04:25Z</time>
      </trkpt>
      <trkpt lat="49.88355" lon="2.35231">
        <ele>24.8</ele>
        <time>2024-06-26T07:04:26Z</time>
      </trkpt>
      <trkpt lat="49.88357" lon="2.35229">
        <ele>24.9</ele>
        <time>2024-06-26T07:04:27Z</time>
      </trkpt>
      <trkpt lat="49.88358" lon="2.35228">
        <ele>24.9</ele>
        <time>2024-06-26T07:04:28Z</time>
      </trkpt>
      <trkpt lat="49.88359" lon="2.35227">
        <ele>24.9</ele>
        <time>2024-06-26T07:04:29Z</time>
      </trkpt>
      <trkpt lat="49.88361" lon="2.35226">
        <ele>24.9</ele>
        <time>2024-06-26T07:04:30Z</time>
      </trkpt>
      <trkpt lat="49.88361" lon="2.35225">
        <ele>24.9</ele>
        <time>2024-06-26T07:04:31Z</time>
      </trkpt>
      <trkpt lat="49.88362" lon="2.35224">
        <ele>24.9</ele>
        <time>2024-06-26T07:04:32Z</time>
      </trkpt>
      <trkpt lat="49.88364" lon="2.35223">
        <ele>24.9</ele>
        <time>2024-06-26T07:04:33Z</time>
      </trkpt>
      <trkpt lat="49.88365" lon="2.35221">
        <ele>25</ele>
        <time>2024-06-26T07:04:35Z</time>
      </trkpt>
      <trkpt lat="49.88366" lon="2.35219">
        <ele>25</ele>
        <time>2024-06-26T07:04:36Z</time>
      </trkpt>
      <trkpt lat="49.88368" lon="2.35216">
        <ele>25</ele>
        <time>2024-06-26T07:04:37Z</time>
      </trkpt>
      <trkpt lat="49.88369" lon="2.35215">
        <ele>25</ele>
        <time>2024-06-26T07:04:38Z</time>
      </trkpt>
      <trkpt lat="49.8837" lon="2.35212">
        <ele>25.1</ele>
        <time>2024-06-26T07:04:39Z</time>
      </trkpt>
      <trkpt lat="49.88371" lon="2.3521">
        <ele>25.1</ele>
        <time>2024-06-26T07:04:40Z</time>
      </trkpt>
      <trkpt lat="49.88372" lon="2.35208">
        <ele>25.1</ele>
        <time>2024-06-26T07:04:41Z</time>
      </trkpt>
      <trkpt lat="49.88372" lon="2.35206">
        <ele>25.1</ele>
        <time>2024-06-26T07:04:42Z</time>
      </trkpt>
      <trkpt lat="49.88373" lon="2.35203">
        <ele>25.2</ele>
        <time>2024-06-26T07:04:43Z</time>
      </trkpt>
      <trkpt lat="49.88373" lon="2.35201">
        <ele>25.2</ele>
        <time>2024-06-26T07:04:44Z</time>
      </trkpt>
      <trkpt lat="49.88374" lon="2.352">
        <ele>25.2</ele>
        <time>2024-06-26T07:04:45Z</time>
      </trkpt>
      <trkpt lat="49.88374" lon="2.35198">
        <ele>25.2</ele>
        <time>2024-06-26T07:04:46Z</time>
      </trkpt>
      <trkpt lat="49.88375" lon="2.35196">
        <ele>25.3</ele>
        <time>2024-06-26T07:04:47Z</time>
      </trkpt>
      <trkpt lat="49.88375" lon="2.35194">
        <ele>25.3</ele>
        <time>2024-06-26T07:04:48Z</time>
      </trkpt>
      <trkpt lat="49.88376" lon="2.35193">
        <ele>25.3</ele>
        <time>2024-06-26T07:04:49Z</time>
      </trkpt>
      <trkpt lat="49.88377" lon="2.35192">
        <ele>25.3</ele>
        <time>2024-06-26T07:04:50Z</time>
      </trkpt>
      <trkpt lat="49.88378" lon="2.35191">
        <ele>25.3</ele>
        <time>2024-06-26T07:04:51Z</time>
      </trkpt>
      <trkpt lat="49.88379" lon="2.3519">
        <ele>25.4</ele>
        <time>2024-06-26T07:04:52Z</time>
      </trkpt>
      <trkpt lat="49.8838" lon="2.35189">
        <ele>25.4</ele>
        <time>2024-06-26T07:04:53Z</time>
      </trkpt>
      <trkpt lat="49.88383" lon="2.35187">
        <ele>25.4</ele>
        <time>2024-06-26T07:04:54Z</time>
      </trkpt>
      <trkpt lat="49.88384" lon="2.35186">
        <ele>25.4</ele>
        <time>2024-06-26T07:04:56Z</time>
      </trkpt>
      <trkpt lat="49.88385" lon="2.35185">
        <ele>25.5</ele>
        <time>2024-06-26T07:04:57Z</time>
      </trkpt>
      <trkpt lat="49.88386" lon="2.35184">
        <ele>25.5</ele>
        <time>2024-06-26T07:04:58Z</time>
      </trkpt>
      <trkpt lat="49.88387" lon="2.35183">
        <ele>25.5</ele>
        <time>2024-06-26T07:04:59Z</time>
      </trkpt>
      <trkpt lat="49.88388" lon="2.35182">
        <ele>25.5</ele>
        <time>2024-06-26T07:05:01Z</time>
      </trkpt>
      <trkpt lat="49.88389" lon="2.35181">
        <ele>25.5</ele>
        <time>2024-06-26T07:05:02Z</time>
      </trkpt>
      <trkpt lat="49.88391" lon="2.35178">
        <ele>25.6</ele>
        <time>2024-06-26T07:05:03Z</time>
      </trkpt>
      <trkpt lat="49.88392" lon="2.35177">
        <ele>25.6</ele>
        <time>2024-06-26T07:05:04Z</time>
      </trkpt>
      <trkpt lat="49.88393" lon="2.35176">
        <ele>25.6</ele>
        <time>2024-06-26T07:05:06Z</time>
      </trkpt>
      <trkpt lat="49.88393" lon="2.35175">
        <ele>25.6</ele>
        <time>2024-06-26T07:05:07Z</time>
      </trkpt>
      <trkpt lat="49.88395" lon="2.35172">
        <ele>25.7</ele>
        <time>2024-06-26T07:05:08Z</time>
      </trkpt>
      <trkpt lat="49.88396" lon="2.35171">
        <ele>25.7</ele>
        <time>2024-06-26T07:05:10Z</time>
      </trkpt>
      <trkpt lat="49.88397" lon="2.35171">
        <ele>25.7</ele>
        <time>2024-06-26T07:05:11Z</time>
      </trkpt>
      <trkpt lat="49.88398" lon="2.3517">
        <ele>25.7</ele>
        <time>2024-06-26T07:05:12Z</time>
      </trkpt>
      <trkpt lat="49.88398" lon="2.35169">
        <ele>25.7</ele>
        <time>2024-06-26T07:05:13Z</time>
      </trkpt>
      <trkpt lat="49.88399" lon="2.35168">
        <ele>25.7</ele>
        <time>2024-06-26T07:05:14Z</time>
      </trkpt>
      <trkpt lat="49.884" lon="2.35167">
        <ele>25.8</ele>
        <time>2024-06-26T07:05:15Z</time>
      </trkpt>
      <trkpt lat="49.88401" lon="2.35166">
        <ele>25.8</ele>
        <time>2024-06-26T07:05:16Z</time>
      </trkpt>
      <trkpt lat="49.88402" lon="2.35165">
        <ele>25.8</ele>
        <time>2024-06-26T07:05:17Z</time>
      </trkpt>
      <trkpt lat="49.88403" lon="2.35164">
        <ele>25.8</ele>
        <time>2024-06-26T07:05:18Z</time>
      </trkpt>
      <trkpt lat="49.88403" lon="2.35163">
        <ele>25.8</ele>
        <time>2024-06-26T07:05:19Z</time>
      </trkpt>
      <trkpt lat="49.88405" lon="2.35161">
        <ele>25.9</ele>
        <time>2024-06-26T07:05:20Z</time>
      </trkpt>
      <trkpt lat="49.88407" lon="2.35159">
        <ele>25.9</ele>
        <time>2024-06-26T07:05:22Z</time>
      </trkpt>
      <trkpt lat="49.88407" lon="2.35158">
        <ele>25.9</ele>
        <time>2024-06-26T07:05:23Z</time>
      </trkpt>
      <trkpt lat="49.88409" lon="2.35157">
        <ele>25.9</ele>
        <time>2024-06-26T07:05:24Z</time>
      </trkpt>
      <trkpt lat="49.8841" lon="2.35156">
        <ele>25.9</ele>
        <time>2024-06-26T07:05:25Z</time>
      </trkpt>
      <trkpt lat="49.8841" lon="2.35155">
        <ele>26</ele>
        <time>2024-06-26T07:05:26Z</time>
      </trkpt>
      <trkpt lat="49.88411" lon="2.35154">
        <ele>26</ele>
        <time>2024-06-26T07:05:27Z</time>
      </trkpt>
      <trkpt lat="49.88412" lon="2.35154">
        <ele>26</ele>
        <time>2024-06-26T07:05:28Z</time>
      </trkpt>
      <trkpt lat="49.88414" lon="2.35152">
        <ele>26</ele>
        <time>2024-06-26T07:05:29Z</time>
      </trkpt>
      <trkpt lat="49.88415" lon="2.3515">
        <ele>26</ele>
        <time>2024-06-26T07:05:31Z</time>
      </trkpt>
      <trkpt lat="49.88416" lon="2.35149">
        <ele>26.1</ele>
        <time>2024-06-26T07:05:32Z</time>
      </trkpt>
      <trkpt lat="49.88417" lon="2.35148">
        <ele>26.1</ele>
        <time>2024-06-26T07:05:33Z</time>
      </trkpt>
      <trkpt lat="49.88417" lon="2.35147">
        <ele>26.1</ele>
        <time>2024-06-26T07:05:34Z</time>
      </trkpt>
      <trkpt lat="49.88418" lon="2.35147">
        <ele>26.1</ele>
        <time>2024-06-26T07:05:35Z</time>
      </trkpt>
      <trkpt lat="49.8842" lon="2.35145">
        <ele>26.2</ele>
        <time>2024-06-26T07:05:36Z</time>
      </trkpt>
      <trkpt lat="49.88421" lon="2.35144">
        <ele>26.2</ele>
        <time>2024-06-26T07:05:38Z</time>
      </trkpt>
      <trkpt lat="49.88421" lon="2.35143">
        <ele>26.2</ele>
        <time>2024-06-26T07:05:39Z</time>
      </trkpt>
      <trkpt lat="49.88423" lon="2.35141">
        <ele>26.3</ele>
        <time>2024-06-26T07:05:40Z</time>
      </trkpt>
      <trkpt lat="49.88424" lon="2.35141">
        <ele>26.3</ele>
        <time>2024-06-26T07:05:42Z</time>
      </trkpt>
      <trkpt lat="49.88425" lon="2.3514">
        <ele>26.3</ele>
        <time>2024-06-26T07:05:43Z</time>
      </trkpt>
      <trkpt lat="49.88425" lon="2.35139">
        <ele>26.3</ele>
        <time>2024-06-26T07:05:44Z</time>
      </trkpt>
      <trkpt lat="49.88426" lon="2.35138">
        <ele>26.3</ele>
        <time>2024-06-26T07:05:45Z</time>
      </trkpt>
      <trkpt lat="49.88427" lon="2.35137">
        <ele>26.4</ele>
        <time>2024-06-26T07:05:46Z</time>
      </trkpt>
      <trkpt lat="49.88429" lon="2.35135">
        <ele>26.4</ele>
        <time>2024-06-26T07:05:47Z</time>
      </trkpt>
      <trkpt lat="49.88429" lon="2.35135">
        <ele>26.4</ele>
        <time>2024-06-26T07:05:49Z</time>
      </trkpt>
      <trkpt lat="49.8843" lon="2.35134">
        <ele>26.5</ele>
        <time>2024-06-26T07:05:50Z</time>
      </trkpt>
      <trkpt lat="49.88431" lon="2.35133">
        <ele>26.5</ele>
        <time>2024-06-26T07:05:51Z</time>
      </trkpt>
      <trkpt lat="49.88432" lon="2.35132">
        <ele>26.5</ele>
        <time>2024-06-26T07:05:52Z</time>
      </trkpt>
      <trkpt lat="49.88432" lon="2.35131">
        <ele>26.6</ele>
        <time>2024-06-26T07:05:53Z</time>
      </trkpt>
      <trkpt lat="49.88433" lon="2.3513">
        <ele>26.6</ele>
        <time>2024-06-26T07:05:54Z</time>
      </trkpt>
      <trkpt lat="49.88435" lon="2.35128">
        <ele>26.7</ele>
        <time>2024-06-26T07:05:55Z</time>
      </trkpt>
      <trkpt lat="49.88435" lon="2.35128">
        <ele>26.7</ele>
        <time>2024-06-26T07:05:57Z</time>
      </trkpt>
      <trkpt lat="49.88436" lon="2.35127">
        <ele>26.8</ele>
        <time>2024-06-26T07:05:58Z</time>
      </trkpt>
      <trkpt lat="49.88438" lon="2.35125">
        <ele>26.8</ele>
        <time>2024-06-26T07:05:59Z</time>
      </trkpt>
      <trkpt lat="49.88439" lon="2.35124">
        <ele>26.9</ele>
        <time>2024-06-26T07:06:01Z</time>
      </trkpt>
      <trkpt lat="49.88439" lon="2.35123">
        <ele>26.9</ele>
        <time>2024-06-26T07:06:02Z</time>
      </trkpt>
      <trkpt lat="49.8844" lon="2.35122">
        <ele>27</ele>
        <time>2024-06-26T07:06:03Z</time>
      </trkpt>
      <trkpt lat="49.88441" lon="2.35121">
        <ele>27</ele>
        <time>2024-06-26T07:06:04Z</time>
      </trkpt>
      <trkpt lat="49.88442" lon="2.3512">
        <ele>27.1</ele>
        <time>2024-06-26T07:06:05Z</time>
      </trkpt>
      <trkpt lat="49.88443" lon="2.35118">
        <ele>27.2</ele>
        <time>2024-06-26T07:06:06Z</time>
      </trkpt>
      <trkpt lat="49.88444" lon="2.35117">
        <ele>27.2</ele>
        <time>2024-06-26T07:06:08Z</time>
      </trkpt>
      <trkpt lat="49.88446" lon="2.35115">
        <ele>27.3</ele>
        <time>2024-06-26T07:06:09Z</time>
      </trkpt>
      <trkpt lat="49.88446" lon="2.35115">
        <ele>27.4</ele>
        <time>2024-06-26T07:06:11Z</time>
      </trkpt>
      <trkpt lat="49.88448" lon="2.35113">
        <ele>27.4</ele>
        <time>2024-06-26T07:06:12Z</time>
      </trkpt>
      <trkpt lat="49.88448" lon="2.35112">
        <ele>27.5</ele>
        <time>2024-06-26T07:06:14Z</time>
      </trkpt>
      <trkpt lat="49.88449" lon="2.35111">
        <ele>27.5</ele>
        <time>2024-06-26T07:06:15Z</time>
      </trkpt>
      <trkpt lat="49.8845" lon="2.3511">
        <ele>27.6</ele>
        <time>2024-06-26T07:06:16Z</time>
      </trkpt>
      <trkpt lat="49.8845" lon="2.3511">
        <ele>27.6</ele>
        <time>2024-06-26T07:06:17Z</time>
      </trkpt>
      <trkpt lat="49.88451" lon="2.35109">
        <ele>27.7</ele>
        <time>2024-06-26T07:06:18Z</time>
      </trkpt>
      <trkpt lat="49.88452" lon="2.35108">
        <ele>27.7</ele>
        <time>2024-06-26T07:06:19Z</time>
      </trkpt>
      <trkpt lat="49.88453" lon="2.35108">
        <ele>27.8</ele>
        <time>2024-06-26T07:06:20Z</time>
      </trkpt>
      <trkpt lat="49.88453" lon="2.35108">
        <ele>27.8</ele>
        <time>2024-06-26T07:06:21Z</time>
      </trkpt>
      <trkpt lat="49.88455" lon="2.35109">
        <ele>27.5</ele>
        <time>2024-06-26T07:06:22Z</time>
      </trkpt>
      <trkpt lat="49.88456" lon="2.35111">
        <ele>27.5</ele>
        <time>2024-06-26T07:06:24Z</time>
      </trkpt>
      <trkpt lat="49.88456" lon="2.35112">
        <ele>27.4</ele>
        <time>2024-06-26T07:06:25Z</time>
      </trkpt>
      <trkpt lat="49.88457" lon="2.35113">
        <ele>27.4</ele>
        <time>2024-06-26T07:06:26Z</time>
      </trkpt>
      <trkpt lat="49.88457" lon="2.35115">
        <ele>27.3</ele>
        <time>2024-06-26T07:06:27Z</time>
      </trkpt>
      <trkpt lat="49.88458" lon="2.35116">
        <ele>27.3</ele>
        <time>2024-06-26T07:06:28Z</time>
      </trkpt>
      <trkpt lat="49.88458" lon="2.35117">
        <ele>27.2</ele>
        <time>2024-06-26T07:06:29Z</time>
      </trkpt>
      <trkpt lat="49.88459" lon="2.3512">
        <ele>27.1</ele>
        <time>2024-06-26T07:06:30Z</time>
      </trkpt>
      <trkpt lat="49.88459" lon="2.35121">
        <ele>27.1</ele>
        <time>2024-06-26T07:06:32Z</time>
      </trkpt>
      <trkpt lat="49.8846" lon="2.35122">
        <ele>27</ele>
        <time>2024-06-26T07:06:33Z</time>
      </trkpt>
      <trkpt lat="49.8846" lon="2.35124">
        <ele>27</ele>
        <time>2024-06-26T07:06:34Z</time>
      </trkpt>
      <trkpt lat="49.88462" lon="2.35126">
        <ele>26.8</ele>
        <time>2024-06-26T07:06:35Z</time>
      </trkpt>
      <trkpt lat="49.88463" lon="2.35128">
        <ele>26.7</ele>
        <time>2024-06-26T07:06:37Z</time>
      </trkpt>
      <trkpt lat="49.88464" lon="2.35128">
        <ele>26.7</ele>
        <time>2024-06-26T07:06:39Z</time>
      </trkpt>
      <trkpt lat="49.88464" lon="2.35129">
        <ele>26.6</ele>
        <time>2024-06-26T07:06:40Z</time>
      </trkpt>
      <trkpt lat="49.88465" lon="2.3513">
        <ele>26.6</ele>
        <time>2024-06-26T07:06:41Z</time>
      </trkpt>
      <trkpt lat="49.88466" lon="2.35131">
        <ele>26.5</ele>
        <time>2024-06-26T07:06:42Z</time>
      </trkpt>
      <trkpt lat="49.88468" lon="2.35132">
        <ele>26.5</ele>
        <time>2024-06-26T07:06:44Z</time>
      </trkpt>
      <trkpt lat="49.88469" lon="2.35132">
        <ele>26.4</ele>
        <time>2024-06-26T07:06:46Z</time>
      </trkpt>
      <trkpt lat="49.8847" lon="2.35133">
        <ele>26.4</ele>
        <time>2024-06-26T07:06:48Z</time>
      </trkpt>
      <trkpt lat="49.8847" lon="2.35133">
        <ele>26.4</ele>
        <time>2024-06-26T07:06:49Z</time>
      </trkpt>
      <trkpt lat="49.88471" lon="2.35134">
        <ele>26.3</ele>
        <time>2024-06-26T07:06:50Z</time>
      </trkpt>
      <trkpt lat="49.88471" lon="2.35135">
        <ele>26.3</ele>
        <time>2024-06-26T07:06:51Z</time>
      </trkpt>
      <trkpt lat="49.88471" lon="2.35135">
        <ele>26.3</ele>
        <time>2024-06-26T07:06:52Z</time>
      </trkpt>
      <trkpt lat="49.88472" lon="2.35136">
        <ele>26.3</ele>
        <time>2024-06-26T07:06:53Z</time>
      </trkpt>
      <trkpt lat="49.88472" lon="2.35137">
        <ele>26.2</ele>
        <time>2024-06-26T07:06:54Z</time>
      </trkpt>
      <trkpt lat="49.88473" lon="2.35139">
        <ele>26.2</ele>
        <time>2024-06-26T07:06:55Z</time>
      </trkpt>
      <trkpt lat="49.88473" lon="2.3514">
        <ele>26.2</ele>
        <time>2024-06-26T07:06:57Z</time>
      </trkpt>
      <trkpt lat="49.88473" lon="2.35141">
        <ele>26.2</ele>
        <time>2024-06-26T07:06:58Z</time>
      </trkpt>
      <trkpt lat="49.88474" lon="2.35142">
        <ele>26.1</ele>
        <time>2024-06-26T07:06:59Z</time>
      </trkpt>
      <trkpt lat="49.88474" lon="2.35143">
        <ele>26.1</ele>
        <time>2024-06-26T07:07:00Z</time>
      </trkpt>
      <trkpt lat="49.88474" lon="2.35146">
        <ele>26.1</ele>
        <time>2024-06-26T07:07:01Z</time>
      </trkpt>
      <trkpt lat="49.88475" lon="2.35147">
        <ele>26.1</ele>
        <time>2024-06-26T07:07:03Z</time>
      </trkpt>
      <trkpt lat="49.88475" lon="2.3515">
        <ele>26</ele>
        <time>2024-06-26T07:07:04Z</time>
      </trkpt>
      <trkpt lat="49.88475" lon="2.35151">
        <ele>26</ele>
        <time>2024-06-26T07:07:06Z</time>
      </trkpt>
      <trkpt lat="49.88476" lon="2.35153">
        <ele>26</ele>
        <time>2024-06-26T07:07:07Z</time>
      </trkpt>
      <trkpt lat="49.88476" lon="2.35156">
        <ele>26</ele>
        <time>2024-06-26T07:07:09Z</time>
      </trkpt>
      <trkpt lat="49.88476" lon="2.35157">
        <ele>26</ele>
        <time>2024-06-26T07:07:10Z</time>
      </trkpt>
      <trkpt lat="49.88476" lon="2.35157">
        <ele>25.9</ele>
        <time>2024-06-26T07:07:11Z</time>
      </trkpt>
      <trkpt lat="49.88476" lon="2.35159">
        <ele>25.9</ele>
        <time>2024-06-26T07:07:12Z</time>
      </trkpt>
      <trkpt lat="49.88476" lon="2.3516">
        <ele>25.9</ele>
        <time>2024-06-26T07:07:13Z</time>
      </trkpt>
      <trkpt lat="49.88476" lon="2.35162">
        <ele>25.9</ele>
        <time>2024-06-26T07:07:14Z</time>
      </trkpt>
      <trkpt lat="49.88476" lon="2.35163">
        <ele>25.9</ele>
        <time>2024-06-26T07:07:15Z</time>
      </trkpt>
      <trkpt lat="49.88476" lon="2.35165">
        <ele>25.9</ele>
        <time>2024-06-26T07:07:16Z</time>
      </trkpt>
      <trkpt lat="49.88476" lon="2.35166">
        <ele>25.9</ele>
        <time>2024-06-26T07:07:17Z</time>
      </trkpt>
      <trkpt lat="49.88477" lon="2.35168">
        <ele>25.9</ele>
        <time>2024-06-26T07:07:18Z</time>
      </trkpt>
      <trkpt lat="49.88477" lon="2.35169">
        <ele>25.9</ele>
        <time>2024-06-26T07:07:19Z</time>
      </trkpt>
      <trkpt lat="49.88478" lon="2.35171">
        <ele>25.8</ele>
        <time>2024-06-26T07:07:20Z</time>
      </trkpt>
      <trkpt lat="49.88479" lon="2.35171">
        <ele>25.8</ele>
        <time>2024-06-26T07:07:22Z</time>
      </trkpt>
      <trkpt lat="49.8848" lon="2.35173">
        <ele>25.8</ele>
        <time>2024-06-26T07:07:23Z</time>
      </trkpt>
      <trkpt lat="49.8848" lon="2.35174">
        <ele>25.8</ele>
        <time>2024-06-26T07:07:24Z</time>
      </trkpt>
      <trkpt lat="49.8848" lon="2.35175">
        <ele>25.8</ele>
        <time>2024-06-26T07:07:25Z</time>
      </trkpt>
      <trkpt lat="49.88481" lon="2.35178">
        <ele>25.8</ele>
        <time>2024-06-26T07:07:26Z</time>
      </trkpt>
      <trkpt lat="49.88481" lon="2.3518">
        <ele>25.8</ele>
        <time>2024-06-26T07:07:28Z</time>
      </trkpt>
      <trkpt lat="49.88482" lon="2.35181">
        <ele>25.8</ele>
        <time>2024-06-26T07:07:29Z</time>
      </trkpt>
      <trkpt lat="49.88482" lon="2.35183">
        <ele>25.8</ele>
        <time>2024-06-26T07:07:30Z</time>
      </trkpt>
      <trkpt lat="49.88482" lon="2.35184">
        <ele>25.7</ele>
        <time>2024-06-26T07:07:31Z</time>
      </trkpt>
      <trkpt lat="49.88483" lon="2.35186">
        <ele>25.7</ele>
        <time>2024-06-26T07:07:32Z</time>
      </trkpt>
      <trkpt lat="49.88483" lon="2.35187">
        <ele>25.7</ele>
        <time>2024-06-26T07:07:33Z</time>
      </trkpt>
      <trkpt lat="49.88483" lon="2.35189">
        <ele>25.7</ele>
        <time>2024-06-26T07:07:34Z</time>
      </trkpt>
      <trkpt lat="49.88484" lon="2.3519">
        <ele>25.7</ele>
        <time>2024-06-26T07:07:35Z</time>
      </trkpt>
      <trkpt lat="49.88484" lon="2.35192">
        <ele>25.7</ele>
        <time>2024-06-26T07:07:36Z</time>
      </trkpt>
      <trkpt lat="49.88484" lon="2.35193">
        <ele>25.7</ele>
        <time>2024-06-26T07:07:37Z</time>
      </trkpt>
      <trkpt lat="49.88485" lon="2.35195">
        <ele>25.7</ele>
        <time>2024-06-26T07:07:38Z</time>
      </trkpt>
      <trkpt lat="49.88485" lon="2.35197">
        <ele>25.7</ele>
        <time>2024-06-26T07:07:39Z</time>
      </trkpt>
      <trkpt lat="49.88485" lon="2.35198">
        <ele>25.6</ele>
        <time>2024-06-26T07:07:40Z</time>
      </trkpt>
      <trkpt lat="49.88486" lon="2.352">
        <ele>25.6</ele>
        <time>2024-06-26T07:07:41Z</time>
      </trkpt>
      <trkpt lat="49.88487" lon="2.35203">
        <ele>25.6</ele>
        <time>2024-06-26T07:07:42Z</time>
      </trkpt>
      <trkpt lat="49.88487" lon="2.35204">
        <ele>25.6</ele>
        <time>2024-06-26T07:07:44Z</time>
      </trkpt>
      <trkpt lat="49.88487" lon="2.35206">
        <ele>25.6</ele>
        <time>2024-06-26T07:07:45Z</time>
      </trkpt>
      <trkpt lat="49.88488" lon="2.35209">
        <ele>25.6</ele>
        <time>2024-06-26T07:07:46Z</time>
      </trkpt>
      <trkpt lat="49.88488" lon="2.3521">
        <ele>25.6</ele>
        <time>2024-06-26T07:07:48Z</time>
      </trkpt>
      <trkpt lat="49.88489" lon="2.35212">
        <ele>25.6</ele>
        <time>2024-06-26T07:07:49Z</time>
      </trkpt>
      <trkpt lat="49.88489" lon="2.35213">
        <ele>25.6</ele>
        <time>2024-06-26T07:07:50Z</time>
      </trkpt>
      <trkpt lat="49.8849" lon="2.35215">
        <ele>25.6</ele>
        <time>2024-06-26T07:07:51Z</time>
      </trkpt>
      <trkpt lat="49.8849" lon="2.35216">
        <ele>25.6</ele>
        <time>2024-06-26T07:07:52Z</time>
      </trkpt>
      <trkpt lat="49.8849" lon="2.35218">
        <ele>25.6</ele>
        <time>2024-06-26T07:07:53Z</time>
      </trkpt>
      <trkpt lat="49.8849" lon="2.35219">
        <ele>25.6</ele>
        <time>2024-06-26T07:07:54Z</time>
      </trkpt>
      <trkpt lat="49.88491" lon="2.35221">
        <ele>25.6</ele>
        <time>2024-06-26T07:07:55Z</time>
      </trkpt>
      <trkpt lat="49.88491" lon="2.35223">
        <ele>25.6</ele>
        <time>2024-06-26T07:07:56Z</time>
      </trkpt>
      <trkpt lat="49.88491" lon="2.35225">
        <ele>25.6</ele>
        <time>2024-06-26T07:07:57Z</time>
      </trkpt>
      <trkpt lat="49.88492" lon="2.35226">
        <ele>25.6</ele>
        <time>2024-06-26T07:07:58Z</time>
      </trkpt>
      <trkpt lat="49.88492" lon="2.35228">
        <ele>25.6</ele>
        <time>2024-06-26T07:07:59Z</time>
      </trkpt>
      <trkpt lat="49.88493" lon="2.35229">
        <ele>25.6</ele>
        <time>2024-06-26T07:08:00Z</time>
      </trkpt>
      <trkpt lat="49.88493" lon="2.35231">
        <ele>25.6</ele>
        <time>2024-06-26T07:08:01Z</time>
      </trkpt>
      <trkpt lat="49.88493" lon="2.35232">
        <ele>25.6</ele>
        <time>2024-06-26T07:08:02Z</time>
      </trkpt>
      <trkpt lat="49.88494" lon="2.35234">
        <ele>25.6</ele>
        <time>2024-06-26T07:08:03Z</time>
      </trkpt>
      <trkpt lat="49.88494" lon="2.35235">
        <ele>25.6</ele>
        <time>2024-06-26T07:08:04Z</time>
      </trkpt>
      <trkpt lat="49.88494" lon="2.35237">
        <ele>25.6</ele>
        <time>2024-06-26T07:08:05Z</time>
      </trkpt>
      <trkpt lat="49.88494" lon="2.35238">
        <ele>25.6</ele>
        <time>2024-06-26T07:08:06Z</time>
      </trkpt>
      <trkpt lat="49.88495" lon="2.3524">
        <ele>25.6</ele>
        <time>2024-06-26T07:08:07Z</time>
      </trkpt>
      <trkpt lat="49.88495" lon="2.35241">
        <ele>25.6</ele>
        <time>2024-06-26T07:08:08Z</time>
      </trkpt>
      <trkpt lat="49.88495" lon="2.35243">
        <ele>25.6</ele>
        <time>2024-06-26T07:08:09Z</time>
      </trkpt>
      <trkpt lat="49.88496" lon="2.35244">
        <ele>25.6</ele>
        <time>2024-06-26T07:08:10Z</time>
      </trkpt>
      <trkpt lat="49.88496" lon="2.35246">
        <ele>25.6</ele>
        <time>2024-06-26T07:08:11Z</time>
      </trkpt>
      <trkpt lat="49.88496" lon="2.35248">
        <ele>25.6</ele>
        <time>2024-06-26T07:08:12Z</time>
      </trkpt>
      <trkpt lat="49.88496" lon="2.35249">
        <ele>25.6</ele>
        <time>2024-06-26T07:08:13Z</time>
      </trkpt>
      <trkpt lat="49.88497" lon="2.35251">
        <ele>25.6</ele>
        <time>2024-06-26T07:08:14Z</time>
      </trkpt>
      <trkpt lat="49.88497" lon="2.35252">
        <ele>25.6</ele>
        <time>2024-06-26T07:08:15Z</time>
      </trkpt>
      <trkpt lat="49.88497" lon="2.35254">
        <ele>25.6</ele>
        <time>2024-06-26T07:08:16Z</time>
      </trkpt>
      <trkpt lat="49.88497" lon="2.35255">
        <ele>25.6</ele>
        <time>2024-06-26T07:08:17Z</time>
      </trkpt>
      <trkpt lat="49.88498" lon="2.35258">
        <ele>25.6</ele>
        <time>2024-06-26T07:08:18Z</time>
      </trkpt>
      <trkpt lat="49.88498" lon="2.35259">
        <ele>25.6</ele>
        <time>2024-06-26T07:08:20Z</time>
      </trkpt>
      <trkpt lat="49.88499" lon="2.35262">
        <ele>25.6</ele>
        <time>2024-06-26T07:08:21Z</time>
      </trkpt>
      <trkpt lat="49.88499" lon="2.35263">
        <ele>25.6</ele>
        <time>2024-06-26T07:08:23Z</time>
      </trkpt>
      <trkpt lat="49.88499" lon="2.35266">
        <ele>25.6</ele>
        <time>2024-06-26T07:08:24Z</time>
      </trkpt>
      <trkpt lat="49.88499" lon="2.35268">
        <ele>25.6</ele>
        <time>2024-06-26T07:08:26Z</time>
      </trkpt>
      <trkpt lat="49.88499" lon="2.35269">
        <ele>25.6</ele>
        <time>2024-06-26T07:08:27Z</time>
      </trkpt>
      <trkpt lat="49.88499" lon="2.35271">
        <ele>25.6</ele>
        <time>2024-06-26T07:08:28Z</time>
      </trkpt>
      <trkpt lat="49.88499" lon="2.35273">
        <ele>25.6</ele>
        <time>2024-06-26T07:08:29Z</time>
      </trkpt>
      <trkpt lat="49.88499" lon="2.35274">
        <ele>25.6</ele>
        <time>2024-06-26T07:08:30Z</time>
      </trkpt>
      <trkpt lat="49.88499" lon="2.35276">
        <ele>25.5</ele>
        <time>2024-06-26T07:08:31Z</time>
      </trkpt>
      <trkpt lat="49.88499" lon="2.35277">
        <ele>25.5</ele>
        <time>2024-06-26T07:08:32Z</time>
      </trkpt>
      <trkpt lat="49.88499" lon="2.35279">
        <ele>25.5</ele>
        <time>2024-06-26T07:08:33Z</time>
      </trkpt>
      <trkpt lat="49.88499" lon="2.3528">
        <ele>25.5</ele>
        <time>2024-06-26T07:08:34Z</time>
      </trkpt>
      <trkpt lat="49.88499" lon="2.35282">
        <ele>25.5</ele>
        <time>2024-06-26T07:08:35Z</time>
      </trkpt>
      <trkpt lat="49.88499" lon="2.35284">
        <ele>25.5</ele>
        <time>2024-06-26T07:08:36Z</time>
      </trkpt>
      <trkpt lat="49.88498" lon="2.35285">
        <ele>25.5</ele>
        <time>2024-06-26T07:08:37Z</time>
      </trkpt>
      <trkpt lat="49.88498" lon="2.35287">
        <ele>25.5</ele>
        <time>2024-06-26T07:08:38Z</time>
      </trkpt>
      <trkpt lat="49.88498" lon="2.35288">
        <ele>25.5</ele>
        <time>2024-06-26T07:08:39Z</time>
      </trkpt>
      <trkpt lat="49.88498" lon="2.3529">
        <ele>25.5</ele>
        <time>2024-06-26T07:08:40Z</time>
      </trkpt>
      <trkpt lat="49.88498" lon="2.35291">
        <ele>25.5</ele>
        <time>2024-06-26T07:08:41Z</time>
      </trkpt>
      <trkpt lat="49.88498" lon="2.35293">
        <ele>25.5</ele>
        <time>2024-06-26T07:08:42Z</time>
      </trkpt>
      <trkpt lat="49.88498" lon="2.35294">
        <ele>25.5</ele>
        <time>2024-06-26T07:08:43Z</time>
      </trkpt>
      <trkpt lat="49.88497" lon="2.35296">
        <ele>25.5</ele>
        <time>2024-06-26T07:08:44Z</time>
      </trkpt>
      <trkpt lat="49.88497" lon="2.35297">
        <ele>25.5</ele>
        <time>2024-06-26T07:08:45Z</time>
      </trkpt>
      <trkpt lat="49.88497" lon="2.35299">
        <ele>25.5</ele>
        <time>2024-06-26T07:08:46Z</time>
      </trkpt>
      <trkpt lat="49.88497" lon="2.353">
        <ele>25.5</ele>
        <time>2024-06-26T07:08:47Z</time>
      </trkpt>
      <trkpt lat="49.88497" lon="2.35301">
        <ele>25.5</ele>
        <time>2024-06-26T07:08:48Z</time>
      </trkpt>
      <trkpt lat="49.88497" lon="2.35302">
        <ele>25.5</ele>
        <time>2024-06-26T07:08:49Z</time>
      </trkpt>
      <trkpt lat="49.88496" lon="2.35303">
        <ele>25.5</ele>
        <time>2024-06-26T07:08:50Z</time>
      </trkpt>
      <trkpt lat="49.88496" lon="2.35304">
        <ele>25.5</ele>
        <time>2024-06-26T07:08:51Z</time>
      </trkpt>
      <trkpt lat="49.88495" lon="2.35305">
        <ele>25.5</ele>
        <time>2024-06-26T07:08:52Z</time>
      </trkpt>
      <trkpt lat="49.88495" lon="2.35306">
        <ele>25.5</ele>
        <time>2024-06-26T07:08:53Z</time>
      </trkpt>
      <trkpt lat="49.88494" lon="2.35308">
        <ele>25.5</ele>
        <time>2024-06-26T07:08:54Z</time>
      </trkpt>
      <trkpt lat="49.88494" lon="2.3531">
        <ele>25.5</ele>
        <time>2024-06-26T07:08:55Z</time>
      </trkpt>
      <trkpt lat="49.88493" lon="2.35311">
        <ele>25.5</ele>
        <time>2024-06-26T07:08:57Z</time>
      </trkpt>
      <trkpt lat="49.88492" lon="2.35313">
        <ele>25.5</ele>
        <time>2024-06-26T07:08:58Z</time>
      </trkpt>
      <trkpt lat="49.88492" lon="2.35314">
        <ele>25.5</ele>
        <time>2024-06-26T07:08:59Z</time>
      </trkpt>
      <trkpt lat="49.88491" lon="2.35315">
        <ele>25.5</ele>
        <time>2024-06-26T07:09:00Z</time>
      </trkpt>
      <trkpt lat="49.8849" lon="2.35318">
        <ele>25.5</ele>
        <time>2024-06-26T07:09:01Z</time>
      </trkpt>
      <trkpt lat="49.88489" lon="2.3532">
        <ele>25.5</ele>
        <time>2024-06-26T07:09:03Z</time>
      </trkpt>
      <trkpt lat="49.88488" lon="2.35322">
        <ele>25.5</ele>
        <time>2024-06-26T07:09:04Z</time>
      </trkpt>
      <trkpt lat="49.88487" lon="2.35323">
        <ele>25.5</ele>
        <time>2024-06-26T07:09:06Z</time>
      </trkpt>
      <trkpt lat="49.88486" lon="2.35325">
        <ele>25.5</ele>
        <time>2024-06-26T07:09:07Z</time>
      </trkpt>
      <trkpt lat="49.88485" lon="2.35326">
        <ele>25.5</ele>
        <time>2024-06-26T07:09:08Z</time>
      </trkpt>
      <trkpt lat="49.88484" lon="2.35327">
        <ele>25.5</ele>
        <time>2024-06-26T07:09:09Z</time>
      </trkpt>
      <trkpt lat="49.88484" lon="2.35329">
        <ele>25.5</ele>
        <time>2024-06-26T07:09:10Z</time>
      </trkpt>
      <trkpt lat="49.88483" lon="2.3533">
        <ele>25.5</ele>
        <time>2024-06-26T07:09:11Z</time>
      </trkpt>
      <trkpt lat="49.88482" lon="2.35331">
        <ele>25.5</ele>
        <time>2024-06-26T07:09:12Z</time>
      </trkpt>
      <trkpt lat="49.88481" lon="2.35334">
        <ele>25.5</ele>
        <time>2024-06-26T07:09:13Z</time>
      </trkpt>
      <trkpt lat="49.8848" lon="2.35335">
        <ele>25.5</ele>
        <time>2024-06-26T07:09:15Z</time>
      </trkpt>
      <trkpt lat="49.88478" lon="2.35337">
        <ele>25.5</ele>
        <time>2024-06-26T07:09:16Z</time>
      </trkpt>
      <trkpt lat="49.88477" lon="2.35338">
        <ele>25.5</ele>
        <time>2024-06-26T07:09:18Z</time>
      </trkpt>
      <trkpt lat="49.88477" lon="2.35339">
        <ele>25.5</ele>
        <time>2024-06-26T07:09:19Z</time>
      </trkpt>
      <trkpt lat="49.88476" lon="2.3534">
        <ele>25.5</ele>
        <time>2024-06-26T07:09:20Z</time>
      </trkpt>
      <trkpt lat="49.88475" lon="2.35342">
        <ele>25.5</ele>
        <time>2024-06-26T07:09:21Z</time>
      </trkpt>
      <trkpt lat="49.88474" lon="2.35343">
        <ele>25.5</ele>
        <time>2024-06-26T07:09:22Z</time>
      </trkpt>
      <trkpt lat="49.88473" lon="2.35344">
        <ele>25.5</ele>
        <time>2024-06-26T07:09:23Z</time>
      </trkpt>
      <trkpt lat="49.88472" lon="2.35345">
        <ele>25.5</ele>
        <time>2024-06-26T07:09:24Z</time>
      </trkpt>
      <trkpt lat="49.88471" lon="2.35346">
        <ele>25.5</ele>
        <time>2024-06-26T07:09:25Z</time>
      </trkpt>
      <trkpt lat="49.8847" lon="2.35348">
        <ele>25.5</ele>
        <time>2024-06-26T07:09:26Z</time>
      </trkpt>
      <trkpt lat="49.88469" lon="2.3535">
        <ele>25.5</ele>
        <time>2024-06-26T07:09:28Z</time>
      </trkpt>
      <trkpt lat="49.88468" lon="2.35352">
        <ele>25.5</ele>
        <time>2024-06-26T07:09:29Z</time>
      </trkpt>
      <trkpt lat="49.88467" lon="2.35354">
        <ele>25.5</ele>
        <time>2024-06-26T07:09:31Z</time>
      </trkpt>
      <trkpt lat="49.88466" lon="2.35355">
        <ele>25.5</ele>
        <time>2024-06-26T07:09:32Z</time>
      </trkpt>
      <trkpt lat="49.88465" lon="2.35356">
        <ele>25.5</ele>
        <time>2024-06-26T07:09:33Z</time>
      </trkpt>
      <trkpt lat="49.88465" lon="2.35357">
        <ele>25.5</ele>
        <time>2024-06-26T07:09:34Z</time>
      </trkpt>
      <trkpt lat="49.88464" lon="2.35358">
        <ele>25.5</ele>
        <time>2024-06-26T07:09:35Z</time>
      </trkpt>
      <trkpt lat="49.88463" lon="2.35359">
        <ele>25.5</ele>
        <time>2024-06-26T07:09:36Z</time>
      </trkpt>
      <trkpt lat="49.88463" lon="2.3536">
        <ele>25.5</ele>
        <time>2024-06-26T07:09:37Z</time>
      </trkpt>
      <trkpt lat="49.88462" lon="2.35362">
        <ele>25.5</ele>
        <time>2024-06-26T07:09:38Z</time>
      </trkpt>
      <trkpt lat="49.88461" lon="2.35363">
        <ele>25.5</ele>
        <time>2024-06-26T07:09:39Z</time>
      </trkpt>
      <trkpt lat="49.8846" lon="2.35364">
        <ele>25.5</ele>
        <time>2024-06-26T07:09:40Z</time>
      </trkpt>
      <trkpt lat="49.8846" lon="2.35364">
        <ele>25.5</ele>
        <time>2024-06-26T07:09:41Z</time>
      </trkpt>
      <trkpt lat="49.88459" lon="2.35365">
        <ele>25.5</ele>
        <time>2024-06-26T07:09:42Z</time>
      </trkpt>
      <trkpt lat="49.88458" lon="2.35366">
        <ele>25.5</ele>
        <time>2024-06-26T07:09:43Z</time>
      </trkpt>
      <trkpt lat="49.88457" lon="2.35367">
        <ele>25.5</ele>
        <time>2024-06-26T07:09:44Z</time>
      </trkpt>
      <trkpt lat="49.88456" lon="2.35369">
        <ele>25.5</ele>
        <time>2024-06-26T07:09:45Z</time>
      </trkpt>
      <trkpt lat="49.88456" lon="2.3537">
        <ele>25.5</ele>
        <time>2024-06-26T07:09:47Z</time>
      </trkpt>
      <trkpt lat="49.88455" lon="2.35371">
        <ele>25.5</ele>
        <time>2024-06-26T07:09:48Z</time>
      </trkpt>
      <trkpt lat="49.88454" lon="2.35372">
        <ele>25.5</ele>
        <time>2024-06-26T07:09:49Z</time>
      </trkpt>
      <trkpt lat="49.88453" lon="2.35373">
        <ele>25.5</ele>
        <time>2024-06-26T07:09:50Z</time>
      </trkpt>
      <trkpt lat="49.88453" lon="2.35373">
        <ele>25.5</ele>
        <time>2024-06-26T07:09:51Z</time>
      </trkpt>
      <trkpt lat="49.88452" lon="2.35374">
        <ele>25.5</ele>
        <time>2024-06-26T07:09:52Z</time>
      </trkpt>
      <trkpt lat="49.88451" lon="2.35375">
        <ele>25.5</ele>
        <time>2024-06-26T07:09:53Z</time>
      </trkpt>
      <trkpt lat="49.8845" lon="2.35376">
        <ele>25.5</ele>
        <time>2024-06-26T07:09:54Z</time>
      </trkpt>
      <trkpt lat="49.88449" lon="2.35378">
        <ele>25.5</ele>
        <time>2024-06-26T07:09:55Z</time>
      </trkpt>
      <trkpt lat="49.88448" lon="2.35379">
        <ele>25.5</ele>
        <time>2024-06-26T07:09:57Z</time>
      </trkpt>
      <trkpt lat="49.88447" lon="2.3538">
        <ele>25.5</ele>
        <time>2024-06-26T07:09:58Z</time>
      </trkpt>
      <trkpt lat="49.88446" lon="2.35382">
        <ele>25.5</ele>
        <time>2024-06-26T07:09:59Z</time>
      </trkpt>
      <trkpt lat="49.88446" lon="2.35383">
        <ele>25.5</ele>
        <time>2024-06-26T07:10:00Z</time>
      </trkpt>
      <trkpt lat="49.88445" lon="2.35384">
        <ele>25.5</ele>
        <time>2024-06-26T07:10:01Z</time>
      </trkpt>
      <trkpt lat="49.88444" lon="2.35385">
        <ele>25.5</ele>
        <time>2024-06-26T07:10:02Z</time>
      </trkpt>
      <trkpt lat="49.88444" lon="2.35387">
        <ele>25.5</ele>
        <time>2024-06-26T07:10:03Z</time>
      </trkpt>
      <trkpt lat="49.88443" lon="2.35388">
        <ele>25.5</ele>
        <time>2024-06-26T07:10:05Z</time>
      </trkpt>
      <trkpt lat="49.88442" lon="2.35389">
        <ele>25.5</ele>
        <time>2024-06-26T07:10:07Z</time>
      </trkpt>
      <trkpt lat="49.88441" lon="2.3539">
        <ele>25.5</ele>
        <time>2024-06-26T07:10:08Z</time>
      </trkpt>
      <trkpt lat="49.8844" lon="2.35391">
        <ele>25.5</ele>
        <time>2024-06-26T07:10:10Z</time>
      </trkpt>
      <trkpt lat="49.88439" lon="2.35393">
        <ele>25.5</ele>
        <time>2024-06-26T07:10:11Z</time>
      </trkpt>
      <trkpt lat="49.88439" lon="2.35394">
        <ele>25.5</ele>
        <time>2024-06-26T07:10:13Z</time>
      </trkpt>
      <trkpt lat="49.88438" lon="2.35396">
        <ele>25.5</ele>
        <time>2024-06-26T07:10:14Z</time>
      </trkpt>
      <trkpt lat="49.88437" lon="2.35396">
        <ele>25.5</ele>
        <time>2024-06-26T07:10:15Z</time>
      </trkpt>
      <trkpt lat="49.88436" lon="2.35397">
        <ele>25.5</ele>
        <time>2024-06-26T07:10:16Z</time>
      </trkpt>
      <trkpt lat="49.88436" lon="2.35398">
        <ele>25.5</ele>
        <time>2024-06-26T07:10:17Z</time>
      </trkpt>
      <trkpt lat="49.88434" lon="2.354">
        <ele>25.5</ele>
        <time>2024-06-26T07:10:18Z</time>
      </trkpt>
      <trkpt lat="49.88434" lon="2.35401">
        <ele>25.5</ele>
        <time>2024-06-26T07:10:20Z</time>
      </trkpt>
      <trkpt lat="49.88433" lon="2.35402">
        <ele>25.5</ele>
        <time>2024-06-26T07:10:21Z</time>
      </trkpt>
      <trkpt lat="49.88432" lon="2.35404">
        <ele>25.5</ele>
        <time>2024-06-26T07:10:22Z</time>
      </trkpt>
      <trkpt lat="49.88432" lon="2.35405">
        <ele>25.5</ele>
        <time>2024-06-26T07:10:23Z</time>
      </trkpt>
      <trkpt lat="49.88431" lon="2.35406">
        <ele>25.5</ele>
        <time>2024-06-26T07:10:24Z</time>
      </trkpt>
      <trkpt lat="49.88431" lon="2.35407">
        <ele>25.5</ele>
        <time>2024-06-26T07:10:25Z</time>
      </trkpt>
      <trkpt lat="49.8843" lon="2.35408">
        <ele>25.5</ele>
        <time>2024-06-26T07:10:26Z</time>
      </trkpt>
      <trkpt lat="49.8843" lon="2.35409">
        <ele>25.5</ele>
        <time>2024-06-26T07:10:27Z</time>
      </trkpt>
      <trkpt lat="49.88429" lon="2.35411">
        <ele>25.5</ele>
        <time>2024-06-26T07:10:28Z</time>
      </trkpt>
      <trkpt lat="49.88428" lon="2.35412">
        <ele>25.5</ele>
        <time>2024-06-26T07:10:29Z</time>
      </trkpt>
      <trkpt lat="49.88428" lon="2.35413">
        <ele>25.5</ele>
        <time>2024-06-26T07:10:30Z</time>
      </trkpt>
      <trkpt lat="49.88427" lon="2.35415">
        <ele>25.5</ele>
        <time>2024-06-26T07:10:31Z</time>
      </trkpt>
      <trkpt lat="49.88427" lon="2.35416">
        <ele>25.5</ele>
        <time>2024-06-26T07:10:32Z</time>
      </trkpt>
      <trkpt lat="49.88426" lon="2.35417">
        <ele>25.5</ele>
        <time>2024-06-26T07:10:33Z</time>
      </trkpt>
      <trkpt lat="49.88425" lon="2.35419">
        <ele>25.5</ele>
        <time>2024-06-26T07:10:34Z</time>
      </trkpt>
      <trkpt lat="49.88424" lon="2.3542">
        <ele>25.5</ele>
        <time>2024-06-26T07:10:35Z</time>
      </trkpt>
      <trkpt lat="49.88424" lon="2.35421">
        <ele>25.5</ele>
        <time>2024-06-26T07:10:36Z</time>
      </trkpt>
      <trkpt lat="49.88423" lon="2.35422">
        <ele>25.5</ele>
        <time>2024-06-26T07:10:37Z</time>
      </trkpt>
      <trkpt lat="49.88422" lon="2.35423">
        <ele>25.5</ele>
        <time>2024-06-26T07:10:38Z</time>
      </trkpt>
      <trkpt lat="49.88422" lon="2.35425">
        <ele>25.5</ele>
        <time>2024-06-26T07:10:39Z</time>
      </trkpt>
      <trkpt lat="49.8842" lon="2.35428">
        <ele>25.5</ele>
        <time>2024-06-26T07:10:40Z</time>
      </trkpt>
      <trkpt lat="49.8842" lon="2.35429">
        <ele>25.5</ele>
        <time>2024-06-26T07:10:42Z</time>
      </trkpt>
      <trkpt lat="49.88419" lon="2.35431">
        <ele>25.5</ele>
        <time>2024-06-26T07:10:43Z</time>
      </trkpt>
      <trkpt lat="49.88419" lon="2.35432">
        <ele>25.5</ele>
        <time>2024-06-26T07:10:44Z</time>
      </trkpt>
      <trkpt lat="49.88418" lon="2.35434">
        <ele>25.5</ele>
        <time>2024-06-26T07:10:45Z</time>
      </trkpt>
      <trkpt lat="49.88417" lon="2.35435">
        <ele>25.5</ele>
        <time>2024-06-26T07:10:46Z</time>
      </trkpt>
      <trkpt lat="49.88417" lon="2.35436">
        <ele>25.5</ele>
        <time>2024-06-26T07:10:47Z</time>
      </trkpt>
      <trkpt lat="49.88415" lon="2.35439">
        <ele>25.6</ele>
        <time>2024-06-26T07:10:48Z</time>
      </trkpt>
      <trkpt lat="49.88415" lon="2.35441">
        <ele>25.6</ele>
        <time>2024-06-26T07:10:50Z</time>
      </trkpt>
      <trkpt lat="49.88414" lon="2.35442">
        <ele>25.6</ele>
        <time>2024-06-26T07:10:51Z</time>
      </trkpt>
      <trkpt lat="49.88413" lon="2.35445">
        <ele>25.6</ele>
        <time>2024-06-26T07:10:52Z</time>
      </trkpt>
      <trkpt lat="49.88413" lon="2.35447">
        <ele>25.6</ele>
        <time>2024-06-26T07:10:54Z</time>
      </trkpt>
      <trkpt lat="49.88412" lon="2.35449">
        <ele>25.6</ele>
        <time>2024-06-26T07:10:55Z</time>
      </trkpt>
      <trkpt lat="49.88412" lon="2.35452">
        <ele>25.6</ele>
        <time>2024-06-26T07:10:56Z</time>
      </trkpt>
      <trkpt lat="49.88411" lon="2.35454">
        <ele>25.6</ele>
        <time>2024-06-26T07:10:58Z</time>
      </trkpt>
      <trkpt lat="49.88411" lon="2.35455">
        <ele>25.6</ele>
        <time>2024-06-26T07:10:59Z</time>
      </trkpt>
      <trkpt lat="49.8841" lon="2.35458">
        <ele>25.6</ele>
        <time>2024-06-26T07:11:00Z</time>
      </trkpt>
      <trkpt lat="49.8841" lon="2.3546">
        <ele>25.6</ele>
        <time>2024-06-26T07:11:02Z</time>
      </trkpt>
      <trkpt lat="49.8841" lon="2.35462">
        <ele>25.6</ele>
        <time>2024-06-26T07:11:03Z</time>
      </trkpt>
      <trkpt lat="49.88409" lon="2.35465">
        <ele>25.6</ele>
        <time>2024-06-26T07:11:04Z</time>
      </trkpt>
      <trkpt lat="49.88409" lon="2.35467">
        <ele>25.6</ele>
        <time>2024-06-26T07:11:06Z</time>
      </trkpt>
      <trkpt lat="49.88409" lon="2.35468">
        <ele>25.6</ele>
        <time>2024-06-26T07:11:07Z</time>
      </trkpt>
      <trkpt lat="49.88409" lon="2.3547">
        <ele>25.6</ele>
        <time>2024-06-26T07:11:08Z</time>
      </trkpt>
      <trkpt lat="49.88408" lon="2.35471">
        <ele>25.6</ele>
        <time>2024-06-26T07:11:09Z</time>
      </trkpt>
      <trkpt lat="49.88408" lon="2.35473">
        <ele>25.6</ele>
        <time>2024-06-26T07:11:10Z</time>
      </trkpt>
      <trkpt lat="49.88408" lon="2.35474">
        <ele>25.6</ele>
        <time>2024-06-26T07:11:11Z</time>
      </trkpt>
      <trkpt lat="49.88408" lon="2.35476">
        <ele>25.7</ele>
        <time>2024-06-26T07:11:12Z</time>
      </trkpt>
      <trkpt lat="49.88407" lon="2.35477">
        <ele>25.7</ele>
        <time>2024-06-26T07:11:13Z</time>
      </trkpt>
      <trkpt lat="49.88407" lon="2.35479">
        <ele>25.7</ele>
        <time>2024-06-26T07:11:14Z</time>
      </trkpt>
      <trkpt lat="49.88406" lon="2.35482">
        <ele>25.7</ele>
        <time>2024-06-26T07:11:15Z</time>
      </trkpt>
      <trkpt lat="49.88406" lon="2.35483">
        <ele>25.7</ele>
        <time>2024-06-26T07:11:17Z</time>
      </trkpt>
      <trkpt lat="49.88406" lon="2.35485">
        <ele>25.7</ele>
        <time>2024-06-26T07:11:18Z</time>
      </trkpt>
      <trkpt lat="49.88406" lon="2.35486">
        <ele>25.7</ele>
        <time>2024-06-26T07:11:19Z</time>
      </trkpt>
      <trkpt lat="49.88405" lon="2.35488">
        <ele>25.7</ele>
        <time>2024-06-26T07:11:20Z</time>
      </trkpt>
      <trkpt lat="49.88405" lon="2.3549">
        <ele>25.7</ele>
        <time>2024-06-26T07:11:21Z</time>
      </trkpt>
      <trkpt lat="49.88405" lon="2.35491">
        <ele>25.7</ele>
        <time>2024-06-26T07:11:22Z</time>
      </trkpt>
      <trkpt lat="49.88405" lon="2.35493">
        <ele>25.7</ele>
        <time>2024-06-26T07:11:23Z</time>
      </trkpt>
      <trkpt lat="49.88405" lon="2.35495">
        <ele>25.7</ele>
        <time>2024-06-26T07:11:24Z</time>
      </trkpt>
      <trkpt lat="49.88405" lon="2.35496">
        <ele>25.7</ele>
        <time>2024-06-26T07:11:25Z</time>
      </trkpt>
      <trkpt lat="49.88405" lon="2.35498">
        <ele>25.7</ele>
        <time>2024-06-26T07:11:26Z</time>
      </trkpt>
      <trkpt lat="49.88405" lon="2.355">
        <ele>25.7</ele>
        <time>2024-06-26T07:11:27Z</time>
      </trkpt>
      <trkpt lat="49.88405" lon="2.35501">
        <ele>25.7</ele>
        <time>2024-06-26T07:11:28Z</time>
      </trkpt>
      <trkpt lat="49.88405" lon="2.35503">
        <ele>25.8</ele>
        <time>2024-06-26T07:11:29Z</time>
      </trkpt>
      <trkpt lat="49.88404" lon="2.35507">
        <ele>25.8</ele>
        <time>2024-06-26T07:11:30Z</time>
      </trkpt>
      <trkpt lat="49.88404" lon="2.35508">
        <ele>25.8</ele>
        <time>2024-06-26T07:11:32Z</time>
      </trkpt>
      <trkpt lat="49.88404" lon="2.35511">
        <ele>25.8</ele>
        <time>2024-06-26T07:11:33Z</time>
      </trkpt>
      <trkpt lat="49.88404" lon="2.35512">
        <ele>25.8</ele>
        <time>2024-06-26T07:11:35Z</time>
      </trkpt>
      <trkpt lat="49.88404" lon="2.35515">
        <ele>25.8</ele>
        <time>2024-06-26T07:11:36Z</time>
      </trkpt>
      <trkpt lat="49.88404" lon="2.35517">
        <ele>25.8</ele>
        <time>2024-06-26T07:11:38Z</time>
      </trkpt>
      <trkpt lat="49.88404" lon="2.35519">
        <ele>25.8</ele>
        <time>2024-06-26T07:11:39Z</time>
      </trkpt>
      <trkpt lat="49.88404" lon="2.35521">
        <ele>25.8</ele>
        <time>2024-06-26T07:11:41Z</time>
      </trkpt>
      <trkpt lat="49.88404" lon="2.35523">
        <ele>25.9</ele>
        <time>2024-06-26T07:11:42Z</time>
      </trkpt>
      <trkpt lat="49.88404" lon="2.35524">
        <ele>25.9</ele>
        <time>2024-06-26T07:11:43Z</time>
      </trkpt>
      <trkpt lat="49.88404" lon="2.35526">
        <ele>25.9</ele>
        <time>2024-06-26T07:11:44Z</time>
      </trkpt>
      <trkpt lat="49.88404" lon="2.35527">
        <ele>25.9</ele>
        <time>2024-06-26T07:11:45Z</time>
      </trkpt>
      <trkpt lat="49.88404" lon="2.35528">
        <ele>25.9</ele>
        <time>2024-06-26T07:11:46Z</time>
      </trkpt>
      <trkpt lat="49.88404" lon="2.3553">
        <ele>25.9</ele>
        <time>2024-06-26T07:11:47Z</time>
      </trkpt>
      <trkpt lat="49.88404" lon="2.35531">
        <ele>25.9</ele>
        <time>2024-06-26T07:11:48Z</time>
      </trkpt>
      <trkpt lat="49.88404" lon="2.35533">
        <ele>25.9</ele>
        <time>2024-06-26T07:11:49Z</time>
      </trkpt>
      <trkpt lat="49.88404" lon="2.35534">
        <ele>25.9</ele>
        <time>2024-06-26T07:11:50Z</time>
      </trkpt>
      <trkpt lat="49.88404" lon="2.35536">
        <ele>25.9</ele>
        <time>2024-06-26T07:11:51Z</time>
      </trkpt>
      <trkpt lat="49.88404" lon="2.35539">
        <ele>25.9</ele>
        <time>2024-06-26T07:11:52Z</time>
      </trkpt>
      <trkpt lat="49.88404" lon="2.3554">
        <ele>25.9</ele>
        <time>2024-06-26T07:11:54Z</time>
      </trkpt>
      <trkpt lat="49.88405" lon="2.35542">
        <ele>26</ele>
        <time>2024-06-26T07:11:55Z</time>
      </trkpt>
      <trkpt lat="49.88405" lon="2.35543">
        <ele>26</ele>
        <time>2024-06-26T07:11:56Z</time>
      </trkpt>
      <trkpt lat="49.88405" lon="2.35545">
        <ele>26</ele>
        <time>2024-06-26T07:11:57Z</time>
      </trkpt>
      <trkpt lat="49.88405" lon="2.35546">
        <ele>26</ele>
        <time>2024-06-26T07:11:58Z</time>
      </trkpt>
      <trkpt lat="49.88405" lon="2.35548">
        <ele>26</ele>
        <time>2024-06-26T07:11:59Z</time>
      </trkpt>
      <trkpt lat="49.88405" lon="2.35549">
        <ele>26</ele>
        <time>2024-06-26T07:12:00Z</time>
      </trkpt>
      <trkpt lat="49.88406" lon="2.35551">
        <ele>26</ele>
        <time>2024-06-26T07:12:01Z</time>
      </trkpt>
      <trkpt lat="49.88407" lon="2.35554">
        <ele>26</ele>
        <time>2024-06-26T07:12:02Z</time>
      </trkpt>
      <trkpt lat="49.88407" lon="2.35555">
        <ele>26</ele>
        <time>2024-06-26T07:12:04Z</time>
      </trkpt>
      <trkpt lat="49.88408" lon="2.35557">
        <ele>26</ele>
        <time>2024-06-26T07:12:05Z</time>
      </trkpt>
      <trkpt lat="49.88408" lon="2.35559">
        <ele>26</ele>
        <time>2024-06-26T07:12:06Z</time>
      </trkpt>
      <trkpt lat="49.88409" lon="2.3556">
        <ele>26</ele>
        <time>2024-06-26T07:12:07Z</time>
      </trkpt>
      <trkpt lat="49.88409" lon="2.35562">
        <ele>26</ele>
        <time>2024-06-26T07:12:08Z</time>
      </trkpt>
      <trkpt lat="49.8841" lon="2.35565">
        <ele>26</ele>
        <time>2024-06-26T07:12:09Z</time>
      </trkpt>
      <trkpt lat="49.8841" lon="2.35567">
        <ele>26</ele>
        <time>2024-06-26T07:12:11Z</time>
      </trkpt>
      <trkpt lat="49.88411" lon="2.35568">
        <ele>26</ele>
        <time>2024-06-26T07:12:12Z</time>
      </trkpt>
      <trkpt lat="49.88412" lon="2.3557">
        <ele>26</ele>
        <time>2024-06-26T07:12:13Z</time>
      </trkpt>
      <trkpt lat="49.88412" lon="2.35571">
        <ele>26</ele>
        <time>2024-06-26T07:12:14Z</time>
      </trkpt>
      <trkpt lat="49.88413" lon="2.35574">
        <ele>26</ele>
        <time>2024-06-26T07:12:15Z</time>
      </trkpt>
      <trkpt lat="49.88414" lon="2.35575">
        <ele>26</ele>
        <time>2024-06-26T07:12:17Z</time>
      </trkpt>
      <trkpt lat="49.88414" lon="2.35576">
        <ele>26</ele>
        <time>2024-06-26T07:12:18Z</time>
      </trkpt>
      <trkpt lat="49.88415" lon="2.35578">
        <ele>26</ele>
        <time>2024-06-26T07:12:19Z</time>
      </trkpt>
      <trkpt lat="49.88415" lon="2.35579">
        <ele>26</ele>
        <time>2024-06-26T07:12:20Z</time>
      </trkpt>
      <trkpt lat="49.88416" lon="2.35581">
        <ele>26</ele>
        <time>2024-06-26T07:12:21Z</time>
      </trkpt>
      <trkpt lat="49.88416" lon="2.35582">
        <ele>26</ele>
        <time>2024-06-26T07:12:22Z</time>
      </trkpt>
      <trkpt lat="49.88416" lon="2.35583">
        <ele>26</ele>
        <time>2024-06-26T07:12:23Z</time>
      </trkpt>
      <trkpt lat="49.88417" lon="2.35585">
        <ele>26</ele>
        <time>2024-06-26T07:12:24Z</time>
      </trkpt>
      <trkpt lat="49.88417" lon="2.35586">
        <ele>26</ele>
        <time>2024-06-26T07:12:25Z</time>
      </trkpt>
      <trkpt lat="49.88418" lon="2.35588">
        <ele>26</ele>
        <time>2024-06-26T07:12:26Z</time>
      </trkpt>
      <trkpt lat="49.88418" lon="2.35589">
        <ele>26</ele>
        <time>2024-06-26T07:12:27Z</time>
      </trkpt>
      <trkpt lat="49.88419" lon="2.35591">
        <ele>26</ele>
        <time>2024-06-26T07:12:28Z</time>
      </trkpt>
      <trkpt lat="49.88419" lon="2.35592">
        <ele>26</ele>
        <time>2024-06-26T07:12:29Z</time>
      </trkpt>
      <trkpt lat="49.8842" lon="2.35594">
        <ele>26</ele>
        <time>2024-06-26T07:12:30Z</time>
      </trkpt>
      <trkpt lat="49.8842" lon="2.35595">
        <ele>26</ele>
        <time>2024-06-26T07:12:31Z</time>
      </trkpt>
      <trkpt lat="49.8842" lon="2.35597">
        <ele>26</ele>
        <time>2024-06-26T07:12:32Z</time>
      </trkpt>
      <trkpt lat="49.88421" lon="2.35598">
        <ele>26</ele>
        <time>2024-06-26T07:12:33Z</time>
      </trkpt>
      <trkpt lat="49.88421" lon="2.356">
        <ele>26</ele>
        <time>2024-06-26T07:12:34Z</time>
      </trkpt>
      <trkpt lat="49.88422" lon="2.35601">
        <ele>26</ele>
        <time>2024-06-26T07:12:35Z</time>
      </trkpt>
      <trkpt lat="49.88422" lon="2.35603">
        <ele>26</ele>
        <time>2024-06-26T07:12:36Z</time>
      </trkpt>
      <trkpt lat="49.88422" lon="2.35604">
        <ele>25.9</ele>
        <time>2024-06-26T07:12:37Z</time>
      </trkpt>
      <trkpt lat="49.88423" lon="2.35607">
        <ele>25.9</ele>
        <time>2024-06-26T07:12:38Z</time>
      </trkpt>
      <trkpt lat="49.88424" lon="2.35609">
        <ele>25.9</ele>
        <time>2024-06-26T07:12:40Z</time>
      </trkpt>
      <trkpt lat="49.88424" lon="2.35612">
        <ele>25.9</ele>
        <time>2024-06-26T07:12:41Z</time>
      </trkpt>
      <trkpt lat="49.88425" lon="2.35613">
        <ele>25.9</ele>
        <time>2024-06-26T07:12:43Z</time>
      </trkpt>
      <trkpt lat="49.88426" lon="2.35616">
        <ele>25.9</ele>
        <time>2024-06-26T07:12:44Z</time>
      </trkpt>
      <trkpt lat="49.88426" lon="2.35617">
        <ele>25.9</ele>
        <time>2024-06-26T07:12:46Z</time>
      </trkpt>
      <trkpt lat="49.88426" lon="2.35619">
        <ele>25.9</ele>
        <time>2024-06-26T07:12:47Z</time>
      </trkpt>
      <trkpt lat="49.88427" lon="2.3562">
        <ele>25.9</ele>
        <time>2024-06-26T07:12:48Z</time>
      </trkpt>
      <trkpt lat="49.88427" lon="2.35622">
        <ele>25.9</ele>
        <time>2024-06-26T07:12:49Z</time>
      </trkpt>
      <trkpt lat="49.88427" lon="2.35623">
        <ele>25.9</ele>
        <time>2024-06-26T07:12:50Z</time>
      </trkpt>
      <trkpt lat="49.88428" lon="2.35625">
        <ele>25.9</ele>
        <time>2024-06-26T07:12:51Z</time>
      </trkpt>
      <trkpt lat="49.88429" lon="2.35627">
        <ele>25.9</ele>
        <time>2024-06-26T07:12:52Z</time>
      </trkpt>
      <trkpt lat="49.88429" lon="2.35629">
        <ele>25.9</ele>
        <time>2024-06-26T07:12:54Z</time>
      </trkpt>
      <trkpt lat="49.8843" lon="2.35632">
        <ele>25.9</ele>
        <time>2024-06-26T07:12:55Z</time>
      </trkpt>
      <trkpt lat="49.88431" lon="2.35633">
        <ele>25.9</ele>
        <time>2024-06-26T07:12:57Z</time>
      </trkpt>
      <trkpt lat="49.88431" lon="2.35636">
        <ele>25.9</ele>
        <time>2024-06-26T07:12:58Z</time>
      </trkpt>
      <trkpt lat="49.88432" lon="2.35638">
        <ele>25.9</ele>
        <time>2024-06-26T07:13:00Z</time>
      </trkpt>
      <trkpt lat="49.88432" lon="2.35639">
        <ele>25.9</ele>
        <time>2024-06-26T07:13:01Z</time>
      </trkpt>
      <trkpt lat="49.88433" lon="2.35641">
        <ele>25.9</ele>
        <time>2024-06-26T07:13:02Z</time>
      </trkpt>
      <trkpt lat="49.88433" lon="2.35643">
        <ele>25.9</ele>
        <time>2024-06-26T07:13:03Z</time>
      </trkpt>
      <trkpt lat="49.88434" lon="2.35646">
        <ele>25.9</ele>
        <time>2024-06-26T07:13:04Z</time>
      </trkpt>
      <trkpt lat="49.88435" lon="2.35647">
        <ele>25.9</ele>
        <time>2024-06-26T07:13:06Z</time>
      </trkpt>
      <trkpt lat="49.88435" lon="2.3565">
        <ele>25.9</ele>
        <time>2024-06-26T07:13:07Z</time>
      </trkpt>
      <trkpt lat="49.88436" lon="2.35652">
        <ele>25.9</ele>
        <time>2024-06-26T07:13:09Z</time>
      </trkpt>
      <trkpt lat="49.88436" lon="2.35653">
        <ele>25.9</ele>
        <time>2024-06-26T07:13:10Z</time>
      </trkpt>
      <trkpt lat="49.88437" lon="2.35655">
        <ele>25.9</ele>
        <time>2024-06-26T07:13:11Z</time>
      </trkpt>
      <trkpt lat="49.88437" lon="2.35656">
        <ele>25.9</ele>
        <time>2024-06-26T07:13:12Z</time>
      </trkpt>
      <trkpt lat="49.88438" lon="2.35658">
        <ele>25.9</ele>
        <time>2024-06-26T07:13:13Z</time>
      </trkpt>
      <trkpt lat="49.88438" lon="2.35659">
        <ele>25.9</ele>
        <time>2024-06-26T07:13:14Z</time>
      </trkpt>
      <trkpt lat="49.88438" lon="2.35661">
        <ele>25.9</ele>
        <time>2024-06-26T07:13:15Z</time>
      </trkpt>
      <trkpt lat="49.88439" lon="2.35662">
        <ele>25.9</ele>
        <time>2024-06-26T07:13:16Z</time>
      </trkpt>
      <trkpt lat="49.88439" lon="2.35663">
        <ele>25.9</ele>
        <time>2024-06-26T07:13:17Z</time>
      </trkpt>
      <trkpt lat="49.8844" lon="2.35665">
        <ele>25.9</ele>
        <time>2024-06-26T07:13:18Z</time>
      </trkpt>
      <trkpt lat="49.8844" lon="2.35666">
        <ele>25.9</ele>
        <time>2024-06-26T07:13:19Z</time>
      </trkpt>
      <trkpt lat="49.8844" lon="2.35668">
        <ele>25.9</ele>
        <time>2024-06-26T07:13:20Z</time>
      </trkpt>
      <trkpt lat="49.8844" lon="2.35669">
        <ele>25.9</ele>
        <time>2024-06-26T07:13:22Z</time>
      </trkpt>
      <trkpt lat="49.88441" lon="2.35672">
        <ele>25.9</ele>
        <time>2024-06-26T07:13:23Z</time>
      </trkpt>
      <trkpt lat="49.88441" lon="2.35674">
        <ele>25.9</ele>
        <time>2024-06-26T07:13:25Z</time>
      </trkpt>
      <trkpt lat="49.88441" lon="2.35675">
        <ele>25.9</ele>
        <time>2024-06-26T07:13:26Z</time>
      </trkpt>
      <trkpt lat="49.88442" lon="2.35677">
        <ele>25.9</ele>
        <time>2024-06-26T07:13:27Z</time>
      </trkpt>
      <trkpt lat="49.88442" lon="2.35679">
        <ele>25.9</ele>
        <time>2024-06-26T07:13:28Z</time>
      </trkpt>
      <trkpt lat="49.88442" lon="2.3568">
        <ele>25.9</ele>
        <time>2024-06-26T07:13:29Z</time>
      </trkpt>
      <trkpt lat="49.88442" lon="2.35681">
        <ele>25.9</ele>
        <time>2024-06-26T07:13:30Z</time>
      </trkpt>
      <trkpt lat="49.88443" lon="2.35683">
        <ele>25.9</ele>
        <time>2024-06-26T07:13:31Z</time>
      </trkpt>
      <trkpt lat="49.88443" lon="2.35684">
        <ele>25.9</ele>
        <time>2024-06-26T07:13:32Z</time>
      </trkpt>
      <trkpt lat="49.88443" lon="2.35686">
        <ele>25.9</ele>
        <time>2024-06-26T07:13:33Z</time>
      </trkpt>
      <trkpt lat="49.88444" lon="2.35687">
        <ele>25.9</ele>
        <time>2024-06-26T07:13:34Z</time>
      </trkpt>
      <trkpt lat="49.88444" lon="2.35688">
        <ele>25.9</ele>
        <time>2024-06-26T07:13:35Z</time>
      </trkpt>
      <trkpt lat="49.88444" lon="2.3569">
        <ele>25.9</ele>
        <time>2024-06-26T07:13:36Z</time>
      </trkpt>
      <trkpt lat="49.88445" lon="2.35691">
        <ele>25.9</ele>
        <time>2024-06-26T07:13:37Z</time>
      </trkpt>
      <trkpt lat="49.88445" lon="2.35693">
        <ele>25.9</ele>
        <time>2024-06-26T07:13:38Z</time>
      </trkpt>
      <trkpt lat="49.88445" lon="2.35694">
        <ele>25.9</ele>
        <time>2024-06-26T07:13:39Z</time>
      </trkpt>
      <trkpt lat="49.88446" lon="2.35695">
        <ele>25.9</ele>
        <time>2024-06-26T07:13:40Z</time>
      </trkpt>
      <trkpt lat="49.88446" lon="2.35696">
        <ele>25.9</ele>
        <time>2024-06-26T07:13:41Z</time>
      </trkpt>
      <trkpt lat="49.88446" lon="2.35698">
        <ele>25.9</ele>
        <time>2024-06-26T07:13:42Z</time>
      </trkpt>
      <trkpt lat="49.88447" lon="2.35699">
        <ele>25.9</ele>
        <time>2024-06-26T07:13:43Z</time>
      </trkpt>
      <trkpt lat="49.88447" lon="2.357">
        <ele>25.8</ele>
        <time>2024-06-26T07:13:44Z</time>
      </trkpt>
      <trkpt lat="49.88447" lon="2.35702">
        <ele>25.8</ele>
        <time>2024-06-26T07:13:45Z</time>
      </trkpt>
      <trkpt lat="49.88448" lon="2.35703">
        <ele>25.8</ele>
        <time>2024-06-26T07:13:46Z</time>
      </trkpt>
      <trkpt lat="49.88448" lon="2.35704">
        <ele>25.8</ele>
        <time>2024-06-26T07:13:47Z</time>
      </trkpt>
      <trkpt lat="49.88448" lon="2.35705">
        <ele>25.8</ele>
        <time>2024-06-26T07:13:48Z</time>
      </trkpt>
      <trkpt lat="49.88449" lon="2.35706">
        <ele>25.8</ele>
        <time>2024-06-26T07:13:49Z</time>
      </trkpt>
      <trkpt lat="49.88449" lon="2.35709">
        <ele>25.8</ele>
        <time>2024-06-26T07:13:50Z</time>
      </trkpt>
      <trkpt lat="49.88449" lon="2.3571">
        <ele>25.8</ele>
        <time>2024-06-26T07:13:52Z</time>
      </trkpt>
      <trkpt lat="49.8845" lon="2.35713">
        <ele>25.8</ele>
        <time>2024-06-26T07:13:53Z</time>
      </trkpt>
      <trkpt lat="49.8845" lon="2.35714">
        <ele>25.8</ele>
        <time>2024-06-26T07:13:55Z</time>
      </trkpt>
      <trkpt lat="49.8845" lon="2.35717">
        <ele>25.8</ele>
        <time>2024-06-26T07:13:56Z</time>
      </trkpt>
      <trkpt lat="49.88451" lon="2.35718">
        <ele>25.8</ele>
        <time>2024-06-26T07:13:58Z</time>
      </trkpt>
      <trkpt lat="49.88451" lon="2.3572">
        <ele>25.8</ele>
        <time>2024-06-26T07:13:59Z</time>
      </trkpt>
      <trkpt lat="49.88451" lon="2.35721">
        <ele>25.8</ele>
        <time>2024-06-26T07:14:00Z</time>
      </trkpt>
      <trkpt lat="49.88451" lon="2.35723">
        <ele>25.8</ele>
        <time>2024-06-26T07:14:01Z</time>
      </trkpt>
      <trkpt lat="49.88452" lon="2.35724">
        <ele>25.8</ele>
        <time>2024-06-26T07:14:02Z</time>
      </trkpt>
      <trkpt lat="49.88452" lon="2.35725">
        <ele>25.8</ele>
        <time>2024-06-26T07:14:03Z</time>
      </trkpt>
      <trkpt lat="49.88452" lon="2.35727">
        <ele>25.8</ele>
        <time>2024-06-26T07:14:04Z</time>
      </trkpt>
      <trkpt lat="49.88452" lon="2.35728">
        <ele>25.8</ele>
        <time>2024-06-26T07:14:05Z</time>
      </trkpt>
      <trkpt lat="49.88452" lon="2.3573">
        <ele>25.8</ele>
        <time>2024-06-26T07:14:06Z</time>
      </trkpt>
      <trkpt lat="49.88452" lon="2.35731">
        <ele>25.8</ele>
        <time>2024-06-26T07:14:07Z</time>
      </trkpt>
      <trkpt lat="49.88452" lon="2.35733">
        <ele>25.7</ele>
        <time>2024-06-26T07:14:08Z</time>
      </trkpt>
      <trkpt lat="49.88453" lon="2.35735">
        <ele>25.7</ele>
        <time>2024-06-26T07:14:09Z</time>
      </trkpt>
      <trkpt lat="49.88453" lon="2.35736">
        <ele>25.7</ele>
        <time>2024-06-26T07:14:10Z</time>
      </trkpt>
      <trkpt lat="49.88453" lon="2.35739">
        <ele>25.7</ele>
        <time>2024-06-26T07:14:11Z</time>
      </trkpt>
      <trkpt lat="49.88453" lon="2.35741">
        <ele>25.7</ele>
        <time>2024-06-26T07:14:13Z</time>
      </trkpt>
      <trkpt lat="49.88454" lon="2.35743">
        <ele>25.7</ele>
        <time>2024-06-26T07:14:14Z</time>
      </trkpt>
      <trkpt lat="49.88454" lon="2.35745">
        <ele>25.7</ele>
        <time>2024-06-26T07:14:15Z</time>
      </trkpt>
      <trkpt lat="49.88454" lon="2.35746">
        <ele>25.7</ele>
        <time>2024-06-26T07:14:16Z</time>
      </trkpt>
      <trkpt lat="49.88454" lon="2.35749">
        <ele>25.7</ele>
        <time>2024-06-26T07:14:17Z</time>
      </trkpt>
      <trkpt lat="49.88454" lon="2.35751">
        <ele>25.7</ele>
        <time>2024-06-26T07:14:19Z</time>
      </trkpt>
      <trkpt lat="49.88455" lon="2.35753">
        <ele>25.7</ele>
        <time>2024-06-26T07:14:20Z</time>
      </trkpt>
      <trkpt lat="49.88455" lon="2.35755">
        <ele>25.7</ele>
        <time>2024-06-26T07:14:21Z</time>
      </trkpt>
      <trkpt lat="49.88455" lon="2.35756">
        <ele>25.6</ele>
        <time>2024-06-26T07:14:22Z</time>
      </trkpt>
      <trkpt lat="49.88455" lon="2.3576">
        <ele>25.6</ele>
        <time>2024-06-26T07:14:23Z</time>
      </trkpt>
      <trkpt lat="49.88455" lon="2.35762">
        <ele>25.6</ele>
        <time>2024-06-26T07:14:25Z</time>
      </trkpt>
      <trkpt lat="49.88455" lon="2.35764">
        <ele>25.6</ele>
        <time>2024-06-26T07:14:26Z</time>
      </trkpt>
      <trkpt lat="49.88456" lon="2.35765">
        <ele>25.6</ele>
        <time>2024-06-26T07:14:27Z</time>
      </trkpt>
      <trkpt lat="49.88456" lon="2.35767">
        <ele>25.6</ele>
        <time>2024-06-26T07:14:28Z</time>
      </trkpt>
      <trkpt lat="49.88456" lon="2.3577">
        <ele>25.6</ele>
        <time>2024-06-26T07:14:29Z</time>
      </trkpt>
      <trkpt lat="49.88456" lon="2.35772">
        <ele>25.6</ele>
        <time>2024-06-26T07:14:31Z</time>
      </trkpt>
      <trkpt lat="49.88456" lon="2.35775">
        <ele>25.6</ele>
        <time>2024-06-26T07:14:32Z</time>
      </trkpt>
      <trkpt lat="49.88456" lon="2.35776">
        <ele>25.6</ele>
        <time>2024-06-26T07:14:34Z</time>
      </trkpt>
      <trkpt lat="49.88456" lon="2.3578">
        <ele>25.6</ele>
        <time>2024-06-26T07:14:35Z</time>
      </trkpt>
      <trkpt lat="49.88456" lon="2.35781">
        <ele>25.6</ele>
        <time>2024-06-26T07:14:37Z</time>
      </trkpt>
      <trkpt lat="49.88456" lon="2.35783">
        <ele>25.6</ele>
        <time>2024-06-26T07:14:38Z</time>
      </trkpt>
      <trkpt lat="49.88456" lon="2.35785">
        <ele>25.6</ele>
        <time>2024-06-26T07:14:39Z</time>
      </trkpt>
      <trkpt lat="49.88456" lon="2.35786">
        <ele>25.6</ele>
        <time>2024-06-26T07:14:40Z</time>
      </trkpt>
      <trkpt lat="49.88456" lon="2.35787">
        <ele>25.6</ele>
        <time>2024-06-26T07:14:41Z</time>
      </trkpt>
      <trkpt lat="49.88457" lon="2.35789">
        <ele>25.6</ele>
        <time>2024-06-26T07:14:42Z</time>
      </trkpt>
      <trkpt lat="49.88457" lon="2.35791">
        <ele>25.6</ele>
        <time>2024-06-26T07:14:43Z</time>
      </trkpt>
      <trkpt lat="49.88456" lon="2.35792">
        <ele>25.6</ele>
        <time>2024-06-26T07:14:44Z</time>
      </trkpt>
      <trkpt lat="49.88456" lon="2.35794">
        <ele>25.6</ele>
        <time>2024-06-26T07:14:45Z</time>
      </trkpt>
      <trkpt lat="49.88456" lon="2.35797">
        <ele>25.6</ele>
        <time>2024-06-26T07:14:46Z</time>
      </trkpt>
      <trkpt lat="49.88456" lon="2.35798">
        <ele>25.6</ele>
        <time>2024-06-26T07:14:48Z</time>
      </trkpt>
      <trkpt lat="49.88456" lon="2.35801">
        <ele>25.6</ele>
        <time>2024-06-26T07:14:49Z</time>
      </trkpt>
      <trkpt lat="49.88456" lon="2.35803">
        <ele>25.6</ele>
        <time>2024-06-26T07:14:51Z</time>
      </trkpt>
      <trkpt lat="49.88456" lon="2.35804">
        <ele>25.6</ele>
        <time>2024-06-26T07:14:52Z</time>
      </trkpt>
      <trkpt lat="49.88456" lon="2.35806">
        <ele>25.6</ele>
        <time>2024-06-26T07:14:53Z</time>
      </trkpt>
      <trkpt lat="49.88456" lon="2.35807">
        <ele>25.6</ele>
        <time>2024-06-26T07:14:54Z</time>
      </trkpt>
      <trkpt lat="49.88457" lon="2.35809">
        <ele>25.6</ele>
        <time>2024-06-26T07:14:55Z</time>
      </trkpt>
      <trkpt lat="49.88457" lon="2.35811">
        <ele>25.6</ele>
        <time>2024-06-26T07:14:56Z</time>
      </trkpt>
      <trkpt lat="49.88457" lon="2.35812">
        <ele>25.6</ele>
        <time>2024-06-26T07:14:57Z</time>
      </trkpt>
      <trkpt lat="49.88457" lon="2.35813">
        <ele>25.6</ele>
        <time>2024-06-26T07:14:58Z</time>
      </trkpt>
      <trkpt lat="49.88457" lon="2.35815">
        <ele>25.6</ele>
        <time>2024-06-26T07:14:59Z</time>
      </trkpt>
      <trkpt lat="49.88457" lon="2.35816">
        <ele>25.6</ele>
        <time>2024-06-26T07:15:00Z</time>
      </trkpt>
      <trkpt lat="49.88457" lon="2.35818">
        <ele>25.6</ele>
        <time>2024-06-26T07:15:01Z</time>
      </trkpt>
      <trkpt lat="49.88457" lon="2.35821">
        <ele>25.6</ele>
        <time>2024-06-26T07:15:02Z</time>
      </trkpt>
      <trkpt lat="49.88458" lon="2.35823">
        <ele>25.6</ele>
        <time>2024-06-26T07:15:04Z</time>
      </trkpt>
      <trkpt lat="49.88458" lon="2.35824">
        <ele>25.6</ele>
        <time>2024-06-26T07:15:05Z</time>
      </trkpt>
      <trkpt lat="49.88458" lon="2.35825">
        <ele>25.6</ele>
        <time>2024-06-26T07:15:06Z</time>
      </trkpt>
      <trkpt lat="49.88458" lon="2.35826">
        <ele>25.6</ele>
        <time>2024-06-26T07:15:07Z</time>
      </trkpt>
      <trkpt lat="49.88459" lon="2.35828">
        <ele>25.6</ele>
        <time>2024-06-26T07:15:08Z</time>
      </trkpt>
      <trkpt lat="49.88459" lon="2.35829">
        <ele>25.6</ele>
        <time>2024-06-26T07:15:09Z</time>
      </trkpt>
      <trkpt lat="49.88459" lon="2.35831">
        <ele>25.6</ele>
        <time>2024-06-26T07:15:10Z</time>
      </trkpt>
      <trkpt lat="49.88459" lon="2.35832">
        <ele>25.6</ele>
        <time>2024-06-26T07:15:11Z</time>
      </trkpt>
      <trkpt lat="49.88459" lon="2.35835">
        <ele>25.6</ele>
        <time>2024-06-26T07:15:12Z</time>
      </trkpt>
      <trkpt lat="49.88459" lon="2.35837">
        <ele>25.6</ele>
        <time>2024-06-26T07:15:14Z</time>
      </trkpt>
      <trkpt lat="49.88459" lon="2.35838">
        <ele>25.6</ele>
        <time>2024-06-26T07:15:15Z</time>
      </trkpt>
      <trkpt lat="49.88459" lon="2.3584">
        <ele>25.6</ele>
        <time>2024-06-26T07:15:16Z</time>
      </trkpt>
      <trkpt lat="49.88459" lon="2.35841">
        <ele>25.6</ele>
        <time>2024-06-26T07:15:17Z</time>
      </trkpt>
      <trkpt lat="49.88459" lon="2.35843">
        <ele>25.6</ele>
        <time>2024-06-26T07:15:18Z</time>
      </trkpt>
      <trkpt lat="49.88459" lon="2.35844">
        <ele>25.5</ele>
        <time>2024-06-26T07:15:19Z</time>
      </trkpt>
      <trkpt lat="49.88459" lon="2.35846">
        <ele>25.5</ele>
        <time>2024-06-26T07:15:20Z</time>
      </trkpt>
      <trkpt lat="49.88459" lon="2.35849">
        <ele>25.5</ele>
        <time>2024-06-26T07:15:21Z</time>
      </trkpt>
      <trkpt lat="49.88458" lon="2.3585">
        <ele>25.5</ele>
        <time>2024-06-26T07:15:23Z</time>
      </trkpt>
      <trkpt lat="49.88458" lon="2.35852">
        <ele>25.5</ele>
        <time>2024-06-26T07:15:24Z</time>
      </trkpt>
      <trkpt lat="49.88458" lon="2.35853">
        <ele>25.5</ele>
        <time>2024-06-26T07:15:25Z</time>
      </trkpt>
      <trkpt lat="49.88458" lon="2.35855">
        <ele>25.5</ele>
        <time>2024-06-26T07:15:26Z</time>
      </trkpt>
      <trkpt lat="49.88457" lon="2.35856">
        <ele>25.5</ele>
        <time>2024-06-26T07:15:27Z</time>
      </trkpt>
      <trkpt lat="49.88457" lon="2.35858">
        <ele>25.5</ele>
        <time>2024-06-26T07:15:28Z</time>
      </trkpt>
      <trkpt lat="49.88457" lon="2.3586">
        <ele>25.5</ele>
        <time>2024-06-26T07:15:29Z</time>
      </trkpt>
      <trkpt lat="49.88457" lon="2.35861">
        <ele>25.5</ele>
        <time>2024-06-26T07:15:30Z</time>
      </trkpt>
      <trkpt lat="49.88457" lon="2.35863">
        <ele>25.5</ele>
        <time>2024-06-26T07:15:31Z</time>
      </trkpt>
      <trkpt lat="49.88457" lon="2.35865">
        <ele>25.5</ele>
        <time>2024-06-26T07:15:32Z</time>
      </trkpt>
      <trkpt lat="49.88457" lon="2.35867">
        <ele>25.5</ele>
        <time>2024-06-26T07:15:33Z</time>
      </trkpt>
      <trkpt lat="49.88457" lon="2.35869">
        <ele>25.5</ele>
        <time>2024-06-26T07:15:34Z</time>
      </trkpt>
      <trkpt lat="49.88457" lon="2.35871">
        <ele>25.5</ele>
        <time>2024-06-26T07:15:35Z</time>
      </trkpt>
      <trkpt lat="49.88457" lon="2.35872">
        <ele>25.5</ele>
        <time>2024-06-26T07:15:36Z</time>
      </trkpt>
      <trkpt lat="49.88457" lon="2.35876">
        <ele>25.5</ele>
        <time>2024-06-26T07:15:37Z</time>
      </trkpt>
      <trkpt lat="49.88457" lon="2.35877">
        <ele>25.5</ele>
        <time>2024-06-26T07:15:39Z</time>
      </trkpt>
      <trkpt lat="49.88456" lon="2.35881">
        <ele>25.5</ele>
        <time>2024-06-26T07:15:40Z</time>
      </trkpt>
      <trkpt lat="49.88456" lon="2.35882">
        <ele>25.5</ele>
        <time>2024-06-26T07:15:42Z</time>
      </trkpt>
      <trkpt lat="49.88455" lon="2.35886">
        <ele>25.5</ele>
        <time>2024-06-26T07:15:43Z</time>
      </trkpt>
      <trkpt lat="49.88455" lon="2.35887">
        <ele>25.5</ele>
        <time>2024-06-26T07:15:45Z</time>
      </trkpt>
      <trkpt lat="49.88455" lon="2.35889">
        <ele>25.5</ele>
        <time>2024-06-26T07:15:46Z</time>
      </trkpt>
      <trkpt lat="49.88455" lon="2.35891">
        <ele>25.5</ele>
        <time>2024-06-26T07:15:47Z</time>
      </trkpt>
      <trkpt lat="49.88455" lon="2.35892">
        <ele>25.5</ele>
        <time>2024-06-26T07:15:48Z</time>
      </trkpt>
      <trkpt lat="49.88455" lon="2.35893">
        <ele>25.5</ele>
        <time>2024-06-26T07:15:49Z</time>
      </trkpt>
      <trkpt lat="49.88455" lon="2.35895">
        <ele>25.5</ele>
        <time>2024-06-26T07:15:50Z</time>
      </trkpt>
      <trkpt lat="49.88455" lon="2.35897">
        <ele>25.5</ele>
        <time>2024-06-26T07:15:51Z</time>
      </trkpt>
      <trkpt lat="49.88455" lon="2.35898">
        <ele>25.5</ele>
        <time>2024-06-26T07:15:52Z</time>
      </trkpt>
      <trkpt lat="49.88456" lon="2.359">
        <ele>25.5</ele>
        <time>2024-06-26T07:15:53Z</time>
      </trkpt>
      <trkpt lat="49.88456" lon="2.35902">
        <ele>25.5</ele>
        <time>2024-06-26T07:15:54Z</time>
      </trkpt>
      <trkpt lat="49.88456" lon="2.35903">
        <ele>25.5</ele>
        <time>2024-06-26T07:15:55Z</time>
      </trkpt>
      <trkpt lat="49.88456" lon="2.35906">
        <ele>25.5</ele>
        <time>2024-06-26T07:15:56Z</time>
      </trkpt>
      <trkpt lat="49.88457" lon="2.35908">
        <ele>25.5</ele>
        <time>2024-06-26T07:15:58Z</time>
      </trkpt>
      <trkpt lat="49.88457" lon="2.35909">
        <ele>25.5</ele>
        <time>2024-06-26T07:15:59Z</time>
      </trkpt>
      <trkpt lat="49.88458" lon="2.35911">
        <ele>25.5</ele>
        <time>2024-06-26T07:16:00Z</time>
      </trkpt>
      <trkpt lat="49.88458" lon="2.35913">
        <ele>25.5</ele>
        <time>2024-06-26T07:16:01Z</time>
      </trkpt>
      <trkpt lat="49.88458" lon="2.35915">
        <ele>25.5</ele>
        <time>2024-06-26T07:16:03Z</time>
      </trkpt>
      <trkpt lat="49.88459" lon="2.35916">
        <ele>25.5</ele>
        <time>2024-06-26T07:16:04Z</time>
      </trkpt>
      <trkpt lat="49.88459" lon="2.35918">
        <ele>25.5</ele>
        <time>2024-06-26T07:16:05Z</time>
      </trkpt>
      <trkpt lat="49.88459" lon="2.35919">
        <ele>25.5</ele>
        <time>2024-06-26T07:16:06Z</time>
      </trkpt>
      <trkpt lat="49.8846" lon="2.35922">
        <ele>25.5</ele>
        <time>2024-06-26T07:16:07Z</time>
      </trkpt>
      <trkpt lat="49.8846" lon="2.35923">
        <ele>25.5</ele>
        <time>2024-06-26T07:16:09Z</time>
      </trkpt>
      <trkpt lat="49.8846" lon="2.35926">
        <ele>25.5</ele>
        <time>2024-06-26T07:16:10Z</time>
      </trkpt>
      <trkpt lat="49.88461" lon="2.35928">
        <ele>25.5</ele>
        <time>2024-06-26T07:16:12Z</time>
      </trkpt>
      <trkpt lat="49.88461" lon="2.35929">
        <ele>25.5</ele>
        <time>2024-06-26T07:16:13Z</time>
      </trkpt>
      <trkpt lat="49.88461" lon="2.35931">
        <ele>25.5</ele>
        <time>2024-06-26T07:16:14Z</time>
      </trkpt>
      <trkpt lat="49.88461" lon="2.35932">
        <ele>25.5</ele>
        <time>2024-06-26T07:16:15Z</time>
      </trkpt>
      <trkpt lat="49.88461" lon="2.35934">
        <ele>25.5</ele>
        <time>2024-06-26T07:16:16Z</time>
      </trkpt>
      <trkpt lat="49.88461" lon="2.35935">
        <ele>25.5</ele>
        <time>2024-06-26T07:16:17Z</time>
      </trkpt>
      <trkpt lat="49.88462" lon="2.35937">
        <ele>25.5</ele>
        <time>2024-06-26T07:16:18Z</time>
      </trkpt>
      <trkpt lat="49.88462" lon="2.35938">
        <ele>25.5</ele>
        <time>2024-06-26T07:16:19Z</time>
      </trkpt>
      <trkpt lat="49.88462" lon="2.3594">
        <ele>25.5</ele>
        <time>2024-06-26T07:16:20Z</time>
      </trkpt>
      <trkpt lat="49.88462" lon="2.35941">
        <ele>25.5</ele>
        <time>2024-06-26T07:16:21Z</time>
      </trkpt>
      <trkpt lat="49.88462" lon="2.35943">
        <ele>25.5</ele>
        <time>2024-06-26T07:16:22Z</time>
      </trkpt>
      <trkpt lat="49.88463" lon="2.35944">
        <ele>25.5</ele>
        <time>2024-06-26T07:16:23Z</time>
      </trkpt>
      <trkpt lat="49.88463" lon="2.35946">
        <ele>25.5</ele>
        <time>2024-06-26T07:16:24Z</time>
      </trkpt>
      <trkpt lat="49.88464" lon="2.35949">
        <ele>25.6</ele>
        <time>2024-06-26T07:16:25Z</time>
      </trkpt>
      <trkpt lat="49.88465" lon="2.3595">
        <ele>25.6</ele>
        <time>2024-06-26T07:16:27Z</time>
      </trkpt>
      <trkpt lat="49.88465" lon="2.35951">
        <ele>25.6</ele>
        <time>2024-06-26T07:16:28Z</time>
      </trkpt>
      <trkpt lat="49.88466" lon="2.35953">
        <ele>25.6</ele>
        <time>2024-06-26T07:16:29Z</time>
      </trkpt>
      <trkpt lat="49.88466" lon="2.35954">
        <ele>25.6</ele>
        <time>2024-06-26T07:16:30Z</time>
      </trkpt>
      <trkpt lat="49.88467" lon="2.35957">
        <ele>25.6</ele>
        <time>2024-06-26T07:16:31Z</time>
      </trkpt>
      <trkpt lat="49.88468" lon="2.35958">
        <ele>25.6</ele>
        <time>2024-06-26T07:16:33Z</time>
      </trkpt>
      <trkpt lat="49.88469" lon="2.35961">
        <ele>25.6</ele>
        <time>2024-06-26T07:16:34Z</time>
      </trkpt>
      <trkpt lat="49.88469" lon="2.35962">
        <ele>25.6</ele>
        <time>2024-06-26T07:16:36Z</time>
      </trkpt>
      <trkpt lat="49.8847" lon="2.35965">
        <ele>25.6</ele>
        <time>2024-06-26T07:16:37Z</time>
      </trkpt>
      <trkpt lat="49.88471" lon="2.35966">
        <ele>25.6</ele>
        <time>2024-06-26T07:16:39Z</time>
      </trkpt>
      <trkpt lat="49.88471" lon="2.35967">
        <ele>25.6</ele>
        <time>2024-06-26T07:16:40Z</time>
      </trkpt>
      <trkpt lat="49.88472" lon="2.35968">
        <ele>25.6</ele>
        <time>2024-06-26T07:16:41Z</time>
      </trkpt>
      <trkpt lat="49.88473" lon="2.35969">
        <ele>25.6</ele>
        <time>2024-06-26T07:16:42Z</time>
      </trkpt>
      <trkpt lat="49.88473" lon="2.35971">
        <ele>25.6</ele>
        <time>2024-06-26T07:16:43Z</time>
      </trkpt>
      <trkpt lat="49.88474" lon="2.35972">
        <ele>25.6</ele>
        <time>2024-06-26T07:16:44Z</time>
      </trkpt>
      <trkpt lat="49.88474" lon="2.35973">
        <ele>25.6</ele>
        <time>2024-06-26T07:16:45Z</time>
      </trkpt>
      <trkpt lat="49.88474" lon="2.35974">
        <ele>25.6</ele>
        <time>2024-06-26T07:16:46Z</time>
      </trkpt>
      <trkpt lat="49.88475" lon="2.35975">
        <ele>25.6</ele>
        <time>2024-06-26T07:16:47Z</time>
      </trkpt>
      <trkpt lat="49.88475" lon="2.35976">
        <ele>25.6</ele>
        <time>2024-06-26T07:16:48Z</time>
      </trkpt>
      <trkpt lat="49.88476" lon="2.35978">
        <ele>25.6</ele>
        <time>2024-06-26T07:16:49Z</time>
      </trkpt>
      <trkpt lat="49.88477" lon="2.35979">
        <ele>25.7</ele>
        <time>2024-06-26T07:16:51Z</time>
      </trkpt>
      <trkpt lat="49.88478" lon="2.35982">
        <ele>25.7</ele>
        <time>2024-06-26T07:16:52Z</time>
      </trkpt>
      <trkpt lat="49.88478" lon="2.35983">
        <ele>25.7</ele>
        <time>2024-06-26T07:16:54Z</time>
      </trkpt>
      <trkpt lat="49.8848" lon="2.35985">
        <ele>25.7</ele>
        <time>2024-06-26T07:16:55Z</time>
      </trkpt>
      <trkpt lat="49.8848" lon="2.35986">
        <ele>25.7</ele>
        <time>2024-06-26T07:16:57Z</time>
      </trkpt>
      <trkpt lat="49.88481" lon="2.35987">
        <ele>25.7</ele>
        <time>2024-06-26T07:16:58Z</time>
      </trkpt>
      <trkpt lat="49.88481" lon="2.35988">
        <ele>25.7</ele>
        <time>2024-06-26T07:16:59Z</time>
      </trkpt>
      <trkpt lat="49.88482" lon="2.35989">
        <ele>25.7</ele>
        <time>2024-06-26T07:17:00Z</time>
      </trkpt>
      <trkpt lat="49.88483" lon="2.3599">
        <ele>25.7</ele>
        <time>2024-06-26T07:17:01Z</time>
      </trkpt>
      <trkpt lat="49.88483" lon="2.35992">
        <ele>25.7</ele>
        <time>2024-06-26T07:17:02Z</time>
      </trkpt>
      <trkpt lat="49.88484" lon="2.35993">
        <ele>25.7</ele>
        <time>2024-06-26T07:17:03Z</time>
      </trkpt>
      <trkpt lat="49.88484" lon="2.35994">
        <ele>25.7</ele>
        <time>2024-06-26T07:17:04Z</time>
      </trkpt>
      <trkpt lat="49.88484" lon="2.35995">
        <ele>25.7</ele>
        <time>2024-06-26T07:17:05Z</time>
      </trkpt>
      <trkpt lat="49.88485" lon="2.35996">
        <ele>25.7</ele>
        <time>2024-06-26T07:17:06Z</time>
      </trkpt>
      <trkpt lat="49.88486" lon="2.35997">
        <ele>25.7</ele>
        <time>2024-06-26T07:17:07Z</time>
      </trkpt>
      <trkpt lat="49.88486" lon="2.35999">
        <ele>25.7</ele>
        <time>2024-06-26T07:17:08Z</time>
      </trkpt>
      <trkpt lat="49.88486" lon="2.36">
        <ele>25.7</ele>
        <time>2024-06-26T07:17:09Z</time>
      </trkpt>
      <trkpt lat="49.88487" lon="2.36001">
        <ele>25.7</ele>
        <time>2024-06-26T07:17:10Z</time>
      </trkpt>
      <trkpt lat="49.88488" lon="2.36002">
        <ele>25.7</ele>
        <time>2024-06-26T07:17:11Z</time>
      </trkpt>
      <trkpt lat="49.88488" lon="2.36003">
        <ele>25.7</ele>
        <time>2024-06-26T07:17:12Z</time>
      </trkpt>
      <trkpt lat="49.88489" lon="2.36005">
        <ele>25.7</ele>
        <time>2024-06-26T07:17:13Z</time>
      </trkpt>
      <trkpt lat="49.88489" lon="2.36006">
        <ele>25.7</ele>
        <time>2024-06-26T07:17:14Z</time>
      </trkpt>
      <trkpt lat="49.8849" lon="2.36007">
        <ele>25.7</ele>
        <time>2024-06-26T07:17:15Z</time>
      </trkpt>
      <trkpt lat="49.88491" lon="2.36009">
        <ele>25.7</ele>
        <time>2024-06-26T07:17:16Z</time>
      </trkpt>
      <trkpt lat="49.88491" lon="2.3601">
        <ele>25.7</ele>
        <time>2024-06-26T07:17:17Z</time>
      </trkpt>
      <trkpt lat="49.88492" lon="2.36011">
        <ele>25.7</ele>
        <time>2024-06-26T07:17:18Z</time>
      </trkpt>
      <trkpt lat="49.88492" lon="2.36012">
        <ele>25.7</ele>
        <time>2024-06-26T07:17:19Z</time>
      </trkpt>
      <trkpt lat="49.88493" lon="2.36013">
        <ele>25.7</ele>
        <time>2024-06-26T07:17:20Z</time>
      </trkpt>
      <trkpt lat="49.88494" lon="2.36016">
        <ele>25.7</ele>
        <time>2024-06-26T07:17:21Z</time>
      </trkpt>
      <trkpt lat="49.88495" lon="2.36017">
        <ele>25.7</ele>
        <time>2024-06-26T07:17:23Z</time>
      </trkpt>
      <trkpt lat="49.88495" lon="2.36018">
        <ele>25.7</ele>
        <time>2024-06-26T07:17:24Z</time>
      </trkpt>
      <trkpt lat="49.88496" lon="2.36019">
        <ele>25.7</ele>
        <time>2024-06-26T07:17:25Z</time>
      </trkpt>
      <trkpt lat="49.88496" lon="2.36021">
        <ele>25.7</ele>
        <time>2024-06-26T07:17:26Z</time>
      </trkpt>
      <trkpt lat="49.88497" lon="2.36022">
        <ele>25.7</ele>
        <time>2024-06-26T07:17:27Z</time>
      </trkpt>
      <trkpt lat="49.88498" lon="2.36023">
        <ele>25.7</ele>
        <time>2024-06-26T07:17:28Z</time>
      </trkpt>
      <trkpt lat="49.88498" lon="2.36025">
        <ele>25.7</ele>
        <time>2024-06-26T07:17:29Z</time>
      </trkpt>
      <trkpt lat="49.88499" lon="2.36026">
        <ele>25.7</ele>
        <time>2024-06-26T07:17:30Z</time>
      </trkpt>
      <trkpt lat="49.88499" lon="2.36027">
        <ele>25.7</ele>
        <time>2024-06-26T07:17:31Z</time>
      </trkpt>
      <trkpt lat="49.885" lon="2.36028">
        <ele>25.7</ele>
        <time>2024-06-26T07:17:32Z</time>
      </trkpt>
      <trkpt lat="49.88501" lon="2.36029">
        <ele>25.7</ele>
        <time>2024-06-26T07:17:33Z</time>
      </trkpt>
      <trkpt lat="49.88501" lon="2.3603">
        <ele>25.7</ele>
        <time>2024-06-26T07:17:34Z</time>
      </trkpt>
      <trkpt lat="49.88502" lon="2.36031">
        <ele>25.7</ele>
        <time>2024-06-26T07:17:35Z</time>
      </trkpt>
      <trkpt lat="49.88503" lon="2.36032">
        <ele>25.7</ele>
        <time>2024-06-26T07:17:36Z</time>
      </trkpt>
      <trkpt lat="49.88504" lon="2.36033">
        <ele>25.7</ele>
        <time>2024-06-26T07:17:37Z</time>
      </trkpt>
      <trkpt lat="49.88504" lon="2.36034">
        <ele>25.7</ele>
        <time>2024-06-26T07:17:38Z</time>
      </trkpt>
      <trkpt lat="49.88505" lon="2.36035">
        <ele>25.7</ele>
        <time>2024-06-26T07:17:39Z</time>
      </trkpt>
      <trkpt lat="49.88506" lon="2.36036">
        <ele>25.7</ele>
        <time>2024-06-26T07:17:40Z</time>
      </trkpt>
      <trkpt lat="49.88507" lon="2.36037">
        <ele>25.7</ele>
        <time>2024-06-26T07:17:41Z</time>
      </trkpt>
      <trkpt lat="49.88508" lon="2.36038">
        <ele>25.7</ele>
        <time>2024-06-26T07:17:43Z</time>
      </trkpt>
      <trkpt lat="49.88509" lon="2.36039">
        <ele>25.7</ele>
        <time>2024-06-26T07:17:44Z</time>
      </trkpt>
      <trkpt lat="49.8851" lon="2.36041">
        <ele>25.6</ele>
        <time>2024-06-26T07:17:45Z</time>
      </trkpt>
      <trkpt lat="49.88511" lon="2.36043">
        <ele>25.6</ele>
        <time>2024-06-26T07:17:47Z</time>
      </trkpt>
      <trkpt lat="49.88511" lon="2.36044">
        <ele>25.6</ele>
        <time>2024-06-26T07:17:48Z</time>
      </trkpt>
      <trkpt lat="49.88513" lon="2.36046">
        <ele>25.6</ele>
        <time>2024-06-26T07:17:49Z</time>
      </trkpt>
      <trkpt lat="49.88513" lon="2.36048">
        <ele>25.6</ele>
        <time>2024-06-26T07:17:51Z</time>
      </trkpt>
      <trkpt lat="49.88514" lon="2.36049">
        <ele>25.6</ele>
        <time>2024-06-26T07:17:52Z</time>
      </trkpt>
      <trkpt lat="49.88514" lon="2.36051">
        <ele>25.6</ele>
        <time>2024-06-26T07:17:53Z</time>
      </trkpt>
      <trkpt lat="49.88515" lon="2.36052">
        <ele>25.6</ele>
        <time>2024-06-26T07:17:54Z</time>
      </trkpt>
      <trkpt lat="49.88516" lon="2.36053">
        <ele>25.6</ele>
        <time>2024-06-26T07:17:55Z</time>
      </trkpt>
      <trkpt lat="49.88516" lon="2.36055">
        <ele>25.6</ele>
        <time>2024-06-26T07:17:56Z</time>
      </trkpt>
      <trkpt lat="49.88517" lon="2.36056">
        <ele>25.6</ele>
        <time>2024-06-26T07:17:57Z</time>
      </trkpt>
      <trkpt lat="49.88518" lon="2.36057">
        <ele>25.6</ele>
        <time>2024-06-26T07:17:58Z</time>
      </trkpt>
      <trkpt lat="49.88519" lon="2.36059">
        <ele>25.6</ele>
        <time>2024-06-26T07:17:59Z</time>
      </trkpt>
      <trkpt lat="49.8852" lon="2.3606">
        <ele>25.6</ele>
        <time>2024-06-26T07:18:00Z</time>
      </trkpt>
      <trkpt lat="49.8852" lon="2.36061">
        <ele>25.6</ele>
        <time>2024-06-26T07:18:01Z</time>
      </trkpt>
      <trkpt lat="49.88521" lon="2.36063">
        <ele>25.6</ele>
        <time>2024-06-26T07:18:02Z</time>
      </trkpt>
      <trkpt lat="49.88522" lon="2.36064">
        <ele>25.6</ele>
        <time>2024-06-26T07:18:03Z</time>
      </trkpt>
      <trkpt lat="49.88524" lon="2.36066">
        <ele>25.6</ele>
        <time>2024-06-26T07:18:04Z</time>
      </trkpt>
      <trkpt lat="49.88524" lon="2.36068">
        <ele>25.6</ele>
        <time>2024-06-26T07:18:06Z</time>
      </trkpt>
      <trkpt lat="49.88525" lon="2.36069">
        <ele>25.6</ele>
        <time>2024-06-26T07:18:07Z</time>
      </trkpt>
      <trkpt lat="49.88527" lon="2.36071">
        <ele>25.6</ele>
        <time>2024-06-26T07:18:08Z</time>
      </trkpt>
      <trkpt lat="49.88528" lon="2.36072">
        <ele>25.6</ele>
        <time>2024-06-26T07:18:10Z</time>
      </trkpt>
      <trkpt lat="49.88529" lon="2.36075">
        <ele>25.6</ele>
        <time>2024-06-26T07:18:11Z</time>
      </trkpt>
      <trkpt lat="49.88529" lon="2.36076">
        <ele>25.6</ele>
        <time>2024-06-26T07:18:13Z</time>
      </trkpt>
      <trkpt lat="49.8853" lon="2.36077">
        <ele>25.6</ele>
        <time>2024-06-26T07:18:14Z</time>
      </trkpt>
      <trkpt lat="49.88531" lon="2.36078">
        <ele>25.5</ele>
        <time>2024-06-26T07:18:15Z</time>
      </trkpt>
      <trkpt lat="49.88531" lon="2.36079">
        <ele>25.5</ele>
        <time>2024-06-26T07:18:16Z</time>
      </trkpt>
      <trkpt lat="49.88532" lon="2.36081">
        <ele>25.5</ele>
        <time>2024-06-26T07:18:17Z</time>
      </trkpt>
      <trkpt lat="49.88533" lon="2.36082">
        <ele>25.5</ele>
        <time>2024-06-26T07:18:18Z</time>
      </trkpt>
      <trkpt lat="49.88533" lon="2.36083">
        <ele>25.5</ele>
        <time>2024-06-26T07:18:19Z</time>
      </trkpt>
      <trkpt lat="49.88534" lon="2.36084">
        <ele>25.5</ele>
        <time>2024-06-26T07:18:20Z</time>
      </trkpt>
      <trkpt lat="49.88534" lon="2.36085">
        <ele>25.5</ele>
        <time>2024-06-26T07:18:21Z</time>
      </trkpt>
      <trkpt lat="49.88534" lon="2.36086">
        <ele>25.5</ele>
        <time>2024-06-26T07:18:22Z</time>
      </trkpt>
      <trkpt lat="49.88535" lon="2.36087">
        <ele>25.5</ele>
        <time>2024-06-26T07:18:23Z</time>
      </trkpt>
      <trkpt lat="49.88536" lon="2.36088">
        <ele>25.5</ele>
        <time>2024-06-26T07:18:24Z</time>
      </trkpt>
      <trkpt lat="49.88536" lon="2.36089">
        <ele>25.5</ele>
        <time>2024-06-26T07:18:25Z</time>
      </trkpt>
      <trkpt lat="49.88537" lon="2.3609">
        <ele>25.5</ele>
        <time>2024-06-26T07:18:26Z</time>
      </trkpt>
      <trkpt lat="49.88537" lon="2.36091">
        <ele>25.5</ele>
        <time>2024-06-26T07:18:27Z</time>
      </trkpt>
      <trkpt lat="49.88537" lon="2.36092">
        <ele>25.5</ele>
        <time>2024-06-26T07:18:28Z</time>
      </trkpt>
      <trkpt lat="49.88538" lon="2.36093">
        <ele>25.5</ele>
        <time>2024-06-26T07:18:29Z</time>
      </trkpt>
      <trkpt lat="49.88538" lon="2.36094">
        <ele>25.5</ele>
        <time>2024-06-26T07:18:30Z</time>
      </trkpt>
      <trkpt lat="49.88539" lon="2.36095">
        <ele>25.5</ele>
        <time>2024-06-26T07:18:31Z</time>
      </trkpt>
      <trkpt lat="49.8854" lon="2.36096">
        <ele>25.5</ele>
        <time>2024-06-26T07:18:32Z</time>
      </trkpt>
      <trkpt lat="49.88541" lon="2.36097">
        <ele>25.5</ele>
        <time>2024-06-26T07:18:33Z</time>
      </trkpt>
      <trkpt lat="49.88541" lon="2.36099">
        <ele>25.5</ele>
        <time>2024-06-26T07:18:35Z</time>
      </trkpt>
      <trkpt lat="49.88541" lon="2.361">
        <ele>25.5</ele>
        <time>2024-06-26T07:18:36Z</time>
      </trkpt>
      <trkpt lat="49.88541" lon="2.36101">
        <ele>25.5</ele>
        <time>2024-06-26T07:18:37Z</time>
      </trkpt>
      <trkpt lat="49.88542" lon="2.36103">
        <ele>25.5</ele>
        <time>2024-06-26T07:18:38Z</time>
      </trkpt>
      <trkpt lat="49.88541" lon="2.36104">
        <ele>25.5</ele>
        <time>2024-06-26T07:18:39Z</time>
      </trkpt>
      <trkpt lat="49.88542" lon="2.36107">
        <ele>25.5</ele>
        <time>2024-06-26T07:18:40Z</time>
      </trkpt>
      <trkpt lat="49.88542" lon="2.36108">
        <ele>25.5</ele>
        <time>2024-06-26T07:18:42Z</time>
      </trkpt>
      <trkpt lat="49.88542" lon="2.3611">
        <ele>25.5</ele>
        <time>2024-06-26T07:18:43Z</time>
      </trkpt>
      <trkpt lat="49.88543" lon="2.36113">
        <ele>25.5</ele>
        <time>2024-06-26T07:18:44Z</time>
      </trkpt>
      <trkpt lat="49.88543" lon="2.36115">
        <ele>25.5</ele>
        <time>2024-06-26T07:18:46Z</time>
      </trkpt>
      <trkpt lat="49.88544" lon="2.36116">
        <ele>25.5</ele>
        <time>2024-06-26T07:18:47Z</time>
      </trkpt>
      <trkpt lat="49.88544" lon="2.36119">
        <ele>25.4</ele>
        <time>2024-06-26T07:18:48Z</time>
      </trkpt>
      <trkpt lat="49.88544" lon="2.3612">
        <ele>25.4</ele>
        <time>2024-06-26T07:18:49Z</time>
      </trkpt>
      <trkpt lat="49.88544" lon="2.36122">
        <ele>25.4</ele>
        <time>2024-06-26T07:18:50Z</time>
      </trkpt>
      <trkpt lat="49.88545" lon="2.36125">
        <ele>25.4</ele>
        <time>2024-06-26T07:18:51Z</time>
      </trkpt>
      <trkpt lat="49.88545" lon="2.36126">
        <ele>25.4</ele>
        <time>2024-06-26T07:18:52Z</time>
      </trkpt>
      <trkpt lat="49.88545" lon="2.36127">
        <ele>25.4</ele>
        <time>2024-06-26T07:18:53Z</time>
      </trkpt>
      <trkpt lat="49.88546" lon="2.36131">
        <ele>25.4</ele>
        <time>2024-06-26T07:18:54Z</time>
      </trkpt>
      <trkpt lat="49.88546" lon="2.36133">
        <ele>25.4</ele>
        <time>2024-06-26T07:18:55Z</time>
      </trkpt>
      <trkpt lat="49.88547" lon="2.36136">
        <ele>25.4</ele>
        <time>2024-06-26T07:18:57Z</time>
      </trkpt>
      <trkpt lat="49.88547" lon="2.36138">
        <ele>25.4</ele>
        <time>2024-06-26T07:18:58Z</time>
      </trkpt>
      <trkpt lat="49.88547" lon="2.36139">
        <ele>25.4</ele>
        <time>2024-06-26T07:18:59Z</time>
      </trkpt>
      <trkpt lat="49.88547" lon="2.36141">
        <ele>25.4</ele>
        <time>2024-06-26T07:19:00Z</time>
      </trkpt>
      <trkpt lat="49.88548" lon="2.36142">
        <ele>25.4</ele>
        <time>2024-06-26T07:19:01Z</time>
      </trkpt>
      <trkpt lat="49.88548" lon="2.36144">
        <ele>25.4</ele>
        <time>2024-06-26T07:19:02Z</time>
      </trkpt>
      <trkpt lat="49.88548" lon="2.36148">
        <ele>25.4</ele>
        <time>2024-06-26T07:19:03Z</time>
      </trkpt>
      <trkpt lat="49.88548" lon="2.36149">
        <ele>25.5</ele>
        <time>2024-06-26T07:19:04Z</time>
      </trkpt>
      <trkpt lat="49.88548" lon="2.3615">
        <ele>25.5</ele>
        <time>2024-06-26T07:19:05Z</time>
      </trkpt>
      <trkpt lat="49.88548" lon="2.36152">
        <ele>25.5</ele>
        <time>2024-06-26T07:19:06Z</time>
      </trkpt>
      <trkpt lat="49.88548" lon="2.36154">
        <ele>25.5</ele>
        <time>2024-06-26T07:19:07Z</time>
      </trkpt>
      <trkpt lat="49.88547" lon="2.36157">
        <ele>25.5</ele>
        <time>2024-06-26T07:19:08Z</time>
      </trkpt>
      <trkpt lat="49.88547" lon="2.3616">
        <ele>25.5</ele>
        <time>2024-06-26T07:19:10Z</time>
      </trkpt>
      <trkpt lat="49.88547" lon="2.36161">
        <ele>25.5</ele>
        <time>2024-06-26T07:19:11Z</time>
      </trkpt>
      <trkpt lat="49.88547" lon="2.36163">
        <ele>25.5</ele>
        <time>2024-06-26T07:19:12Z</time>
      </trkpt>
      <trkpt lat="49.88547" lon="2.36165">
        <ele>25.5</ele>
        <time>2024-06-26T07:19:13Z</time>
      </trkpt>
      <trkpt lat="49.88546" lon="2.36167">
        <ele>25.5</ele>
        <time>2024-06-26T07:19:14Z</time>
      </trkpt>
      <trkpt lat="49.88546" lon="2.36168">
        <ele>25.5</ele>
        <time>2024-06-26T07:19:15Z</time>
      </trkpt>
      <trkpt lat="49.88546" lon="2.3617">
        <ele>25.5</ele>
        <time>2024-06-26T07:19:16Z</time>
      </trkpt>
      <trkpt lat="49.88546" lon="2.36171">
        <ele>25.5</ele>
        <time>2024-06-26T07:19:17Z</time>
      </trkpt>
      <trkpt lat="49.88546" lon="2.36173">
        <ele>25.5</ele>
        <time>2024-06-26T07:19:18Z</time>
      </trkpt>
      <trkpt lat="49.88546" lon="2.36175">
        <ele>25.5</ele>
        <time>2024-06-26T07:19:19Z</time>
      </trkpt>
      <trkpt lat="49.88545" lon="2.36176">
        <ele>25.5</ele>
        <time>2024-06-26T07:19:20Z</time>
      </trkpt>
      <trkpt lat="49.88545" lon="2.36178">
        <ele>25.5</ele>
        <time>2024-06-26T07:19:21Z</time>
      </trkpt>
      <trkpt lat="49.88545" lon="2.36179">
        <ele>25.5</ele>
        <time>2024-06-26T07:19:22Z</time>
      </trkpt>
      <trkpt lat="49.88545" lon="2.36181">
        <ele>25.5</ele>
        <time>2024-06-26T07:19:23Z</time>
      </trkpt>
      <trkpt lat="49.88545" lon="2.36182">
        <ele>25.5</ele>
        <time>2024-06-26T07:19:24Z</time>
      </trkpt>
      <trkpt lat="49.88545" lon="2.36184">
        <ele>25.5</ele>
        <time>2024-06-26T07:19:25Z</time>
      </trkpt>
      <trkpt lat="49.88545" lon="2.36185">
        <ele>25.5</ele>
        <time>2024-06-26T07:19:26Z</time>
      </trkpt>
      <trkpt lat="49.88544" lon="2.36187">
        <ele>25.5</ele>
        <time>2024-06-26T07:19:27Z</time>
      </trkpt>
      <trkpt lat="49.88544" lon="2.36188">
        <ele>25.5</ele>
        <time>2024-06-26T07:19:28Z</time>
      </trkpt>
      <trkpt lat="49.88544" lon="2.36189">
        <ele>25.5</ele>
        <time>2024-06-26T07:19:29Z</time>
      </trkpt>
      <trkpt lat="49.88544" lon="2.36191">
        <ele>25.5</ele>
        <time>2024-06-26T07:19:30Z</time>
      </trkpt>
      <trkpt lat="49.88543" lon="2.36192">
        <ele>25.5</ele>
        <time>2024-06-26T07:19:31Z</time>
      </trkpt>
      <trkpt lat="49.88543" lon="2.36194">
        <ele>25.5</ele>
        <time>2024-06-26T07:19:32Z</time>
      </trkpt>
      <trkpt lat="49.88542" lon="2.36195">
        <ele>25.5</ele>
        <time>2024-06-26T07:19:33Z</time>
      </trkpt>
      <trkpt lat="49.88542" lon="2.36197">
        <ele>25.5</ele>
        <time>2024-06-26T07:19:34Z</time>
      </trkpt>
      <trkpt lat="49.88542" lon="2.36198">
        <ele>25.5</ele>
        <time>2024-06-26T07:19:35Z</time>
      </trkpt>
      <trkpt lat="49.88541" lon="2.36199">
        <ele>25.5</ele>
        <time>2024-06-26T07:19:36Z</time>
      </trkpt>
      <trkpt lat="49.88541" lon="2.36201">
        <ele>25.5</ele>
        <time>2024-06-26T07:19:37Z</time>
      </trkpt>
      <trkpt lat="49.8854" lon="2.36202">
        <ele>25.5</ele>
        <time>2024-06-26T07:19:38Z</time>
      </trkpt>
      <trkpt lat="49.88539" lon="2.36203">
        <ele>25.5</ele>
        <time>2024-06-26T07:19:39Z</time>
      </trkpt>
      <trkpt lat="49.88539" lon="2.36205">
        <ele>25.5</ele>
        <time>2024-06-26T07:19:40Z</time>
      </trkpt>
      <trkpt lat="49.88538" lon="2.36207">
        <ele>25.5</ele>
        <time>2024-06-26T07:19:41Z</time>
      </trkpt>
      <trkpt lat="49.88537" lon="2.36208">
        <ele>25.5</ele>
        <time>2024-06-26T07:19:43Z</time>
      </trkpt>
      <trkpt lat="49.88537" lon="2.3621">
        <ele>25.5</ele>
        <time>2024-06-26T07:19:44Z</time>
      </trkpt>
      <trkpt lat="49.88536" lon="2.36211">
        <ele>25.5</ele>
        <time>2024-06-26T07:19:45Z</time>
      </trkpt>
      <trkpt lat="49.88535" lon="2.36213">
        <ele>25.5</ele>
        <time>2024-06-26T07:19:46Z</time>
      </trkpt>
      <trkpt lat="49.88534" lon="2.36215">
        <ele>25.5</ele>
        <time>2024-06-26T07:19:47Z</time>
      </trkpt>
      <trkpt lat="49.88534" lon="2.36217">
        <ele>25.5</ele>
        <time>2024-06-26T07:19:49Z</time>
      </trkpt>
      <trkpt lat="49.88533" lon="2.36218">
        <ele>25.5</ele>
        <time>2024-06-26T07:19:50Z</time>
      </trkpt>
      <trkpt lat="49.88533" lon="2.36219">
        <ele>25.5</ele>
        <time>2024-06-26T07:19:51Z</time>
      </trkpt>
      <trkpt lat="49.88532" lon="2.36221">
        <ele>25.5</ele>
        <time>2024-06-26T07:19:52Z</time>
      </trkpt>
      <trkpt lat="49.88531" lon="2.36222">
        <ele>25.5</ele>
        <time>2024-06-26T07:19:53Z</time>
      </trkpt>
      <trkpt lat="49.88531" lon="2.36224">
        <ele>25.5</ele>
        <time>2024-06-26T07:19:54Z</time>
      </trkpt>
      <trkpt lat="49.8853" lon="2.36225">
        <ele>25.5</ele>
        <time>2024-06-26T07:19:55Z</time>
      </trkpt>
      <trkpt lat="49.8853" lon="2.36226">
        <ele>25.5</ele>
        <time>2024-06-26T07:19:56Z</time>
      </trkpt>
      <trkpt lat="49.88529" lon="2.36229">
        <ele>25.5</ele>
        <time>2024-06-26T07:19:57Z</time>
      </trkpt>
      <trkpt lat="49.88528" lon="2.36231">
        <ele>25.5</ele>
        <time>2024-06-26T07:19:59Z</time>
      </trkpt>
      <trkpt lat="49.88527" lon="2.36233">
        <ele>25.5</ele>
        <time>2024-06-26T07:20:00Z</time>
      </trkpt>
      <trkpt lat="49.88527" lon="2.36235">
        <ele>25.5</ele>
        <time>2024-06-26T07:20:02Z</time>
      </trkpt>
      <trkpt lat="49.88526" lon="2.36236">
        <ele>25.5</ele>
        <time>2024-06-26T07:20:03Z</time>
      </trkpt>
      <trkpt lat="49.88525" lon="2.36237">
        <ele>25.5</ele>
        <time>2024-06-26T07:20:04Z</time>
      </trkpt>
      <trkpt lat="49.88525" lon="2.36239">
        <ele>25.5</ele>
        <time>2024-06-26T07:20:05Z</time>
      </trkpt>
      <trkpt lat="49.88524" lon="2.3624">
        <ele>25.5</ele>
        <time>2024-06-26T07:20:06Z</time>
      </trkpt>
      <trkpt lat="49.88524" lon="2.36242">
        <ele>25.5</ele>
        <time>2024-06-26T07:20:07Z</time>
      </trkpt>
      <trkpt lat="49.88523" lon="2.36243">
        <ele>25.5</ele>
        <time>2024-06-26T07:20:08Z</time>
      </trkpt>
      <trkpt lat="49.88522" lon="2.36244">
        <ele>25.5</ele>
        <time>2024-06-26T07:20:09Z</time>
      </trkpt>
      <trkpt lat="49.88522" lon="2.36246">
        <ele>25.5</ele>
        <time>2024-06-26T07:20:10Z</time>
      </trkpt>
      <trkpt lat="49.88521" lon="2.36247">
        <ele>25.5</ele>
        <time>2024-06-26T07:20:11Z</time>
      </trkpt>
      <trkpt lat="49.88521" lon="2.36248">
        <ele>25.5</ele>
        <time>2024-06-26T07:20:12Z</time>
      </trkpt>
      <trkpt lat="49.8852" lon="2.3625">
        <ele>25.5</ele>
        <time>2024-06-26T07:20:13Z</time>
      </trkpt>
      <trkpt lat="49.88519" lon="2.36251">
        <ele>25.5</ele>
        <time>2024-06-26T07:20:14Z</time>
      </trkpt>
      <trkpt lat="49.88519" lon="2.36252">
        <ele>25.5</ele>
        <time>2024-06-26T07:20:15Z</time>
      </trkpt>
      <trkpt lat="49.88518" lon="2.36253">
        <ele>25.5</ele>
        <time>2024-06-26T07:20:16Z</time>
      </trkpt>
      <trkpt lat="49.88517" lon="2.36254">
        <ele>25.5</ele>
        <time>2024-06-26T07:20:17Z</time>
      </trkpt>
      <trkpt lat="49.88517" lon="2.36255">
        <ele>25.5</ele>
        <time>2024-06-26T07:20:18Z</time>
      </trkpt>
      <trkpt lat="49.88516" lon="2.36256">
        <ele>25.5</ele>
        <time>2024-06-26T07:20:19Z</time>
      </trkpt>
      <trkpt lat="49.88515" lon="2.36258">
        <ele>25.5</ele>
        <time>2024-06-26T07:20:20Z</time>
      </trkpt>
      <trkpt lat="49.88514" lon="2.36259">
        <ele>25.5</ele>
        <time>2024-06-26T07:20:21Z</time>
      </trkpt>
      <trkpt lat="49.88514" lon="2.3626">
        <ele>25.5</ele>
        <time>2024-06-26T07:20:22Z</time>
      </trkpt>
      <trkpt lat="49.88512" lon="2.36262">
        <ele>25.5</ele>
        <time>2024-06-26T07:20:23Z</time>
      </trkpt>
      <trkpt lat="49.88512" lon="2.36263">
        <ele>25.5</ele>
        <time>2024-06-26T07:20:25Z</time>
      </trkpt>
      <trkpt lat="49.8851" lon="2.36266">
        <ele>25.5</ele>
        <time>2024-06-26T07:20:26Z</time>
      </trkpt>
      <trkpt lat="49.88509" lon="2.36267">
        <ele>25.5</ele>
        <time>2024-06-26T07:20:28Z</time>
      </trkpt>
      <trkpt lat="49.88509" lon="2.36268">
        <ele>25.5</ele>
        <time>2024-06-26T07:20:29Z</time>
      </trkpt>
      <trkpt lat="49.88506" lon="2.36272">
        <ele>25.5</ele>
        <time>2024-06-26T07:20:30Z</time>
      </trkpt>
      <trkpt lat="49.88505" lon="2.36273">
        <ele>25.5</ele>
        <time>2024-06-26T07:20:32Z</time>
      </trkpt>
      <trkpt lat="49.88504" lon="2.36273">
        <ele>25.5</ele>
        <time>2024-06-26T07:20:33Z</time>
      </trkpt>
      <trkpt lat="49.88504" lon="2.36274">
        <ele>25.5</ele>
        <time>2024-06-26T07:20:34Z</time>
      </trkpt>
      <trkpt lat="49.88503" lon="2.36275">
        <ele>25.5</ele>
        <time>2024-06-26T07:20:35Z</time>
      </trkpt>
      <trkpt lat="49.88502" lon="2.36276">
        <ele>25.5</ele>
        <time>2024-06-26T07:20:36Z</time>
      </trkpt>
      <trkpt lat="49.88501" lon="2.36278">
        <ele>25.5</ele>
        <time>2024-06-26T07:20:37Z</time>
      </trkpt>
      <trkpt lat="49.88501" lon="2.36278">
        <ele>25.5</ele>
        <time>2024-06-26T07:20:38Z</time>
      </trkpt>
      <trkpt lat="49.885" lon="2.36279">
        <ele>25.5</ele>
        <time>2024-06-26T07:20:39Z</time>
      </trkpt>
      <trkpt lat="49.88499" lon="2.3628">
        <ele>25.5</ele>
        <time>2024-06-26T07:20:40Z</time>
      </trkpt>
      <trkpt lat="49.88498" lon="2.36281">
        <ele>25.5</ele>
        <time>2024-06-26T07:20:41Z</time>
      </trkpt>
      <trkpt lat="49.88497" lon="2.36282">
        <ele>25.5</ele>
        <time>2024-06-26T07:20:42Z</time>
      </trkpt>
      <trkpt lat="49.88497" lon="2.36283">
        <ele>25.5</ele>
        <time>2024-06-26T07:20:43Z</time>
      </trkpt>
      <trkpt lat="49.88496" lon="2.36284">
        <ele>25.5</ele>
        <time>2024-06-26T07:20:44Z</time>
      </trkpt>
      <trkpt lat="49.88495" lon="2.36285">
        <ele>25.5</ele>
        <time>2024-06-26T07:20:45Z</time>
      </trkpt>
      <trkpt lat="49.88493" lon="2.36287">
        <ele>25.5</ele>
        <time>2024-06-26T07:20:46Z</time>
      </trkpt>
      <trkpt lat="49.88492" lon="2.36287">
        <ele>25.5</ele>
        <time>2024-06-26T07:20:48Z</time>
      </trkpt>
      <trkpt lat="49.88492" lon="2.36288">
        <ele>25.5</ele>
        <time>2024-06-26T07:20:49Z</time>
      </trkpt>
      <trkpt lat="49.88491" lon="2.36288">
        <ele>25.5</ele>
        <time>2024-06-26T07:20:50Z</time>
      </trkpt>
      <trkpt lat="49.8849" lon="2.36289">
        <ele>25.5</ele>
        <time>2024-06-26T07:20:51Z</time>
      </trkpt>
      <trkpt lat="49.88489" lon="2.3629">
        <ele>25.5</ele>
        <time>2024-06-26T07:20:52Z</time>
      </trkpt>
      <trkpt lat="49.88488" lon="2.3629">
        <ele>25.5</ele>
        <time>2024-06-26T07:20:53Z</time>
      </trkpt>
      <trkpt lat="49.88486" lon="2.36292">
        <ele>25.5</ele>
        <time>2024-06-26T07:20:54Z</time>
      </trkpt>
      <trkpt lat="49.88485" lon="2.36292">
        <ele>25.5</ele>
        <time>2024-06-26T07:20:55Z</time>
      </trkpt>
      <trkpt lat="49.88485" lon="2.36293">
        <ele>25.5</ele>
        <time>2024-06-26T07:20:56Z</time>
      </trkpt>
      <trkpt lat="49.88484" lon="2.36293">
        <ele>25.5</ele>
        <time>2024-06-26T07:20:58Z</time>
      </trkpt>
      <trkpt lat="49.88483" lon="2.36294">
        <ele>25.5</ele>
        <time>2024-06-26T07:20:59Z</time>
      </trkpt>
      <trkpt lat="49.88482" lon="2.36295">
        <ele>25.5</ele>
        <time>2024-06-26T07:21:00Z</time>
      </trkpt>
      <trkpt lat="49.88481" lon="2.36295">
        <ele>25.4</ele>
        <time>2024-06-26T07:21:01Z</time>
      </trkpt>
      <trkpt lat="49.8848" lon="2.36296">
        <ele>25.4</ele>
        <time>2024-06-26T07:21:02Z</time>
      </trkpt>
      <trkpt lat="49.88479" lon="2.36296">
        <ele>25.4</ele>
        <time>2024-06-26T07:21:03Z</time>
      </trkpt>
      <trkpt lat="49.88479" lon="2.36297">
        <ele>25.4</ele>
        <time>2024-06-26T07:21:04Z</time>
      </trkpt>
      <trkpt lat="49.88478" lon="2.36297">
        <ele>25.4</ele>
        <time>2024-06-26T07:21:05Z</time>
      </trkpt>
      <trkpt lat="49.88477" lon="2.36297">
        <ele>25.4</ele>
        <time>2024-06-26T07:21:06Z</time>
      </trkpt>
      <trkpt lat="49.88476" lon="2.36297">
        <ele>25.4</ele>
        <time>2024-06-26T07:21:07Z</time>
      </trkpt>
      <trkpt lat="49.88475" lon="2.36297">
        <ele>25.4</ele>
        <time>2024-06-26T07:21:08Z</time>
      </trkpt>
      <trkpt lat="49.88475" lon="2.36298">
        <ele>25.4</ele>
        <time>2024-06-26T07:21:09Z</time>
      </trkpt>
      <trkpt lat="49.88474" lon="2.36298">
        <ele>25.4</ele>
        <time>2024-06-26T07:21:10Z</time>
      </trkpt>
      <trkpt lat="49.88473" lon="2.36299">
        <ele>25.4</ele>
        <time>2024-06-26T07:21:11Z</time>
      </trkpt>
      <trkpt lat="49.88473" lon="2.363">
        <ele>25.4</ele>
        <time>2024-06-26T07:21:12Z</time>
      </trkpt>
      <trkpt lat="49.88472" lon="2.36301">
        <ele>25.4</ele>
        <time>2024-06-26T07:21:13Z</time>
      </trkpt>
      <trkpt lat="49.88471" lon="2.36301">
        <ele>25.4</ele>
        <time>2024-06-26T07:21:15Z</time>
      </trkpt>
      <trkpt lat="49.8847" lon="2.36303">
        <ele>25.4</ele>
        <time>2024-06-26T07:21:16Z</time>
      </trkpt>
      <trkpt lat="49.8847" lon="2.36304">
        <ele>25.4</ele>
        <time>2024-06-26T07:21:18Z</time>
      </trkpt>
      <trkpt lat="49.88469" lon="2.36305">
        <ele>25.4</ele>
        <time>2024-06-26T07:21:19Z</time>
      </trkpt>
      <trkpt lat="49.88469" lon="2.36305">
        <ele>25.4</ele>
        <time>2024-06-26T07:21:20Z</time>
      </trkpt>
      <trkpt lat="49.88468" lon="2.36306">
        <ele>25.4</ele>
        <time>2024-06-26T07:21:21Z</time>
      </trkpt>
      <trkpt lat="49.88468" lon="2.36307">
        <ele>25.4</ele>
        <time>2024-06-26T07:21:22Z</time>
      </trkpt>
      <trkpt lat="49.88467" lon="2.36309">
        <ele>25.4</ele>
        <time>2024-06-26T07:21:23Z</time>
      </trkpt>
      <trkpt lat="49.88466" lon="2.36309">
        <ele>25.4</ele>
        <time>2024-06-26T07:21:25Z</time>
      </trkpt>
      <trkpt lat="49.88466" lon="2.3631">
        <ele>25.4</ele>
        <time>2024-06-26T07:21:26Z</time>
      </trkpt>
      <trkpt lat="49.88465" lon="2.36311">
        <ele>25.4</ele>
        <time>2024-06-26T07:21:27Z</time>
      </trkpt>
      <trkpt lat="49.88464" lon="2.36312">
        <ele>25.4</ele>
        <time>2024-06-26T07:21:28Z</time>
      </trkpt>
      <trkpt lat="49.88463" lon="2.36314">
        <ele>25.4</ele>
        <time>2024-06-26T07:21:29Z</time>
      </trkpt>
      <trkpt lat="49.88462" lon="2.36314">
        <ele>25.5</ele>
        <time>2024-06-26T07:21:31Z</time>
      </trkpt>
      <trkpt lat="49.88461" lon="2.36315">
        <ele>25.5</ele>
        <time>2024-06-26T07:21:32Z</time>
      </trkpt>
      <trkpt lat="49.8846" lon="2.36316">
        <ele>25.5</ele>
        <time>2024-06-26T07:21:33Z</time>
      </trkpt>
      <trkpt lat="49.8846" lon="2.36317">
        <ele>25.5</ele>
        <time>2024-06-26T07:21:34Z</time>
      </trkpt>
      <trkpt lat="49.88459" lon="2.36318">
        <ele>25.5</ele>
        <time>2024-06-26T07:21:35Z</time>
      </trkpt>
      <trkpt lat="49.88457" lon="2.3632">
        <ele>25.5</ele>
        <time>2024-06-26T07:21:36Z</time>
      </trkpt>
      <trkpt lat="49.88456" lon="2.36322">
        <ele>25.5</ele>
        <time>2024-06-26T07:21:38Z</time>
      </trkpt>
      <trkpt lat="49.88455" lon="2.36322">
        <ele>25.5</ele>
        <time>2024-06-26T07:21:39Z</time>
      </trkpt>
      <trkpt lat="49.88455" lon="2.36323">
        <ele>25.5</ele>
        <time>2024-06-26T07:21:40Z</time>
      </trkpt>
      <trkpt lat="49.88454" lon="2.36325">
        <ele>25.5</ele>
        <time>2024-06-26T07:21:41Z</time>
      </trkpt>
      <trkpt lat="49.88453" lon="2.36326">
        <ele>25.5</ele>
        <time>2024-06-26T07:21:42Z</time>
      </trkpt>
      <trkpt lat="49.88453" lon="2.36327">
        <ele>25.5</ele>
        <time>2024-06-26T07:21:43Z</time>
      </trkpt>
      <trkpt lat="49.88453" lon="2.36328">
        <ele>25.5</ele>
        <time>2024-06-26T07:21:44Z</time>
      </trkpt>
      <trkpt lat="49.88453" lon="2.36329">
        <ele>25.5</ele>
        <time>2024-06-26T07:21:45Z</time>
      </trkpt>
      <trkpt lat="49.88453" lon="2.3633">
        <ele>25.5</ele>
        <time>2024-06-26T07:21:46Z</time>
      </trkpt>
      <trkpt lat="49.88453" lon="2.36332">
        <ele>25.5</ele>
        <time>2024-06-26T07:21:47Z</time>
      </trkpt>
      <trkpt lat="49.88452" lon="2.36333">
        <ele>25.5</ele>
        <time>2024-06-26T07:21:48Z</time>
      </trkpt>
      <trkpt lat="49.88451" lon="2.36334">
        <ele>25.5</ele>
        <time>2024-06-26T07:21:49Z</time>
      </trkpt>
      <trkpt lat="49.88451" lon="2.36335">
        <ele>25.5</ele>
        <time>2024-06-26T07:21:50Z</time>
      </trkpt>
      <trkpt lat="49.8845" lon="2.36336">
        <ele>25.5</ele>
        <time>2024-06-26T07:21:51Z</time>
      </trkpt>
      <trkpt lat="49.88449" lon="2.36337">
        <ele>25.5</ele>
        <time>2024-06-26T07:21:52Z</time>
      </trkpt>
      <trkpt lat="49.88449" lon="2.36337">
        <ele>25.5</ele>
        <time>2024-06-26T07:21:53Z</time>
      </trkpt>
      <trkpt lat="49.88448" lon="2.36338">
        <ele>25.5</ele>
        <time>2024-06-26T07:21:54Z</time>
      </trkpt>
      <trkpt lat="49.88447" lon="2.36338">
        <ele>25.5</ele>
        <time>2024-06-26T07:21:55Z</time>
      </trkpt>
      <trkpt lat="49.88447" lon="2.36339">
        <ele>25.5</ele>
        <time>2024-06-26T07:21:56Z</time>
      </trkpt>
      <trkpt lat="49.88445" lon="2.3634">
        <ele>25.5</ele>
        <time>2024-06-26T07:21:57Z</time>
      </trkpt>
      <trkpt lat="49.88444" lon="2.36341">
        <ele>25.5</ele>
        <time>2024-06-26T07:21:59Z</time>
      </trkpt>
      <trkpt lat="49.88443" lon="2.36341">
        <ele>25.5</ele>
        <time>2024-06-26T07:22:00Z</time>
      </trkpt>
      <trkpt lat="49.88443" lon="2.36342">
        <ele>25.6</ele>
        <time>2024-06-26T07:22:01Z</time>
      </trkpt>
      <trkpt lat="49.88442" lon="2.36343">
        <ele>25.6</ele>
        <time>2024-06-26T07:22:02Z</time>
      </trkpt>
      <trkpt lat="49.88441" lon="2.36344">
        <ele>25.6</ele>
        <time>2024-06-26T07:22:03Z</time>
      </trkpt>
      <trkpt lat="49.8844" lon="2.36345">
        <ele>25.6</ele>
        <time>2024-06-26T07:22:04Z</time>
      </trkpt>
      <trkpt lat="49.8844" lon="2.36346">
        <ele>25.6</ele>
        <time>2024-06-26T07:22:05Z</time>
      </trkpt>
      <trkpt lat="49.88439" lon="2.36347">
        <ele>25.6</ele>
        <time>2024-06-26T07:22:06Z</time>
      </trkpt>
      <trkpt lat="49.88438" lon="2.36348">
        <ele>25.6</ele>
        <time>2024-06-26T07:22:07Z</time>
      </trkpt>
      <trkpt lat="49.88437" lon="2.36349">
        <ele>25.6</ele>
        <time>2024-06-26T07:22:08Z</time>
      </trkpt>
      <trkpt lat="49.88436" lon="2.3635">
        <ele>25.6</ele>
        <time>2024-06-26T07:22:09Z</time>
      </trkpt>
      <trkpt lat="49.88436" lon="2.36352">
        <ele>25.6</ele>
        <time>2024-06-26T07:22:10Z</time>
      </trkpt>
      <trkpt lat="49.88435" lon="2.36353">
        <ele>25.6</ele>
        <time>2024-06-26T07:22:11Z</time>
      </trkpt>
      <trkpt lat="49.88434" lon="2.36354">
        <ele>25.6</ele>
        <time>2024-06-26T07:22:12Z</time>
      </trkpt>
      <trkpt lat="49.88433" lon="2.36355">
        <ele>25.6</ele>
        <time>2024-06-26T07:22:13Z</time>
      </trkpt>
      <trkpt lat="49.88432" lon="2.36358">
        <ele>25.6</ele>
        <time>2024-06-26T07:22:14Z</time>
      </trkpt>
      <trkpt lat="49.88431" lon="2.3636">
        <ele>25.6</ele>
        <time>2024-06-26T07:22:16Z</time>
      </trkpt>
      <trkpt lat="49.8843" lon="2.36361">
        <ele>25.6</ele>
        <time>2024-06-26T07:22:17Z</time>
      </trkpt>
      <trkpt lat="49.8843" lon="2.36363">
        <ele>25.6</ele>
        <time>2024-06-26T07:22:18Z</time>
      </trkpt>
      <trkpt lat="49.88429" lon="2.36364">
        <ele>25.6</ele>
        <time>2024-06-26T07:22:19Z</time>
      </trkpt>
      <trkpt lat="49.88429" lon="2.36366">
        <ele>25.6</ele>
        <time>2024-06-26T07:22:20Z</time>
      </trkpt>
      <trkpt lat="49.88428" lon="2.36369">
        <ele>25.6</ele>
        <time>2024-06-26T07:22:21Z</time>
      </trkpt>
      <trkpt lat="49.88428" lon="2.36371">
        <ele>25.6</ele>
        <time>2024-06-26T07:22:23Z</time>
      </trkpt>
      <trkpt lat="49.88428" lon="2.36372">
        <ele>25.6</ele>
        <time>2024-06-26T07:22:24Z</time>
      </trkpt>
      <trkpt lat="49.88427" lon="2.36374">
        <ele>25.6</ele>
        <time>2024-06-26T07:22:25Z</time>
      </trkpt>
      <trkpt lat="49.88427" lon="2.36375">
        <ele>25.6</ele>
        <time>2024-06-26T07:22:26Z</time>
      </trkpt>
      <trkpt lat="49.88427" lon="2.36378">
        <ele>25.6</ele>
        <time>2024-06-26T07:22:27Z</time>
      </trkpt>
      <trkpt lat="49.88427" lon="2.36379">
        <ele>25.6</ele>
        <time>2024-06-26T07:22:29Z</time>
      </trkpt>
      <trkpt lat="49.88426" lon="2.36381">
        <ele>25.6</ele>
        <time>2024-06-26T07:22:30Z</time>
      </trkpt>
      <trkpt lat="49.88426" lon="2.36382">
        <ele>25.6</ele>
        <time>2024-06-26T07:22:31Z</time>
      </trkpt>
      <trkpt lat="49.88426" lon="2.36384">
        <ele>25.6</ele>
        <time>2024-06-26T07:22:32Z</time>
      </trkpt>
      <trkpt lat="49.88426" lon="2.36386">
        <ele>25.6</ele>
        <time>2024-06-26T07:22:33Z</time>
      </trkpt>
      <trkpt lat="49.88425" lon="2.36387">
        <ele>25.6</ele>
        <time>2024-06-26T07:22:34Z</time>
      </trkpt>
      <trkpt lat="49.88425" lon="2.36389">
        <ele>25.6</ele>
        <time>2024-06-26T07:22:35Z</time>
      </trkpt>
      <trkpt lat="49.88425" lon="2.3639">
        <ele>25.6</ele>
        <time>2024-06-26T07:22:36Z</time>
      </trkpt>
      <trkpt lat="49.88424" lon="2.36393">
        <ele>25.6</ele>
        <time>2024-06-26T07:22:37Z</time>
      </trkpt>
      <trkpt lat="49.88424" lon="2.36395">
        <ele>25.6</ele>
        <time>2024-06-26T07:22:39Z</time>
      </trkpt>
      <trkpt lat="49.88423" lon="2.36396">
        <ele>25.6</ele>
        <time>2024-06-26T07:22:40Z</time>
      </trkpt>
      <trkpt lat="49.88423" lon="2.36398">
        <ele>25.6</ele>
        <time>2024-06-26T07:22:41Z</time>
      </trkpt>
      <trkpt lat="49.88423" lon="2.36399">
        <ele>25.6</ele>
        <time>2024-06-26T07:22:42Z</time>
      </trkpt>
      <trkpt lat="49.88422" lon="2.36402">
        <ele>25.6</ele>
        <time>2024-06-26T07:22:43Z</time>
      </trkpt>
      <trkpt lat="49.88422" lon="2.36404">
        <ele>25.6</ele>
        <time>2024-06-26T07:22:45Z</time>
      </trkpt>
      <trkpt lat="49.88421" lon="2.36407">
        <ele>25.6</ele>
        <time>2024-06-26T07:22:46Z</time>
      </trkpt>
      <trkpt lat="49.88421" lon="2.36409">
        <ele>25.6</ele>
        <time>2024-06-26T07:22:48Z</time>
      </trkpt>
      <trkpt lat="49.88421" lon="2.3641">
        <ele>25.6</ele>
        <time>2024-06-26T07:22:49Z</time>
      </trkpt>
      <trkpt lat="49.8842" lon="2.36412">
        <ele>25.6</ele>
        <time>2024-06-26T07:22:50Z</time>
      </trkpt>
      <trkpt lat="49.8842" lon="2.36413">
        <ele>25.6</ele>
        <time>2024-06-26T07:22:51Z</time>
      </trkpt>
      <trkpt lat="49.8842" lon="2.36415">
        <ele>25.6</ele>
        <time>2024-06-26T07:22:52Z</time>
      </trkpt>
      <trkpt lat="49.8842" lon="2.36417">
        <ele>25.6</ele>
        <time>2024-06-26T07:22:53Z</time>
      </trkpt>
      <trkpt lat="49.8842" lon="2.36418">
        <ele>25.6</ele>
        <time>2024-06-26T07:22:54Z</time>
      </trkpt>
      <trkpt lat="49.88419" lon="2.36419">
        <ele>25.6</ele>
        <time>2024-06-26T07:22:55Z</time>
      </trkpt>
      <trkpt lat="49.88419" lon="2.36421">
        <ele>25.6</ele>
        <time>2024-06-26T07:22:56Z</time>
      </trkpt>
      <trkpt lat="49.88419" lon="2.36422">
        <ele>25.6</ele>
        <time>2024-06-26T07:22:57Z</time>
      </trkpt>
      <trkpt lat="49.88419" lon="2.36424">
        <ele>25.6</ele>
        <time>2024-06-26T07:22:58Z</time>
      </trkpt>
      <trkpt lat="49.88419" lon="2.36427">
        <ele>25.5</ele>
        <time>2024-06-26T07:22:59Z</time>
      </trkpt>
      <trkpt lat="49.88418" lon="2.36428">
        <ele>25.5</ele>
        <time>2024-06-26T07:23:01Z</time>
      </trkpt>
      <trkpt lat="49.88418" lon="2.3643">
        <ele>25.5</ele>
        <time>2024-06-26T07:23:02Z</time>
      </trkpt>
      <trkpt lat="49.88418" lon="2.36432">
        <ele>25.5</ele>
        <time>2024-06-26T07:23:03Z</time>
      </trkpt>
      <trkpt lat="49.88418" lon="2.36433">
        <ele>25.5</ele>
        <time>2024-06-26T07:23:04Z</time>
      </trkpt>
      <trkpt lat="49.88418" lon="2.36435">
        <ele>25.5</ele>
        <time>2024-06-26T07:23:05Z</time>
      </trkpt>
      <trkpt lat="49.88417" lon="2.36436">
        <ele>25.5</ele>
        <time>2024-06-26T07:23:06Z</time>
      </trkpt>
      <trkpt lat="49.88417" lon="2.36438">
        <ele>25.5</ele>
        <time>2024-06-26T07:23:07Z</time>
      </trkpt>
      <trkpt lat="49.88417" lon="2.36439">
        <ele>25.5</ele>
        <time>2024-06-26T07:23:08Z</time>
      </trkpt>
      <trkpt lat="49.88417" lon="2.36441">
        <ele>25.5</ele>
        <time>2024-06-26T07:23:09Z</time>
      </trkpt>
      <trkpt lat="49.88417" lon="2.36442">
        <ele>25.5</ele>
        <time>2024-06-26T07:23:10Z</time>
      </trkpt>
      <trkpt lat="49.88416" lon="2.36445">
        <ele>25.5</ele>
        <time>2024-06-26T07:23:11Z</time>
      </trkpt>
      <trkpt lat="49.88416" lon="2.36446">
        <ele>25.5</ele>
        <time>2024-06-26T07:23:13Z</time>
      </trkpt>
      <trkpt lat="49.88416" lon="2.36448">
        <ele>25.5</ele>
        <time>2024-06-26T07:23:14Z</time>
      </trkpt>
      <trkpt lat="49.88415" lon="2.36449">
        <ele>25.5</ele>
        <time>2024-06-26T07:23:15Z</time>
      </trkpt>
      <trkpt lat="49.88415" lon="2.36452">
        <ele>25.5</ele>
        <time>2024-06-26T07:23:16Z</time>
      </trkpt>
      <trkpt lat="49.88415" lon="2.36453">
        <ele>25.5</ele>
        <time>2024-06-26T07:23:18Z</time>
      </trkpt>
      <trkpt lat="49.88415" lon="2.36455">
        <ele>25.5</ele>
        <time>2024-06-26T07:23:19Z</time>
      </trkpt>
      <trkpt lat="49.88414" lon="2.36456">
        <ele>25.5</ele>
        <time>2024-06-26T07:23:20Z</time>
      </trkpt>
      <trkpt lat="49.88414" lon="2.36457">
        <ele>25.5</ele>
        <time>2024-06-26T07:23:21Z</time>
      </trkpt>
      <trkpt lat="49.88414" lon="2.36458">
        <ele>25.5</ele>
        <time>2024-06-26T07:23:22Z</time>
      </trkpt>
      <trkpt lat="49.88414" lon="2.36459">
        <ele>25.5</ele>
        <time>2024-06-26T07:23:23Z</time>
      </trkpt>
      <trkpt lat="49.88413" lon="2.36459">
        <ele>25.5</ele>
        <time>2024-06-26T07:23:24Z</time>
      </trkpt>
      <trkpt lat="49.88413" lon="2.3646">
        <ele>25.5</ele>
        <time>2024-06-26T07:23:25Z</time>
      </trkpt>
      <trkpt lat="49.88413" lon="2.36461">
        <ele>25.5</ele>
        <time>2024-06-26T07:23:26Z</time>
      </trkpt>
      <trkpt lat="49.88413" lon="2.36461">
        <ele>25.5</ele>
        <time>2024-06-26T07:23:27Z</time>
      </trkpt>
      <trkpt lat="49.88413" lon="2.36462">
        <ele>25.5</ele>
        <time>2024-06-26T07:23:28Z</time>
      </trkpt>
      <trkpt lat="49.88413" lon="2.36462">
        <ele>25.5</ele>
        <time>2024-06-26T07:23:29Z</time>
      </trkpt>
      <trkpt lat="49.88413" lon="2.36462">
        <ele>25.5</ele>
        <time>2024-06-26T07:23:30Z</time>
      </trkpt>
      <trkpt lat="49.88414" lon="2.36462">
        <ele>25.5</ele>
        <time>2024-06-26T07:23:31Z</time>
      </trkpt>
      <trkpt lat="49.88414" lon="2.36463">
        <ele>25.5</ele>
        <time>2024-06-26T07:23:32Z</time>
      </trkpt>
      <trkpt lat="49.88413" lon="2.36464">
        <ele>25.5</ele>
        <time>2024-06-26T07:23:33Z</time>
      </trkpt>
      <trkpt lat="49.88413" lon="2.36464">
        <ele>25.5</ele>
        <time>2024-06-26T07:23:34Z</time>
      </trkpt>
      <trkpt lat="49.88413" lon="2.36464">
        <ele>25.5</ele>
        <time>2024-06-26T07:23:35Z</time>
      </trkpt>
      <trkpt lat="49.88413" lon="2.36464">
        <ele>25.5</ele>
        <time>2024-06-26T07:23:36Z</time>
      </trkpt>
      <trkpt lat="49.88413" lon="2.36464">
        <ele>25.5</ele>
        <time>2024-06-26T07:23:37Z</time>
      </trkpt>
      <trkpt lat="49.88413" lon="2.36464">
        <ele>25.5</ele>
        <time>2024-06-26T07:23:38Z</time>
      </trkpt>
      <trkpt lat="49.88413" lon="2.36464">
        <ele>25.5</ele>
        <time>2024-06-26T07:23:39Z</time>
      </trkpt>
      <trkpt lat="49.88413" lon="2.36464">
        <ele>25.5</ele>
        <time>2024-06-26T07:23:40Z</time>
      </trkpt>
      <trkpt lat="49.88413" lon="2.36464">
        <ele>25.5</ele>
        <time>2024-06-26T07:23:41Z</time>
      </trkpt>
      <trkpt lat="49.88413" lon="2.36464">
        <ele>25.5</ele>
        <time>2024-06-26T07:23:42Z</time>
      </trkpt>
      <trkpt lat="49.88413" lon="2.36464">
        <ele>25.5</ele>
        <time>2024-06-26T07:23:43Z</time>
      </trkpt>
      <trkpt lat="49.88413" lon="2.36464">
        <ele>25.5</ele>
        <time>2024-06-26T07:23:44Z</time>
      </trkpt>
      <trkpt lat="49.88413" lon="2.36464">
        <ele>25.5</ele>
        <time>2024-06-26T07:23:45Z</time>
      </trkpt>
      <trkpt lat="49.88413" lon="2.36464">
        <ele>25.5</ele>
        <time>2024-06-26T07:23:46Z</time>
      </trkpt>
      <trkpt lat="49.88413" lon="2.36464">
        <ele>25.5</ele>
        <time>2024-06-26T07:23:47Z</time>
      </trkpt>
      <trkpt lat="49.88413" lon="2.36464">
        <ele>25.5</ele>
        <time>2024-06-26T07:23:48Z</time>
      </trkpt>
      <trkpt lat="49.88413" lon="2.36464">
        <ele>25.5</ele>
        <time>2024-06-26T07:23:49Z</time>
      </trkpt>
      <trkpt lat="49.88413" lon="2.36464">
        <ele>25.5</ele>
        <time>2024-06-26T07:23:50Z</time>
      </trkpt>
      <trkpt lat="49.88413" lon="2.36464">
        <ele>25.5</ele>
        <time>2024-06-26T07:23:51Z</time>
      </trkpt>
      <trkpt lat="49.88413" lon="2.36464">
        <ele>25.5</ele>
        <time>2024-06-26T07:23:52Z</time>
      </trkpt>
      <trkpt lat="49.88413" lon="2.36464">
        <ele>25.5</ele>
        <time>2024-06-26T07:23:53Z</time>
      </trkpt>
      <trkpt lat="49.88413" lon="2.36464">
        <ele>25.5</ele>
        <time>2024-06-26T07:23:54Z</time>
      </trkpt>
      <trkpt lat="49.88413" lon="2.36464">
        <ele>25.5</ele>
        <time>2024-06-26T07:23:55Z</time>
      </trkpt>
      <trkpt lat="49.88414" lon="2.3646">
        <ele>25.5</ele>
        <time>2024-06-26T07:23:56Z</time>
      </trkpt>
      <trkpt lat="49.88414" lon="2.36459">
        <ele>25.5</ele>
        <time>2024-06-26T07:23:57Z</time>
      </trkpt>
      <trkpt lat="49.88414" lon="2.36459">
        <ele>25.5</ele>
        <time>2024-06-26T07:23:58Z</time>
      </trkpt>
      <trkpt lat="49.88414" lon="2.36459">
        <ele>25.5</ele>
        <time>2024-06-26T07:23:59Z</time>
      </trkpt>
      <trkpt lat="49.88414" lon="2.36459">
        <ele>25.5</ele>
        <time>2024-06-26T07:24:00Z</time>
      </trkpt>
      <trkpt lat="49.88414" lon="2.36459">
        <ele>25.5</ele>
        <time>2024-06-26T07:24:01Z</time>
      </trkpt>
      <trkpt lat="49.88414" lon="2.36459">
        <ele>25.5</ele>
        <time>2024-06-26T07:24:02Z</time>
      </trkpt>
      <trkpt lat="49.88414" lon="2.36459">
        <ele>25.5</ele>
        <time>2024-06-26T07:24:03Z</time>
      </trkpt>
      <trkpt lat="49.88414" lon="2.36458">
        <ele>25.5</ele>
        <time>2024-06-26T07:24:04Z</time>
      </trkpt>
      <trkpt lat="49.88414" lon="2.36458">
        <ele>25.5</ele>
        <time>2024-06-26T07:24:05Z</time>
      </trkpt>
      <trkpt lat="49.88414" lon="2.36458">
        <ele>25.5</ele>
        <time>2024-06-26T07:24:06Z</time>
      </trkpt>
      <trkpt lat="49.88414" lon="2.36458">
        <ele>25.5</ele>
        <time>2024-06-26T07:24:07Z</time>
      </trkpt>
      <trkpt lat="49.88414" lon="2.36458">
        <ele>25.5</ele>
        <time>2024-06-26T07:24:08Z</time>
      </trkpt>
      <trkpt lat="49.88414" lon="2.36458">
        <ele>25.5</ele>
        <time>2024-06-26T07:24:09Z</time>
      </trkpt>
      <trkpt lat="49.88414" lon="2.36458">
        <ele>25.5</ele>
        <time>2024-06-26T07:24:10Z</time>
      </trkpt>
      <trkpt lat="49.88414" lon="2.36458">
        <ele>25.5</ele>
        <time>2024-06-26T07:24:11Z</time>
      </trkpt>
      <trkpt lat="49.88414" lon="2.36458">
        <ele>25.5</ele>
        <time>2024-06-26T07:24:12Z</time>
      </trkpt>
      <trkpt lat="49.88414" lon="2.36458">
        <ele>25.5</ele>
        <time>2024-06-26T07:24:13Z</time>
      </trkpt>
      <trkpt lat="49.88414" lon="2.36458">
        <ele>25.5</ele>
        <time>2024-06-26T07:24:14Z</time>
      </trkpt>
      <trkpt lat="49.88414" lon="2.36458">
        <ele>25.5</ele>
        <time>2024-06-26T07:24:15Z</time>
      </trkpt>
      <trkpt lat="49.88414" lon="2.36458">
        <ele>25.5</ele>
        <time>2024-06-26T07:24:16Z</time>
      </trkpt>
      <trkpt lat="49.88414" lon="2.36458">
        <ele>25.5</ele>
        <time>2024-06-26T07:24:17Z</time>
      </trkpt>
      <trkpt lat="49.88414" lon="2.36457">
        <ele>25.5</ele>
        <time>2024-06-26T07:24:18Z</time>
      </trkpt>
      <trkpt lat="49.88415" lon="2.36457">
        <ele>25.5</ele>
        <time>2024-06-26T07:24:19Z</time>
      </trkpt>
      <trkpt lat="49.88415" lon="2.36457">
        <ele>25.5</ele>
        <time>2024-06-26T07:24:20Z</time>
      </trkpt>
      <trkpt lat="49.88415" lon="2.36457">
        <ele>25.5</ele>
        <time>2024-06-26T07:24:21Z</time>
      </trkpt>
      <trkpt lat="49.88414" lon="2.36456">
        <ele>25.5</ele>
        <time>2024-06-26T07:24:22Z</time>
      </trkpt>
      <trkpt lat="49.88414" lon="2.36456">
        <ele>25.5</ele>
        <time>2024-06-26T07:24:23Z</time>
      </trkpt>
      <trkpt lat="49.88414" lon="2.36456">
        <ele>25.5</ele>
        <time>2024-06-26T07:24:24Z</time>
      </trkpt>
      <trkpt lat="49.88414" lon="2.36456">
        <ele>25.5</ele>
        <time>2024-06-26T07:24:25Z</time>
      </trkpt>
      <trkpt lat="49.88414" lon="2.36456">
        <ele>25.5</ele>
        <time>2024-06-26T07:24:26Z</time>
      </trkpt>
      <trkpt lat="49.88414" lon="2.36456">
        <ele>25.5</ele>
        <time>2024-06-26T07:24:27Z</time>
      </trkpt>
      <trkpt lat="49.88414" lon="2.36456">
        <ele>25.5</ele>
        <time>2024-06-26T07:24:28Z</time>
      </trkpt>
      <trkpt lat="49.88414" lon="2.36456">
        <ele>25.5</ele>
        <time>2024-06-26T07:24:29Z</time>
      </trkpt>
      <trkpt lat="49.88414" lon="2.36456">
        <ele>25.5</ele>
        <time>2024-06-26T07:24:30Z</time>
      </trkpt>
      <trkpt lat="49.88414" lon="2.36456">
        <ele>25.5</ele>
        <time>2024-06-26T07:24:31Z</time>
      </trkpt>
      <trkpt lat="49.88414" lon="2.36456">
        <ele>25.5</ele>
        <time>2024-06-26T07:24:32Z</time>
      </trkpt>
      <trkpt lat="49.88414" lon="2.36456">
        <ele>25.5</ele>
        <time>2024-06-26T07:24:33Z</time>
      </trkpt>
      <trkpt lat="49.88414" lon="2.36456">
        <ele>25.5</ele>
        <time>2024-06-26T07:24:34Z</time>
      </trkpt>
      <trkpt lat="49.88414" lon="2.36456">
        <ele>25.5</ele>
        <time>2024-06-26T07:24:35Z</time>
      </trkpt>
      <trkpt lat="49.88414" lon="2.36456">
        <ele>25.5</ele>
        <time>2024-06-26T07:24:36Z</time>
      </trkpt>
      <trkpt lat="49.88414" lon="2.36456">
        <ele>25.5</ele>
        <time>2024-06-26T07:24:37Z</time>
      </trkpt>
      <trkpt lat="49.88414" lon="2.36456">
        <ele>25.5</ele>
        <time>2024-06-26T07:24:38Z</time>
      </trkpt>
      <trkpt lat="49.88414" lon="2.36456">
        <ele>25.5</ele>
        <time>2024-06-26T07:24:39Z</time>
      </trkpt>
      <trkpt lat="49.88414" lon="2.36456">
        <ele>25.5</ele>
        <time>2024-06-26T07:24:40Z</time>
      </trkpt>
      <trkpt lat="49.88414" lon="2.36456">
        <ele>25.5</ele>
        <time>2024-06-26T07:24:41Z</time>
      </trkpt>
      <trkpt lat="49.88414" lon="2.36456">
        <ele>25.5</ele>
        <time>2024-06-26T07:24:42Z</time>
      </trkpt>
      <trkpt lat="49.88414" lon="2.36456">
        <ele>25.5</ele>
        <time>2024-06-26T07:24:43Z</time>
      </trkpt>
      <trkpt lat="49.88414" lon="2.36456">
        <ele>25.5</ele>
        <time>2024-06-26T07:24:44Z</time>
      </trkpt>
      <trkpt lat="49.88414" lon="2.36456">
        <ele>25.5</ele>
        <time>2024-06-26T07:24:45Z</time>
      </trkpt>
      <trkpt lat="49.88414" lon="2.36456">
        <ele>25.5</ele>
        <time>2024-06-26T07:24:46Z</time>
      </trkpt>
      <trkpt lat="49.88414" lon="2.36456">
        <ele>25.5</ele>
        <time>2024-06-26T07:24:47Z</time>
      </trkpt>
      <trkpt lat="49.88414" lon="2.36456">
        <ele>25.5</ele>
        <time>2024-06-26T07:24:48Z</time>
      </trkpt>
      <trkpt lat="49.88414" lon="2.36456">
        <ele>25.5</ele>
        <time>2024-06-26T07:24:49Z</time>
      </trkpt>
      <trkpt lat="49.88414" lon="2.36456">
        <ele>25.5</ele>
        <time>2024-06-26T07:24:50Z</time>
      </trkpt>
      <trkpt lat="49.88414" lon="2.36456">
        <ele>25.5</ele>
        <time>2024-06-26T07:24:51Z</time>
      </trkpt>
      <trkpt lat="49.88414" lon="2.36456">
        <ele>25.5</ele>
        <time>2024-06-26T07:24:52Z</time>
      </trkpt>
      <trkpt lat="49.88414" lon="2.36456">
        <ele>25.5</ele>
        <time>2024-06-26T07:24:53Z</time>
      </trkpt>
      <trkpt lat="49.88414" lon="2.36456">
        <ele>25.5</ele>
        <time>2024-06-26T07:24:54Z</time>
      </trkpt>
      <trkpt lat="49.88414" lon="2.36456">
        <ele>25.5</ele>
        <time>2024-06-26T07:24:55Z</time>
      </trkpt>
      <trkpt lat="49.88414" lon="2.36456">
        <ele>25.5</ele>
        <time>2024-06-26T07:24:56Z</time>
      </trkpt>
      <trkpt lat="49.88414" lon="2.36456">
        <ele>25.5</ele>
        <time>2024-06-26T07:24:57Z</time>
      </trkpt>
      <trkpt lat="49.88414" lon="2.36456">
        <ele>25.5</ele>
        <time>2024-06-26T07:24:58Z</time>
      </trkpt>
      <trkpt lat="49.88414" lon="2.36456">
        <ele>25.5</ele>
        <time>2024-06-26T07:24:59Z</time>
      </trkpt>
      <trkpt lat="49.88414" lon="2.36456">
        <ele>25.5</ele>
        <time>2024-06-26T07:25:00Z</time>
      </trkpt>
      <trkpt lat="49.88414" lon="2.36456">
        <ele>25.5</ele>
        <time>2024-06-26T07:25:01Z</time>
      </trkpt>
      <trkpt lat="49.88414" lon="2.36458">
        <ele>25.5</ele>
        <time>2024-06-26T07:25:02Z</time>
      </trkpt>
      <trkpt lat="49.88414" lon="2.36459">
        <ele>25.5</ele>
        <time>2024-06-26T07:25:03Z</time>
      </trkpt>
      <trkpt lat="49.88414" lon="2.36459">
        <ele>25.5</ele>
        <time>2024-06-26T07:25:04Z</time>
      </trkpt>
      <trkpt lat="49.88414" lon="2.36459">
        <ele>25.5</ele>
        <time>2024-06-26T07:25:05Z</time>
      </trkpt>
      <trkpt lat="49.88414" lon="2.36459">
        <ele>25.5</ele>
        <time>2024-06-26T07:25:06Z</time>
      </trkpt>
      <trkpt lat="49.88414" lon="2.36459">
        <ele>25.5</ele>
        <time>2024-06-26T07:25:07Z</time>
      </trkpt>
      <trkpt lat="49.88414" lon="2.36459">
        <ele>25.5</ele>
        <time>2024-06-26T07:25:08Z</time>
      </trkpt>
      <trkpt lat="49.88414" lon="2.36459">
        <ele>25.5</ele>
        <time>2024-06-26T07:25:09Z</time>
      </trkpt>
      <trkpt lat="49.88414" lon="2.36459">
        <ele>25.5</ele>
        <time>2024-06-26T07:25:10Z</time>
      </trkpt>
      <trkpt lat="49.88414" lon="2.36459">
        <ele>25.5</ele>
        <time>2024-06-26T07:25:11Z</time>
      </trkpt>
      <trkpt lat="49.88414" lon="2.36459">
        <ele>25.5</ele>
        <time>2024-06-26T07:25:12Z</time>
      </trkpt>
      <trkpt lat="49.88414" lon="2.36459">
        <ele>25.5</ele>
        <time>2024-06-26T07:25:13Z</time>
      </trkpt>
      <trkpt lat="49.88414" lon="2.36459">
        <ele>25.5</ele>
        <time>2024-06-26T07:25:14Z</time>
      </trkpt>
      <trkpt lat="49.88414" lon="2.36459">
        <ele>25.5</ele>
        <time>2024-06-26T07:25:15Z</time>
      </trkpt>
      <trkpt lat="49.88414" lon="2.36459">
        <ele>25.5</ele>
        <time>2024-06-26T07:25:16Z</time>
      </trkpt>
      <trkpt lat="49.88414" lon="2.36459">
        <ele>25.5</ele>
        <time>2024-06-26T07:25:17Z</time>
      </trkpt>
      <trkpt lat="49.88414" lon="2.36459">
        <ele>25.5</ele>
        <time>2024-06-26T07:25:18Z</time>
      </trkpt>
      <trkpt lat="49.88414" lon="2.36459">
        <ele>25.5</ele>
        <time>2024-06-26T07:25:19Z</time>
      </trkpt>
      <trkpt lat="49.88414" lon="2.36459">
        <ele>25.5</ele>
        <time>2024-06-26T07:25:20Z</time>
      </trkpt>
      <trkpt lat="49.88414" lon="2.36459">
        <ele>25.5</ele>
        <time>2024-06-26T07:25:21Z</time>
      </trkpt>
      <trkpt lat="49.88414" lon="2.36459">
        <ele>25.5</ele>
        <time>2024-06-26T07:25:22Z</time>
      </trkpt>
      <trkpt lat="49.88414" lon="2.36459">
        <ele>25.5</ele>
        <time>2024-06-26T07:25:23Z</time>
      </trkpt>
      <trkpt lat="49.88414" lon="2.36459">
        <ele>25.5</ele>
        <time>2024-06-26T07:25:24Z</time>
      </trkpt>
      <trkpt lat="49.88414" lon="2.36459">
        <ele>25.5</ele>
        <time>2024-06-26T07:25:25Z</time>
      </trkpt>
      <trkpt lat="49.88414" lon="2.36459">
        <ele>25.5</ele>
        <time>2024-06-26T07:25:26Z</time>
      </trkpt>
      <trkpt lat="49.88414" lon="2.36459">
        <ele>25.5</ele>
        <time>2024-06-26T07:25:27Z</time>
      </trkpt>
      <trkpt lat="49.88414" lon="2.36459">
        <ele>25.5</ele>
        <time>2024-06-26T07:25:28Z</time>
      </trkpt>
      <trkpt lat="49.88414" lon="2.36459">
        <ele>25.5</ele>
        <time>2024-06-26T07:25:29Z</time>
      </trkpt>
      <trkpt lat="49.88414" lon="2.36459">
        <ele>25.5</ele>
        <time>2024-06-26T07:25:30Z</time>
      </trkpt>
      <trkpt lat="49.88414" lon="2.36459">
        <ele>25.5</ele>
        <time>2024-06-26T07:25:31Z</time>
      </trkpt>
      <trkpt lat="49.88414" lon="2.36459">
        <ele>25.5</ele>
        <time>2024-06-26T07:25:32Z</time>
      </trkpt>
      <trkpt lat="49.88414" lon="2.36459">
        <ele>25.5</ele>
        <time>2024-06-26T07:25:33Z</time>
      </trkpt>
      <trkpt lat="49.88414" lon="2.36459">
        <ele>25.5</ele>
        <time>2024-06-26T07:25:34Z</time>
      </trkpt>
      <trkpt lat="49.88414" lon="2.36459">
        <ele>25.5</ele>
        <time>2024-06-26T07:25:35Z</time>
      </trkpt>
      <trkpt lat="49.88414" lon="2.36459">
        <ele>25.5</ele>
        <time>2024-06-26T07:25:36Z</time>
      </trkpt>
      <trkpt lat="49.88414" lon="2.36459">
        <ele>25.5</ele>
        <time>2024-06-26T07:25:37Z</time>
      </trkpt>
      <trkpt lat="49.88414" lon="2.36459">
        <ele>25.5</ele>
        <time>2024-06-26T07:25:38Z</time>
      </trkpt>
      <trkpt lat="49.88414" lon="2.36459">
        <ele>25.5</ele>
        <time>2024-06-26T07:25:39Z</time>
      </trkpt>
      <trkpt lat="49.88414" lon="2.36459">
        <ele>25.5</ele>
        <time>2024-06-26T07:25:40Z</time>
      </trkpt>
      <trkpt lat="49.88414" lon="2.36459">
        <ele>25.5</ele>
        <time>2024-06-26T07:25:41Z</time>
      </trkpt>
      <trkpt lat="49.88414" lon="2.36459">
        <ele>25.5</ele>
        <time>2024-06-26T07:25:43Z</time>
      </trkpt>
      <trkpt lat="49.88414" lon="2.36459">
        <ele>25.5</ele>
        <time>2024-06-26T07:25:44Z</time>
      </trkpt>
      <trkpt lat="49.88414" lon="2.36459">
        <ele>25.5</ele>
        <time>2024-06-26T07:25:45Z</time>
      </trkpt>
      <trkpt lat="49.88414" lon="2.36459">
        <ele>25.5</ele>
        <time>2024-06-26T07:25:46Z</time>
      </trkpt>
      <trkpt lat="49.88414" lon="2.36459">
        <ele>25.5</ele>
        <time>2024-06-26T07:25:47Z</time>
      </trkpt>
      <trkpt lat="49.88414" lon="2.36459">
        <ele>25.5</ele>
        <time>2024-06-26T07:25:48Z</time>
      </trkpt>
      <trkpt lat="49.88414" lon="2.36459">
        <ele>25.5</ele>
        <time>2024-06-26T07:25:49Z</time>
      </trkpt>
      <trkpt lat="49.88414" lon="2.36459">
        <ele>25.5</ele>
        <time>2024-06-26T07:25:50Z</time>
      </trkpt>
      <trkpt lat="49.88414" lon="2.36459">
        <ele>25.5</ele>
        <time>2024-06-26T07:25:51Z</time>
      </trkpt>
      <trkpt lat="49.88414" lon="2.36459">
        <ele>25.5</ele>
        <time>2024-06-26T07:25:52Z</time>
      </trkpt>
      <trkpt lat="49.88414" lon="2.36459">
        <ele>25.5</ele>
        <time>2024-06-26T07:25:53Z</time>
      </trkpt>
      <trkpt lat="49.88414" lon="2.36459">
        <ele>25.5</ele>
        <time>2024-06-26T07:25:54Z</time>
      </trkpt>
      <trkpt lat="49.88414" lon="2.36459">
        <ele>25.5</ele>
        <time>2024-06-26T07:25:55Z</time>
      </trkpt>
      <trkpt lat="49.88414" lon="2.36459">
        <ele>25.5</ele>
        <time>2024-06-26T07:25:56Z</time>
      </trkpt>
      <trkpt lat="49.88414" lon="2.36459">
        <ele>25.5</ele>
        <time>2024-06-26T07:25:57Z</time>
      </trkpt>
      <trkpt lat="49.88414" lon="2.36459">
        <ele>25.5</ele>
        <time>2024-06-26T07:25:58Z</time>
      </trkpt>
      <trkpt lat="49.88414" lon="2.36459">
        <ele>25.5</ele>
        <time>2024-06-26T07:25:59Z</time>
      </trkpt>
      <trkpt lat="49.88242" lon="2.37849">
        <ele>26.6</ele>
        <time>2024-06-26T08:21:51Z</time>
      </trkpt>
      <trkpt lat="49.88239" lon="2.37846">
        <ele>26.6</ele>
        <time>2024-06-26T08:21:52Z</time>
      </trkpt>
      <trkpt lat="49.88255" lon="2.37851">
        <ele>26.6</ele>
        <time>2024-06-26T08:21:53Z</time>
      </trkpt>
      <trkpt lat="49.88257" lon="2.37854">
        <ele>26.6</ele>
        <time>2024-06-26T08:21:54Z</time>
      </trkpt>
      <trkpt lat="49.88255" lon="2.37859">
        <ele>26.6</ele>
        <time>2024-06-26T08:21:55Z</time>
      </trkpt>
      <trkpt lat="49.88252" lon="2.37859">
        <ele>26.6</ele>
        <time>2024-06-26T08:21:57Z</time>
      </trkpt>
      <trkpt lat="49.88252" lon="2.37861">
        <ele>26.6</ele>
        <time>2024-06-26T08:21:59Z</time>
      </trkpt>
      <trkpt lat="49.88251" lon="2.37861">
        <ele>26.6</ele>
        <time>2024-06-26T08:22:00Z</time>
      </trkpt>
      <trkpt lat="49.88251" lon="2.37862">
        <ele>26.6</ele>
        <time>2024-06-26T08:22:01Z</time>
      </trkpt>
      <trkpt lat="49.88251" lon="2.37862">
        <ele>26.6</ele>
        <time>2024-06-26T08:22:02Z</time>
      </trkpt>
      <trkpt lat="49.88251" lon="2.37862">
        <ele>26.6</ele>
        <time>2024-06-26T08:22:03Z</time>
      </trkpt>
      <trkpt lat="49.8825" lon="2.37861">
        <ele>26.6</ele>
        <time>2024-06-26T08:22:04Z</time>
      </trkpt>
      <trkpt lat="49.88252" lon="2.37853">
        <ele>26.6</ele>
        <time>2024-06-26T08:30:50Z</time>
      </trkpt>
      <trkpt lat="49.88021" lon="2.35843">
        <ele>25.7</ele>
        <time>2024-06-26T08:48:38Z</time>
      </trkpt>
      <trkpt lat="49.88033" lon="2.35863">
        <ele>25.6</ele>
        <time>2024-06-26T08:48:40Z</time>
      </trkpt>
      <trkpt lat="49.88031" lon="2.35851">
        <ele>25.6</ele>
        <time>2024-06-26T08:48:41Z</time>
      </trkpt>
      <trkpt lat="49.8803" lon="2.35849">
        <ele>25.6</ele>
        <time>2024-06-26T08:48:42Z</time>
      </trkpt>
      <trkpt lat="49.8803" lon="2.35848">
        <ele>25.6</ele>
        <time>2024-06-26T08:48:43Z</time>
      </trkpt>
      <trkpt lat="49.88028" lon="2.35846">
        <ele>25.6</ele>
        <time>2024-06-26T08:48:45Z</time>
      </trkpt>
      <trkpt lat="49.88028" lon="2.35846">
        <ele>25.6</ele>
        <time>2024-06-26T08:48:46Z</time>
      </trkpt>
      <trkpt lat="49.88028" lon="2.35846">
        <ele>25.6</ele>
        <time>2024-06-26T08:48:47Z</time>
      </trkpt>
      <trkpt lat="49.88028" lon="2.35846">
        <ele>25.6</ele>
        <time>2024-06-26T08:48:48Z</time>
      </trkpt>
      <trkpt lat="49.88028" lon="2.35846">
        <ele>25.6</ele>
        <time>2024-06-26T08:48:49Z</time>
      </trkpt>
      <trkpt lat="49.88028" lon="2.35846">
        <ele>25.6</ele>
        <time>2024-06-26T08:48:51Z</time>
      </trkpt>
      <trkpt lat="49.88028" lon="2.35846">
        <ele>25.6</ele>
        <time>2024-06-26T08:48:52Z</time>
      </trkpt>
      <trkpt lat="49.88028" lon="2.35846">
        <ele>25.6</ele>
        <time>2024-06-26T08:48:53Z</time>
      </trkpt>
      <trkpt lat="49.88028" lon="2.35846">
        <ele>25.6</ele>
        <time>2024-06-26T08:48:54Z</time>
      </trkpt>
      <trkpt lat="49.88028" lon="2.35846">
        <ele>25.6</ele>
        <time>2024-06-26T08:48:55Z</time>
      </trkpt>
      <trkpt lat="49.88028" lon="2.35846">
        <ele>25.6</ele>
        <time>2024-06-26T08:48:56Z</time>
      </trkpt>
      <trkpt lat="49.88028" lon="2.35846">
        <ele>25.6</ele>
        <time>2024-06-26T08:48:57Z</time>
      </trkpt>
      <trkpt lat="49.88028" lon="2.35846">
        <ele>25.6</ele>
        <time>2024-06-26T08:48:58Z</time>
      </trkpt>
      <trkpt lat="49.88028" lon="2.35846">
        <ele>25.6</ele>
        <time>2024-06-26T08:48:59Z</time>
      </trkpt>
      <trkpt lat="49.88028" lon="2.35846">
        <ele>25.6</ele>
        <time>2024-06-26T08:49:00Z</time>
      </trkpt>
      <trkpt lat="49.88028" lon="2.35846">
        <ele>25.6</ele>
        <time>2024-06-26T08:49:01Z</time>
      </trkpt>
      <trkpt lat="49.88028" lon="2.35846">
        <ele>25.6</ele>
        <time>2024-06-26T08:49:02Z</time>
      </trkpt>
      <trkpt lat="49.88028" lon="2.35846">
        <ele>25.6</ele>
        <time>2024-06-26T08:49:03Z</time>
      </trkpt>
      <trkpt lat="49.88028" lon="2.35846">
        <ele>25.6</ele>
        <time>2024-06-26T08:49:04Z</time>
      </trkpt>
      <trkpt lat="49.88028" lon="2.35846">
        <ele>25.6</ele>
        <time>2024-06-26T08:49:05Z</time>
      </trkpt>
      <trkpt lat="49.88028" lon="2.35846">
        <ele>25.6</ele>
        <time>2024-06-26T08:49:06Z</time>
      </trkpt>
      <trkpt lat="49.88028" lon="2.35846">
        <ele>25.6</ele>
        <time>2024-06-26T08:49:07Z</time>
      </trkpt>
      <trkpt lat="49.88028" lon="2.35846">
        <ele>25.6</ele>
        <time>2024-06-26T08:49:08Z</time>
      </trkpt>
      <trkpt lat="49.88028" lon="2.35846">
        <ele>25.6</ele>
        <time>2024-06-26T08:49:09Z</time>
      </trkpt>
      <trkpt lat="49.88028" lon="2.35846">
        <ele>25.6</ele>
        <time>2024-06-26T08:49:10Z</time>
      </trkpt>
      <trkpt lat="49.88028" lon="2.35846">
        <ele>25.6</ele>
        <time>2024-06-26T08:49:11Z</time>
      </trkpt>
      <trkpt lat="49.88028" lon="2.35846">
        <ele>25.6</ele>
        <time>2024-06-26T08:49:12Z</time>
      </trkpt>
      <trkpt lat="49.88028" lon="2.35846">
        <ele>25.6</ele>
        <time>2024-06-26T08:49:13Z</time>
      </trkpt>
      <trkpt lat="49.88028" lon="2.35846">
        <ele>25.6</ele>
        <time>2024-06-26T08:49:14Z</time>
      </trkpt>
      <trkpt lat="49.88028" lon="2.35846">
        <ele>25.6</ele>
        <time>2024-06-26T08:49:15Z</time>
      </trkpt>
      <trkpt lat="49.88028" lon="2.35846">
        <ele>25.6</ele>
        <time>2024-06-26T08:49:16Z</time>
      </trkpt>
      <trkpt lat="49.88028" lon="2.35846">
        <ele>25.6</ele>
        <time>2024-06-26T08:49:17Z</time>
      </trkpt>
      <trkpt lat="49.88028" lon="2.35846">
        <ele>25.6</ele>
        <time>2024-06-26T08:49:18Z</time>
      </trkpt>
      <trkpt lat="49.88028" lon="2.35846">
        <ele>25.6</ele>
        <time>2024-06-26T08:49:19Z</time>
      </trkpt>
      <trkpt lat="49.88028" lon="2.35846">
        <ele>25.6</ele>
        <time>2024-06-26T08:49:20Z</time>
      </trkpt>
      <trkpt lat="49.88028" lon="2.35846">
        <ele>25.6</ele>
        <time>2024-06-26T08:49:21Z</time>
      </trkpt>
      <trkpt lat="49.88028" lon="2.35846">
        <ele>25.6</ele>
        <time>2024-06-26T08:49:22Z</time>
      </trkpt>
      <trkpt lat="49.88028" lon="2.35846">
        <ele>25.6</ele>
        <time>2024-06-26T08:49:23Z</time>
      </trkpt>
      <trkpt lat="49.88028" lon="2.35846">
        <ele>25.6</ele>
        <time>2024-06-26T08:49:24Z</time>
      </trkpt>
      <trkpt lat="49.88028" lon="2.35846">
        <ele>25.6</ele>
        <time>2024-06-26T08:49:25Z</time>
      </trkpt>
      <trkpt lat="49.88028" lon="2.35846">
        <ele>25.6</ele>
        <time>2024-06-26T08:49:26Z</time>
      </trkpt>
      <trkpt lat="49.88028" lon="2.35846">
        <ele>25.6</ele>
        <time>2024-06-26T08:49:27Z</time>
      </trkpt>
      <trkpt lat="49.88028" lon="2.35846">
        <ele>25.6</ele>
        <time>2024-06-26T08:49:28Z</time>
      </trkpt>
      <trkpt lat="49.88028" lon="2.35846">
        <ele>25.6</ele>
        <time>2024-06-26T08:49:29Z</time>
      </trkpt>
      <trkpt lat="49.88028" lon="2.35846">
        <ele>25.6</ele>
        <time>2024-06-26T08:49:30Z</time>
      </trkpt>
      <trkpt lat="49.88028" lon="2.35846">
        <ele>25.6</ele>
        <time>2024-06-26T08:49:31Z</time>
      </trkpt>
      <trkpt lat="49.88028" lon="2.35846">
        <ele>25.6</ele>
        <time>2024-06-26T08:49:32Z</time>
      </trkpt>
      <trkpt lat="49.88028" lon="2.35846">
        <ele>25.6</ele>
        <time>2024-06-26T08:49:33Z</time>
      </trkpt>
      <trkpt lat="49.88028" lon="2.35846">
        <ele>25.6</ele>
        <time>2024-06-26T08:49:34Z</time>
      </trkpt>
      <trkpt lat="49.88028" lon="2.35846">
        <ele>25.6</ele>
        <time>2024-06-26T08:49:35Z</time>
      </trkpt>
      <trkpt lat="49.88028" lon="2.35846">
        <ele>25.6</ele>
        <time>2024-06-26T08:49:36Z</time>
      </trkpt>
      <trkpt lat="49.88028" lon="2.35846">
        <ele>25.6</ele>
        <time>2024-06-26T08:49:37Z</time>
      </trkpt>
      <trkpt lat="49.88028" lon="2.35846">
        <ele>25.6</ele>
        <time>2024-06-26T08:49:38Z</time>
      </trkpt>
      <trkpt lat="49.88028" lon="2.35846">
        <ele>25.6</ele>
        <time>2024-06-26T08:49:39Z</time>
      </trkpt>
      <trkpt lat="49.88028" lon="2.35846">
        <ele>25.6</ele>
        <time>2024-06-26T08:49:40Z</time>
      </trkpt>
      <trkpt lat="49.88028" lon="2.35846">
        <ele>25.6</ele>
        <time>2024-06-26T08:49:41Z</time>
      </trkpt>
      <trkpt lat="49.88028" lon="2.35846">
        <ele>25.6</ele>
        <time>2024-06-26T08:49:42Z</time>
      </trkpt>
      <trkpt lat="49.88028" lon="2.35846">
        <ele>25.6</ele>
        <time>2024-06-26T08:49:43Z</time>
      </trkpt>
      <trkpt lat="49.88027" lon="2.35846">
        <ele>25.6</ele>
        <time>2024-06-26T08:49:44Z</time>
      </trkpt>
      <trkpt lat="49.88027" lon="2.35846">
        <ele>25.6</ele>
        <time>2024-06-26T08:49:45Z</time>
      </trkpt>
      <trkpt lat="49.88027" lon="2.35846">
        <ele>25.6</ele>
        <time>2024-06-26T08:49:46Z</time>
      </trkpt>
      <trkpt lat="49.88026" lon="2.35845">
        <ele>25.6</ele>
        <time>2024-06-26T08:49:47Z</time>
      </trkpt>
      <trkpt lat="49.88026" lon="2.35846">
        <ele>25.6</ele>
        <time>2024-06-26T08:49:48Z</time>
      </trkpt>
      <trkpt lat="49.88025" lon="2.35848">
        <ele>25.6</ele>
        <time>2024-06-26T08:49:49Z</time>
      </trkpt>
      <trkpt lat="49.88024" lon="2.35849">
        <ele>25.6</ele>
        <time>2024-06-26T08:49:50Z</time>
      </trkpt>
      <trkpt lat="49.88023" lon="2.35851">
        <ele>25.6</ele>
        <time>2024-06-26T08:49:51Z</time>
      </trkpt>
      <trkpt lat="49.88022" lon="2.35854">
        <ele>25.6</ele>
        <time>2024-06-26T08:49:52Z</time>
      </trkpt>
      <trkpt lat="49.88021" lon="2.35854">
        <ele>25.6</ele>
        <time>2024-06-26T08:49:53Z</time>
      </trkpt>
      <trkpt lat="49.8802" lon="2.35854">
        <ele>25.6</ele>
        <time>2024-06-26T08:49:54Z</time>
      </trkpt>
      <trkpt lat="49.88018" lon="2.35854">
        <ele>25.6</ele>
        <time>2024-06-26T08:49:55Z</time>
      </trkpt>
      <trkpt lat="49.88017" lon="2.35854">
        <ele>25.6</ele>
        <time>2024-06-26T08:49:56Z</time>
      </trkpt>
      <trkpt lat="49.88017" lon="2.35852">
        <ele>25.6</ele>
        <time>2024-06-26T08:49:57Z</time>
      </trkpt>
      <trkpt lat="49.88016" lon="2.35847">
        <ele>25.6</ele>
        <time>2024-06-26T08:49:58Z</time>
      </trkpt>
      <trkpt lat="49.88016" lon="2.35846">
        <ele>25.6</ele>
        <time>2024-06-26T08:49:59Z</time>
      </trkpt>
      <trkpt lat="49.88016" lon="2.35844">
        <ele>25.6</ele>
        <time>2024-06-26T08:50:00Z</time>
      </trkpt>
      <trkpt lat="49.88015" lon="2.35841">
        <ele>25.6</ele>
        <time>2024-06-26T08:50:01Z</time>
      </trkpt>
      <trkpt lat="49.88015" lon="2.3584">
        <ele>25.6</ele>
        <time>2024-06-26T08:50:02Z</time>
      </trkpt>
      <trkpt lat="49.88015" lon="2.35838">
        <ele>25.6</ele>
        <time>2024-06-26T08:50:03Z</time>
      </trkpt>
      <trkpt lat="49.88014" lon="2.35837">
        <ele>25.6</ele>
        <time>2024-06-26T08:50:04Z</time>
      </trkpt>
      <trkpt lat="49.88014" lon="2.35836">
        <ele>25.6</ele>
        <time>2024-06-26T08:50:05Z</time>
      </trkpt>
      <trkpt lat="49.88014" lon="2.35834">
        <ele>25.6</ele>
        <time>2024-06-26T08:50:06Z</time>
      </trkpt>
      <trkpt lat="49.88014" lon="2.35833">
        <ele>25.6</ele>
        <time>2024-06-26T08:50:07Z</time>
      </trkpt>
      <trkpt lat="49.88013" lon="2.35832">
        <ele>25.6</ele>
        <time>2024-06-26T08:50:08Z</time>
      </trkpt>
      <trkpt lat="49.88013" lon="2.35831">
        <ele>25.6</ele>
        <time>2024-06-26T08:50:09Z</time>
      </trkpt>
      <trkpt lat="49.88013" lon="2.3583">
        <ele>25.6</ele>
        <time>2024-06-26T08:50:10Z</time>
      </trkpt>
      <trkpt lat="49.88013" lon="2.35829">
        <ele>25.6</ele>
        <time>2024-06-26T08:50:11Z</time>
      </trkpt>
      <trkpt lat="49.88012" lon="2.35827">
        <ele>25.6</ele>
        <time>2024-06-26T08:50:12Z</time>
      </trkpt>
      <trkpt lat="49.88012" lon="2.35826">
        <ele>25.6</ele>
        <time>2024-06-26T08:50:13Z</time>
      </trkpt>
      <trkpt lat="49.88012" lon="2.35824">
        <ele>25.6</ele>
        <time>2024-06-26T08:50:14Z</time>
      </trkpt>
      <trkpt lat="49.88012" lon="2.35823">
        <ele>25.6</ele>
        <time>2024-06-26T08:50:15Z</time>
      </trkpt>
      <trkpt lat="49.88011" lon="2.3582">
        <ele>25.6</ele>
        <time>2024-06-26T08:50:16Z</time>
      </trkpt>
      <trkpt lat="49.88011" lon="2.35818">
        <ele>25.6</ele>
        <time>2024-06-26T08:50:17Z</time>
      </trkpt>
      <trkpt lat="49.8801" lon="2.35816">
        <ele>25.6</ele>
        <time>2024-06-26T08:50:18Z</time>
      </trkpt>
      <trkpt lat="49.88009" lon="2.35814">
        <ele>25.6</ele>
        <time>2024-06-26T08:50:19Z</time>
      </trkpt>
      <trkpt lat="49.88008" lon="2.35812">
        <ele>25.6</ele>
        <time>2024-06-26T08:50:20Z</time>
      </trkpt>
      <trkpt lat="49.88008" lon="2.3581">
        <ele>25.6</ele>
        <time>2024-06-26T08:50:21Z</time>
      </trkpt>
      <trkpt lat="49.88007" lon="2.35807">
        <ele>25.6</ele>
        <time>2024-06-26T08:50:22Z</time>
      </trkpt>
      <trkpt lat="49.88006" lon="2.35805">
        <ele>25.6</ele>
        <time>2024-06-26T08:50:23Z</time>
      </trkpt>
      <trkpt lat="49.88006" lon="2.35804">
        <ele>25.6</ele>
        <time>2024-06-26T08:50:24Z</time>
      </trkpt>
      <trkpt lat="49.88005" lon="2.35801">
        <ele>25.6</ele>
        <time>2024-06-26T08:50:25Z</time>
      </trkpt>
      <trkpt lat="49.88004" lon="2.35799">
        <ele>25.6</ele>
        <time>2024-06-26T08:50:27Z</time>
      </trkpt>
      <trkpt lat="49.88004" lon="2.35798">
        <ele>25.6</ele>
        <time>2024-06-26T08:50:28Z</time>
      </trkpt>
      <trkpt lat="49.88003" lon="2.35796">
        <ele>25.6</ele>
        <time>2024-06-26T08:50:29Z</time>
      </trkpt>
      <trkpt lat="49.88003" lon="2.35795">
        <ele>25.6</ele>
        <time>2024-06-26T08:50:30Z</time>
      </trkpt>
      <trkpt lat="49.88002" lon="2.35792">
        <ele>25.6</ele>
        <time>2024-06-26T08:50:31Z</time>
      </trkpt>
      <trkpt lat="49.88002" lon="2.35791">
        <ele>25.6</ele>
        <time>2024-06-26T08:50:32Z</time>
      </trkpt>
      <trkpt lat="49.88001" lon="2.35789">
        <ele>25.6</ele>
        <time>2024-06-26T08:50:33Z</time>
      </trkpt>
      <trkpt lat="49.88" lon="2.35786">
        <ele>25.6</ele>
        <time>2024-06-26T08:50:34Z</time>
      </trkpt>
      <trkpt lat="49.88" lon="2.35785">
        <ele>25.6</ele>
        <time>2024-06-26T08:50:36Z</time>
      </trkpt>
      <trkpt lat="49.87999" lon="2.35784">
        <ele>25.6</ele>
        <time>2024-06-26T08:50:37Z</time>
      </trkpt>
      <trkpt lat="49.88278" lon="2.35271">
        <ele>25.3</ele>
        <time>2024-06-26T09:10:49Z</time>
      </trkpt>
      <trkpt lat="49.88278" lon="2.35264">
        <ele>25.3</ele>
        <time>2024-06-26T09:10:50Z</time>
      </trkpt>
      <trkpt lat="49.88278" lon="2.35265">
        <ele>25.3</ele>
        <time>2024-06-26T09:10:51Z</time>
      </trkpt>
    </trkseg>
  </trk>
</gpx>